[[{"header":{"parameterUnit":"m.s-1","parameterCategory":1,"la1":31.0,"la2":29.5877,"lo1":-88.7671,"lo2":-86.6584,"dy":0.0162,"dx":0.0185,"nx":115,"ny":88,"refTime":"2023-03-13T06:00:00:Z","depth":0,"parameterNumber":2,"parameterNumberName":"U-component_of_WINDS"},"data":[0.0,0.0,0.0,0.0,0.0,0.0,0.0,0.0,0.0,0.0,0.0,0.0,0.0,0.0,0.0,0.0,0.0,0.0,0.0,0.0,0.0,0.0,0.0,0.0,0.0,0.0,0.0,0.0,0.0,0.0,0.0,0.0,0.0,0.0,0.0,0.0,0.0,0.0,0.0,0.0,0.0,0.0,0.0,0.0,0.0,0.0,0.0,0.0,0.0,0.0,0.0,0.0,0.0,0.0,0.0,0.0,0.0,0.0,0.0,0.0,0.0,0.0,0.0,0.0,0.0,0.0,0.0,0.0,0.0,0.0,0.0,0.0,0.0,0.0,0.0,0.0,0.0,0.0,0.0,0.0,0.0,0.0,0.0,0.0,0.0,0.0,0.0,0.0,0.0,0.0,0.0,0.0,0.0,0.0,0.0,0.0,0.0,0.0,0.0,0.0,0.0,0.0,0.0,0.0,0.0,0.0,0.0,0.0,0.0,0.0,0.0,0.0,0.0,0.0,0.0,0.0,0.0,0.0,0.0,0.0,0.0,0.0,0.0,0.0,0.0,0.0,0.0,0.0,0.0,0.0,0.0,0.0,0.0,0.0,0.0,0.0,0.0,0.0,0.0,0.0,0.0,0.0,0.0,0.0,0.0,0.0,0.0,0.0,0.0,0.0,0.0,0.0,0.0,0.0,0.0,0.0,0.0,0.0,0.0,0.0,0.0,0.0,0.0,0.0,0.0,0.0,0.0,0.0,0.0,0.0,0.0,0.0,0.0,0.0,0.0,0.0,0.0,0.0,0.0,0.0,0.0,0.0,0.0,0.0,0.0,0.0,0.0,0.0,0.0,0.0,0.0,0.0,0.0,0.0,0.0,0.0,0.0,0.0,0.0,0.0,0.0,0.0,0.0,0.0,0.0,0.0,0.0,0.0,0.0,0.0,0.0,0.0,0.0,0.0,0.0,0.0,0.0,0.0,0.0,0.0,0.0,0.0,0.0,0.0,0.0,0.0,0.0,0.0,0.0,0.0,0.0,0.0,0.0,0.0,0.0,0.0,0.0,0.0,0.0,0.0,0.0,0.0,0.0,0.0,0.0,0.0,0.0,0.0,0.0,0.0,0.0,0.0,0.0,0.0,0.0,0.0,0.0,0.0,0.0,0.0,0.0,0.0,0.0,0.0,0.0,0.0,0.0,0.0,0.0,0.0,0.0,0.0,0.0,0.0,0.0,0.0,0.0,0.0,0.0,0.0,0.0,0.0,0.0,0.0,0.0,0.0,0.0,0.0,0.0,0.0,0.0,0.0,0.0,0.0,0.0,0.0,0.0,0.0,0.0,0.0,0.0,0.0,0.0,0.0,0.0,0.0,0.0,0.0,0.0,0.0,0.0,0.0,0.0,0.0,0.0,0.0,0.0,0.0,0.0,0.0,0.0,0.0,0.0,0.0,0.0,0.0,0.0,0.0,0.0,0.0,0.0,0.0,0.0,0.0,0.0,0.0,0.0,0.0,0.0,0.0,0.0,0.0,0.0,0.0,0.0,0.0,0.0,0.0,0.0,0.0,0.0,0.0,0.0,0.0,0.0,0.0,0.0,0.0,0.0,0.0,0.0,0.0,0.0,0.0,0.0,0.0,0.0,0.0,0.0,0.0,0.0,0.0,0.0,0.0,0.0,0.0,0.0,0.0,0.0,0.0,0.0,0.0,0.0,0.0,0.0,0.0,0.0,0.0,0.0,0.0,0.0,0.0,0.0,0.0,0.0,0.0,0.0,0.0,0.0,0.0,0.0,0.0,0.0,0.0,0.0,0.0,0.0,0.0,0.0,0.0,0.0,0.0,0.0,0.0,0.0,0.0,0.0,0.0,0.0,0.0,0.0,0.0,0.0,0.0,0.0,0.0,0.0,0.0,0.0,0.0,0.0,0.0,0.0,0.0,0.0,0.0,0.0,0.0,0.0,0.0,0.0,0.0,0.0,0.0,0.0,0.0,0.0,0.0,0.0,0.0,0.0,0.0,0.0,0.0,0.0,0.0,0.0,0.0,0.0,0.0,0.0,0.0,0.0,0.0,0.0,0.0,0.0,0.0,0.0,0.0,0.0,0.0,0.0,0.0,0.0,0.0,0.0,0.0,0.0,0.0,0.0,0.0,0.0,0.0,0.0,0.0,0.0,0.0,0.0,0.0,0.0,0.0,0.0,0.0,0.0,0.0,0.0,0.0,0.0,0.0,0.0,0.0,0.0,0.0,0.0,0.0,0.0,0.0,0.0,0.0,0.0,0.0,0.0,0.0,0.0,0.0,0.0,0.0,0.0,0.0,0.0,0.0,0.0,0.0,0.0,0.0,0.0,0.0,0.0,0.0,0.0,0.0,0.0,0.0,0.0,0.0,0.0,0.0,0.0,0.0,0.0,0.0,0.0,0.0,0.0,0.0,0.0,0.0,0.0,0.0,0.0,0.0,0.0,0.0,0.0,0.0,0.0,0.0,0.0,0.0,0.0,0.0,0.0,0.0,0.0,0.0,0.0,0.0,0.0,0.0,0.0,0.0,0.0,0.0,0.0,0.0,0.0,0.0,0.0,0.0,0.0,0.0,0.0,0.0,0.0,0.0,0.0,0.0,0.0,0.0,0.0,0.0,0.0,0.0,0.0,0.0,0.0,0.0,0.0,0.0,0.0,0.0,0.0,0.0,0.0,0.0,0.0,0.0,0.0,0.0,0.0,0.0,0.0,0.0,0.0,0.0,0.0,0.0,0.0,0.0,0.0,0.0,0.0,0.0,0.0,0.0,0.0,0.0,0.0,0.0,0.0,0.0,0.0,0.0,0.0,0.0,0.0,0.0,0.0,0.0,0.0,0.0,0.0,0.0,0.0,0.0,0.0,0.0,0.0,0.0,0.0,0.0,0.0,0.0,0.0,0.0,0.0,0.0,0.0,0.0,0.0,0.0,0.0,0.0,0.0,0.0,0.0,0.0,0.0,0.0,0.0,0.0,0.0,0.0,0.0,0.0,0.0,0.0,0.0,0.0,0.0,0.0,0.0,0.0,0.0,0.0,0.0,0.0,0.0,0.0,0.0,0.0,0.0,0.0,0.0,0.0,0.0,0.0,0.0,0.0,0.0,0.0,0.0,0.0,0.0,0.0,0.0,0.0,0.0,0.0,0.0,0.0,0.0,0.0,0.0,0.0,0.0,0.0,0.0,0.0,0.0,0.0,0.0,0.0,0.0,0.0,0.0,0.0,0.0,0.0,0.0,0.0,0.0,0.0,0.0,0.0,0.0,0.0,0.0,0.0,0.0,0.0,0.0,0.0,0.0,0.0,0.0,0.0,0.0,0.0,0.0,0.0,0.0,0.0,0.0,0.0,0.0,0.0,0.0,0.0,0.0,0.0,0.0,0.0,0.0,0.0,0.0,0.0,0.0,0.0,0.0,0.0,0.0,0.0,0.0,0.0,0.0,0.0,0.0,0.0,0.0,0.0,0.0,0.0,0.0,0.0,0.0,0.0,0.0,0.0,0.0,0.0,0.0,0.0,0.0,0.0,0.0,0.0,0.0,0.0,0.0,0.0,0.0,0.0,0.0,0.0,0.0,0.0,0.0,0.0,0.0,0.0,0.0,0.0,0.0,0.0,0.0,0.0,0.0,0.0,0.0,0.0,0.0,0.0,0.0,0.0,0.0,0.0,0.0,0.0,0.0,0.0,0.0,0.0,0.0,0.0,0.0,0.0,0.0,0.0,0.0,0.0,0.0,0.0,0.0,0.0,0.0,0.0,0.0,0.0,0.0,0.0,0.0,0.0,0.0,0.0,0.0,0.0,0.0,0.0,0.0,0.0,0.0,0.0,0.0,0.0,0.0,0.0,0.0,0.0,0.0,0.0,0.0,0.0,0.0,0.0,0.0,0.0,0.0,0.0,0.0,0.0,0.0,0.0,0.0,0.0,0.0,0.0,0.0,0.0,0.0,0.0,0.0,0.0,0.0,0.0,0.0,0.0,0.0,0.0,0.0,0.0,0.0,0.0,0.0,0.0,0.0,0.0,0.0,0.0,0.0,0.0,0.0,0.0,0.0,0.0,0.0,0.0,0.0,0.0,0.0,0.0,0.0,0.0,0.0,0.0,0.0,0.0,0.0,0.0,0.0,0.0,0.0,0.0,0.0,0.0,0.0,0.0,0.0,0.0,0.0,0.0,0.0,0.0,0.0,0.0,0.0,0.0,0.0,0.0,0.0,0.0,0.0,0.0,0.0,0.0,0.0,0.0,0.0,0.0,0.0,0.0,-5.2791,0.0,0.0,0.0,-5.346,0.0,0.0,0.0,0.0,0.0,0.0,0.0,0.0,0.0,0.0,0.0,0.0,0.0,0.0,0.0,0.0,0.0,0.0,0.0,0.0,0.0,0.0,0.0,0.0,0.0,0.0,0.0,0.0,0.0,0.0,0.0,0.0,0.0,0.0,0.0,0.0,0.0,0.0,0.0,0.0,0.0,0.0,0.0,0.0,0.0,0.0,0.0,0.0,0.0,0.0,0.0,0.0,0.0,0.0,0.0,0.0,0.0,0.0,0.0,0.0,0.0,0.0,0.0,0.0,0.0,0.0,0.0,0.0,0.0,0.0,0.0,0.0,0.0,0.0,0.0,0.0,0.0,0.0,0.0,0.0,0.0,0.0,0.0,0.0,0.0,0.0,0.0,0.0,0.0,0.0,0.0,0.0,0.0,0.0,0.0,0.0,0.0,0.0,0.0,0.0,0.0,0.0,0.0,0.0,0.0,0.0,0.0,0.0,0.0,0.0,-5.3423,-5.3794,-5.3794,-5.3794,-5.3794,0.0,0.0,0.0,0.0,0.0,0.0,0.0,0.0,0.0,0.0,0.0,0.0,0.0,0.0,0.0,0.0,0.0,0.0,0.0,0.0,0.0,0.0,0.0,0.0,0.0,0.0,0.0,0.0,0.0,0.0,0.0,0.0,0.0,0.0,0.0,0.0,0.0,0.0,0.0,0.0,0.0,0.0,0.0,0.0,0.0,0.0,0.0,0.0,0.0,0.0,0.0,0.0,0.0,0.0,0.0,0.0,0.0,0.0,0.0,0.0,0.0,0.0,0.0,0.0,0.0,0.0,0.0,0.0,0.0,0.0,0.0,0.0,0.0,0.0,0.0,0.0,0.0,0.0,0.0,0.0,0.0,0.0,0.0,0.0,0.0,0.0,0.0,0.0,0.0,0.0,0.0,0.0,0.0,0.0,0.0,0.0,0.0,0.0,0.0,0.0,0.0,0.0,0.0,0.0,0.0,0.0,0.0,0.0,0.0,0.0,0.0,0.0,-5.3794,-5.3794,-5.3794,0.0,0.0,0.0,0.0,0.0,0.0,0.0,0.0,0.0,0.0,0.0,0.0,0.0,0.0,0.0,0.0,0.0,0.0,0.0,0.0,0.0,0.0,0.0,0.0,0.0,0.0,0.0,0.0,0.0,0.0,0.0,0.0,0.0,0.0,0.0,0.0,0.0,0.0,0.0,0.0,0.0,0.0,0.0,0.0,0.0,0.0,0.0,0.0,0.0,0.0,0.0,0.0,0.0,0.0,0.0,0.0,0.0,0.0,0.0,0.0,0.0,0.0,0.0,0.0,0.0,0.0,0.0,0.0,0.0,0.0,0.0,0.0,0.0,0.0,0.0,0.0,0.0,0.0,0.0,0.0,0.0,0.0,0.0,0.0,0.0,0.0,0.0,0.0,0.0,0.0,0.0,0.0,0.0,0.0,0.0,0.0,0.0,0.0,0.0,0.0,0.0,0.0,0.0,0.0,0.0,0.0,0.0,0.0,0.0,0.0,-5.3794,-5.3794,-5.3794,0.0,-5.3794,0.0,0.0,0.0,0.0,0.0,0.0,0.0,0.0,0.0,0.0,0.0,0.0,0.0,0.0,0.0,0.0,0.0,0.0,0.0,0.0,0.0,0.0,0.0,0.0,0.0,0.0,0.0,0.0,0.0,0.0,0.0,0.0,0.0,0.0,0.0,0.0,0.0,0.0,0.0,0.0,0.0,0.0,0.0,0.0,0.0,0.0,0.0,0.0,0.0,0.0,0.0,0.0,0.0,0.0,0.0,0.0,0.0,0.0,0.0,0.0,0.0,0.0,0.0,0.0,0.0,0.0,0.0,0.0,0.0,0.0,0.0,0.0,0.0,0.0,0.0,0.0,0.0,0.0,0.0,0.0,0.0,0.0,0.0,0.0,0.0,0.0,0.0,0.0,0.0,0.0,0.0,0.0,0.0,0.0,0.0,0.0,0.0,0.0,0.0,0.0,0.0,0.0,0.0,0.0,0.0,0.0,0.0,0.0,0.0,0.0,-5.3999,-5.3794,-5.3794,-5.3794,0.0,0.0,0.0,0.0,0.0,0.0,0.0,0.0,0.0,0.0,0.0,0.0,0.0,0.0,0.0,0.0,0.0,0.0,0.0,0.0,0.0,0.0,0.0,0.0,0.0,0.0,0.0,0.0,0.0,0.0,0.0,0.0,0.0,0.0,0.0,0.0,0.0,0.0,0.0,0.0,0.0,0.0,0.0,0.0,0.0,0.0,0.0,0.0,0.0,0.0,0.0,0.0,0.0,0.0,0.0,0.0,0.0,0.0,0.0,0.0,0.0,0.0,0.0,0.0,0.0,0.0,0.0,0.0,0.0,0.0,0.0,0.0,0.0,0.0,0.0,0.0,0.0,0.0,0.0,0.0,0.0,0.0,0.0,0.0,0.0,0.0,0.0,0.0,0.0,0.0,0.0,0.0,0.0,0.0,0.0,0.0,0.0,0.0,0.0,0.0,0.0,0.0,0.0,0.0,0.0,0.0,0.0,0.0,0.0,0.0,-5.4231,-5.4035,-5.3813,-5.3794,-5.3794,-5.3794,0.0,0.0,0.0,0.0,0.0,0.0,0.0,0.0,0.0,0.0,0.0,0.0,0.0,0.0,0.0,0.0,0.0,0.0,0.0,0.0,0.0,0.0,0.0,0.0,0.0,0.0,0.0,0.0,0.0,0.0,0.0,0.0,0.0,0.0,0.0,0.0,0.0,0.0,0.0,0.0,0.0,0.0,0.0,0.0,0.0,0.0,0.0,0.0,0.0,0.0,0.0,0.0,0.0,0.0,0.0,0.0,0.0,0.0,0.0,0.0,0.0,0.0,0.0,0.0,0.0,0.0,0.0,0.0,0.0,0.0,0.0,0.0,0.0,0.0,0.0,0.0,0.0,0.0,0.0,0.0,0.0,0.0,0.0,0.0,0.0,0.0,0.0,0.0,0.0,0.0,0.0,0.0,0.0,0.0,0.0,0.0,0.0,0.0,0.0,0.0,0.0,0.0,0.0,0.0,0.0,0.0,0.0,0.0,-5.4313,-5.3999,-5.3813,-5.3794,-5.3794,-5.3794,0.0,0.0,0.0,0.0,0.0,0.0,0.0,0.0,0.0,0.0,0.0,0.0,0.0,0.0,0.0,0.0,0.0,0.0,0.0,0.0,0.0,0.0,0.0,0.0,0.0,0.0,0.0,0.0,0.0,0.0,0.0,0.0,0.0,0.0,0.0,0.0,0.0,0.0,0.0,0.0,0.0,0.0,0.0,0.0,0.0,0.0,0.0,0.0,0.0,0.0,0.0,0.0,0.0,0.0,0.0,0.0,0.0,0.0,0.0,0.0,0.0,0.0,0.0,0.0,0.0,0.0,0.0,0.0,0.0,0.0,0.0,0.0,0.0,0.0,0.0,0.0,0.0,0.0,0.0,0.0,0.0,0.0,0.0,0.0,0.0,0.0,0.0,0.0,0.0,0.0,0.0,0.0,0.0,0.0,0.0,0.0,0.0,0.0,0.0,0.0,0.0,0.0,0.0,0.0,0.0,0.0,0.0,0.0,0.0,-5.4952,-5.4623,-5.421,-5.3832,-5.3999,-5.4017,0.0,0.0,0.0,0.0,0.0,0.0,0.0,0.0,0.0,0.0,0.0,0.0,0.0,0.0,0.0,0.0,0.0,0.0,0.0,0.0,0.0,0.0,0.0,0.0,0.0,0.0,0.0,0.0,0.0,0.0,0.0,0.0,0.0,0.0,0.0,0.0,0.0,0.0,0.0,0.0,0.0,0.0,0.0,0.0,0.0,0.0,0.0,0.0,0.0,0.0,0.0,0.0,0.0,0.0,0.0,0.0,0.0,0.0,0.0,0.0,0.0,0.0,0.0,0.0,0.0,0.0,0.0,0.0,0.0,0.0,0.0,0.0,0.0,0.0,0.0,0.0,0.0,0.0,0.0,0.0,0.0,0.0,0.0,0.0,0.0,0.0,0.0,0.0,0.0,0.0,0.0,0.0,0.0,0.0,0.0,0.0,0.0,0.0,0.0,0.0,0.0,0.0,0.0,0.0,0.0,0.0,0.0,0.0,0.0,-5.4981,0.0,-5.4364,-5.3832,-5.3999,-5.4017,0.0,0.0,0.0,0.0,0.0,0.0,0.0,0.0,0.0,0.0,0.0,0.0,0.0,0.0,0.0,0.0,0.0,0.0,0.0,0.0,0.0,0.0,0.0,0.0,0.0,0.0,0.0,0.0,0.0,0.0,0.0,0.0,0.0,0.0,0.0,0.0,0.0,0.0,0.0,0.0,0.0,0.0,0.0,0.0,0.0,0.0,0.0,0.0,0.0,0.0,0.0,0.0,0.0,0.0,0.0,0.0,0.0,0.0,0.0,0.0,0.0,0.0,0.0,0.0,0.0,0.0,0.0,0.0,0.0,0.0,0.0,0.0,0.0,0.0,0.0,0.0,0.0,0.0,0.0,0.0,0.0,0.0,0.0,0.0,0.0,0.0,0.0,0.0,0.0,0.0,0.0,0.0,0.0,0.0,0.0,0.0,0.0,0.0,0.0,0.0,0.0,0.0,0.0,0.0,0.0,0.0,0.0,0.0,-5.5047,-5.4439,-5.4384,-5.4248,-5.3869,-5.3851,-5.3832,0.0,0.0,0.0,0.0,0.0,0.0,0.0,0.0,0.0,0.0,0.0,0.0,0.0,0.0,0.0,0.0,0.0,0.0,0.0,0.0,0.0,0.0,0.0,0.0,0.0,0.0,0.0,0.0,0.0,0.0,0.0,0.0,0.0,0.0,0.0,0.0,0.0,0.0,0.0,0.0,0.0,0.0,0.0,0.0,0.0,0.0,0.0,0.0,0.0,0.0,0.0,0.0,0.0,0.0,0.0,0.0,0.0,0.0,0.0,0.0,0.0,0.0,0.0,0.0,0.0,0.0,0.0,0.0,0.0,0.0,0.0,0.0,0.0,0.0,0.0,0.0,0.0,0.0,0.0,0.0,0.0,0.0,0.0,0.0,0.0,0.0,0.0,0.0,0.0,0.0,0.0,0.0,0.0,0.0,0.0,0.0,0.0,0.0,0.0,0.0,0.0,0.0,0.0,0.0,0.0,0.0,0.0,0.0,0.0,-5.6735,-5.5758,-5.5279,-5.5298,-5.4759,-5.438,0.0,0.0,0.0,0.0,0.0,0.0,0.0,0.0,0.0,0.0,0.0,0.0,0.0,0.0,0.0,0.0,0.0,0.0,0.0,0.0,0.0,0.0,0.0,0.0,0.0,0.0,0.0,0.0,0.0,0.0,0.0,0.0,0.0,0.0,0.0,0.0,0.0,0.0,0.0,0.0,0.0,0.0,0.0,0.0,0.0,0.0,0.0,0.0,0.0,0.0,0.0,0.0,0.0,0.0,0.0,0.0,0.0,0.0,0.0,0.0,0.0,0.0,0.0,0.0,0.0,0.0,0.0,0.0,0.0,0.0,0.0,0.0,0.0,0.0,0.0,0.0,0.0,0.0,0.0,0.0,0.0,0.0,0.0,0.0,0.0,0.0,0.0,0.0,0.0,0.0,0.0,0.0,0.0,0.0,0.0,0.0,0.0,0.0,0.0,0.0,0.0,0.0,0.0,0.0,0.0,0.0,0.0,0.0,0.0,-5.9332,-5.781,-5.6792,-5.6505,-5.6176,-5.547,-5.4334,0.0,0.0,0.0,0.0,0.0,0.0,0.0,0.0,0.0,0.0,0.0,0.0,0.0,0.0,0.0,0.0,0.0,0.0,0.0,0.0,0.0,0.0,0.0,0.0,0.0,0.0,0.0,0.0,0.0,0.0,0.0,0.0,0.0,0.0,0.0,0.0,0.0,0.0,0.0,0.0,0.0,0.0,0.0,0.0,0.0,0.0,0.0,0.0,0.0,0.0,0.0,0.0,0.0,0.0,0.0,0.0,0.0,0.0,0.0,0.0,0.0,0.0,0.0,0.0,0.0,0.0,0.0,0.0,0.0,0.0,0.0,0.0,0.0,0.0,0.0,0.0,0.0,0.0,0.0,0.0,0.0,0.0,0.0,0.0,0.0,0.0,0.0,0.0,0.0,0.0,0.0,0.0,0.0,0.0,0.0,0.0,0.0,0.0,0.0,0.0,0.0,0.0,0.0,0.0,0.0,0.0,0.0,0.0,-6.2139,-6.0367,-5.8863,-5.7658,-5.793,-5.703,0.0,0.0,0.0,0.0,0.0,0.0,0.0,0.0,0.0,0.0,0.0,0.0,0.0,0.0,0.0,0.0,0.0,0.0,0.0,0.0,0.0,0.0,0.0,0.0,0.0,0.0,0.0,0.0,0.0,0.0,0.0,0.0,0.0,0.0,0.0,0.0,0.0,0.0,0.0,0.0,0.0,0.0,0.0,0.0,0.0,0.0,0.0,0.0,0.0,0.0,0.0,0.0,0.0,0.0,0.0,0.0,0.0,0.0,0.0,0.0,0.0,0.0,0.0,0.0,0.0,0.0,0.0,0.0,0.0,0.0,0.0,0.0,0.0,0.0,0.0,0.0,0.0,0.0,0.0,0.0,0.0,0.0,0.0,0.0,0.0,0.0,0.0,0.0,0.0,0.0,0.0,0.0,0.0,0.0,0.0,0.0,0.0,0.0,0.0,0.0,0.0,0.0,0.0,0.0,0.0,0.0,0.0,0.0,0.0,-6.2935,-6.3104,-6.2427,-6.0866,-5.9526,-5.8372,0.0,0.0,0.0,0.0,0.0,0.0,0.0,0.0,0.0,0.0,0.0,0.0,0.0,0.0,0.0,0.0,0.0,0.0,0.0,0.0,0.0,0.0,0.0,0.0,0.0,0.0,0.0,0.0,0.0,0.0,0.0,0.0,0.0,0.0,0.0,0.0,0.0,0.0,0.0,0.0,0.0,0.0,0.0,0.0,0.0,0.0,0.0,0.0,0.0,0.0,0.0,0.0,0.0,0.0,0.0,0.0,0.0,0.0,0.0,0.0,0.0,0.0,0.0,0.0,0.0,0.0,0.0,0.0,0.0,0.0,0.0,0.0,0.0,0.0,0.0,0.0,0.0,0.0,0.0,0.0,0.0,0.0,0.0,0.0,0.0,0.0,0.0,0.0,0.0,0.0,0.0,0.0,0.0,0.0,0.0,0.0,0.0,0.0,0.0,0.0,0.0,0.0,0.0,0.0,0.0,0.0,0.0,0.0,-6.3284,-6.3392,-6.4574,-6.4715,-6.3753,-6.1747,-5.9951,0.0,0.0,0.0,0.0,0.0,0.0,0.0,0.0,0.0,0.0,0.0,0.0,0.0,0.0,0.0,0.0,0.0,0.0,0.0,0.0,0.0,0.0,0.0,0.0,0.0,0.0,0.0,0.0,0.0,0.0,0.0,0.0,0.0,0.0,0.0,0.0,0.0,0.0,0.0,0.0,0.0,0.0,0.0,0.0,0.0,0.0,0.0,0.0,0.0,0.0,0.0,0.0,0.0,0.0,0.0,0.0,0.0,0.0,0.0,0.0,0.0,0.0,0.0,0.0,0.0,0.0,0.0,0.0,0.0,0.0,0.0,0.0,0.0,0.0,0.0,0.0,0.0,0.0,0.0,0.0,0.0,0.0,0.0,0.0,0.0,0.0,0.0,0.0,0.0,0.0,0.0,0.0,0.0,0.0,0.0,0.0,0.0,0.0,0.0,0.0,0.0,0.0,0.0,0.0,0.0,0.0,0.0,0.0,-6.4597,-6.393,-6.5465,-6.6239,-6.6189,-6.4022,-6.1575,0.0,0.0,0.0,0.0,0.0,0.0,0.0,0.0,0.0,0.0,0.0,0.0,0.0,0.0,0.0,0.0,0.0,0.0,0.0,0.0,0.0,0.0,0.0,0.0,0.0,0.0,0.0,0.0,0.0,0.0,0.0,0.0,0.0,0.0,0.0,0.0,0.0,0.0,0.0,0.0,0.0,0.0,0.0,0.0,0.0,0.0,0.0,0.0,0.0,0.0,0.0,0.0,0.0,0.0,0.0,0.0,0.0,0.0,0.0,0.0,0.0,0.0,0.0,0.0,0.0,0.0,0.0,0.0,0.0,0.0,0.0,0.0,0.0,0.0,0.0,0.0,0.0,0.0,0.0,0.0,0.0,0.0,0.0,0.0,0.0,0.0,0.0,0.0,0.0,0.0,0.0,0.0,0.0,0.0,0.0,0.0,0.0,0.0,0.0,0.0,0.0,0.0,0.0,0.0,0.0,0.0,0.0,0.0,-6.6058,-6.6526,-6.7518,-6.8022,-6.7935,-6.4597,-6.2376,0.0,0.0,0.0,0.0,0.0,0.0,0.0,0.0,0.0,0.0,0.0,0.0,0.0,0.0,0.0,0.0,0.0,0.0,0.0,0.0,0.0,0.0,0.0,0.0,0.0,0.0,0.0,0.0,0.0,0.0,0.0,0.0,0.0,0.0,0.0,0.0,0.0,0.0,0.0,0.0,0.0,0.0,0.0,0.0,0.0,0.0,0.0,0.0,-5.4648,0.0,0.0,0.0,0.0,0.0,0.0,0.0,0.0,0.0,0.0,0.0,0.0,0.0,0.0,0.0,0.0,0.0,0.0,0.0,0.0,0.0,0.0,0.0,0.0,0.0,0.0,0.0,0.0,0.0,0.0,0.0,0.0,0.0,0.0,0.0,0.0,0.0,0.0,0.0,0.0,0.0,0.0,0.0,0.0,0.0,0.0,0.0,0.0,0.0,0.0,0.0,0.0,0.0,0.0,0.0,0.0,0.0,0.0,0.0,-6.6935,-6.7415,-6.8204,-6.8633,-6.8521,-6.6022,-6.4153,0.0,0.0,0.0,0.0,0.0,0.0,0.0,0.0,0.0,0.0,0.0,0.0,0.0,0.0,0.0,0.0,0.0,0.0,0.0,0.0,0.0,0.0,0.0,0.0,0.0,0.0,0.0,0.0,0.0,0.0,0.0,0.0,0.0,0.0,0.0,0.0,0.0,0.0,0.0,0.0,0.0,0.0,0.0,0.0,0.0,0.0,0.0,0.0,0.0,0.0,0.0,0.0,0.0,0.0,0.0,0.0,0.0,0.0,0.0,0.0,0.0,0.0,0.0,0.0,0.0,0.0,0.0,0.0,0.0,0.0,0.0,0.0,0.0,0.0,0.0,0.0,0.0,0.0,0.0,0.0,0.0,0.0,0.0,0.0,0.0,0.0,0.0,0.0,0.0,0.0,0.0,0.0,0.0,0.0,0.0,0.0,0.0,0.0,0.0,0.0,0.0,0.0,0.0,0.0,0.0,0.0,0.0,-6.6998,-6.7849,-6.8081,-6.8734,-6.9099,-6.9049,-6.7744,-6.626,-6.4628,0.0,0.0,0.0,0.0,0.0,0.0,0.0,0.0,0.0,0.0,0.0,0.0,0.0,0.0,0.0,0.0,0.0,0.0,0.0,0.0,0.0,0.0,0.0,0.0,0.0,0.0,0.0,0.0,0.0,0.0,0.0,0.0,0.0,0.0,0.0,0.0,0.0,0.0,-5.3961,-5.3886,0.0,0.0,0.0,0.0,0.0,0.0,0.0,0.0,-5.4909,0.0,0.0,0.0,0.0,0.0,0.0,0.0,0.0,0.0,0.0,0.0,0.0,0.0,0.0,0.0,0.0,0.0,0.0,0.0,0.0,0.0,0.0,0.0,0.0,0.0,0.0,0.0,0.0,0.0,0.0,0.0,0.0,0.0,0.0,0.0,0.0,0.0,0.0,0.0,0.0,0.0,0.0,0.0,0.0,0.0,0.0,0.0,0.0,0.0,0.0,0.0,0.0,0.0,0.0,0.0,0.0,-6.8158,-6.8468,-6.9241,-7.0634,-7.0816,-7.0833,-7.0749,-6.9224,-6.7892,-6.6728,0.0,0.0,0.0,0.0,0.0,0.0,0.0,0.0,0.0,0.0,0.0,0.0,0.0,0.0,0.0,0.0,0.0,0.0,0.0,0.0,0.0,0.0,0.0,0.0,0.0,0.0,0.0,0.0,0.0,0.0,0.0,0.0,0.0,0.0,0.0,0.0,0.0,0.0,0.0,-5.424,-5.4351,0.0,0.0,0.0,0.0,0.0,0.0,0.0,0.0,-5.7175,0.0,0.0,0.0,0.0,0.0,0.0,0.0,0.0,0.0,0.0,0.0,0.0,0.0,0.0,0.0,0.0,0.0,0.0,0.0,0.0,0.0,0.0,0.0,0.0,0.0,0.0,0.0,0.0,0.0,0.0,0.0,0.0,0.0,0.0,0.0,0.0,0.0,0.0,0.0,0.0,0.0,0.0,0.0,0.0,0.0,0.0,0.0,0.0,0.0,0.0,0.0,0.0,0.0,0.0,0.0,-6.8738,-6.9203,-7.0015,-7.1253,-7.1291,-7.128,-7.122,-6.9988,-6.8922,0.0,0.0,0.0,0.0,0.0,0.0,0.0,0.0,0.0,0.0,0.0,0.0,0.0,0.0,0.0,0.0,0.0,0.0,0.0,0.0,0.0,0.0,0.0,0.0,0.0,0.0,0.0,0.0,0.0,0.0,0.0,0.0,0.0,0.0,0.0,0.0,0.0,0.0,0.0,0.0,-5.5949,-5.6172,-5.736,0.0,0.0,0.0,0.0,0.0,0.0,-5.7769,-5.7621,0.0,0.0,0.0,0.0,0.0,0.0,0.0,0.0,0.0,0.0,0.0,0.0,0.0,0.0,0.0,0.0,0.0,0.0,0.0,0.0,0.0,0.0,0.0,0.0,0.0,0.0,0.0,0.0,0.0,0.0,0.0,0.0,0.0,0.0,0.0,0.0,0.0,0.0,0.0,0.0,0.0,0.0,0.0,0.0,0.0,0.0,0.0,0.0,0.0,0.0,0.0,0.0,0.0,0.0,0.0,-6.928,-7.0092,-7.0943,-7.1794,-7.1833,-7.1833,-7.1794,-7.059,-6.9651,0.0,0.0,0.0,0.0,0.0,0.0,0.0,0.0,0.0,0.0,0.0,0.0,0.0,0.0,0.0,0.0,0.0,0.0,0.0,0.0,0.0,0.0,0.0,0.0,0.0,0.0,0.0,0.0,0.0,0.0,0.0,0.0,0.0,0.0,0.0,0.0,0.0,0.0,0.0,0.0,0.0,-5.7843,-5.8809,-5.8252,0.0,0.0,0.0,0.0,-5.8252,-5.8364,0.0,0.0,0.0,0.0,0.0,0.0,0.0,0.0,0.0,0.0,0.0,0.0,0.0,0.0,0.0,0.0,0.0,0.0,0.0,0.0,0.0,0.0,0.0,0.0,0.0,0.0,0.0,0.0,0.0,0.0,0.0,0.0,0.0,0.0,0.0,0.0,0.0,0.0,0.0,0.0,0.0,0.0,0.0,0.0,0.0,0.0,0.0,0.0,0.0,0.0,0.0,0.0,0.0,0.0,0.0,0.0,-7.0982,-7.1872,-7.2723,-7.3535,-7.3612,-7.3612,-7.3574,-7.1253,-6.9976,0.0,0.0,0.0,0.0,0.0,0.0,0.0,0.0,0.0,0.0,0.0,0.0,0.0,0.0,0.0,0.0,0.0,0.0,0.0,0.0,0.0,0.0,0.0,0.0,0.0,0.0,0.0,0.0,0.0,0.0,0.0,0.0,0.0,0.0,0.0,0.0,0.0,0.0,0.0,0.0,0.0,-5.8066,-5.9531,-5.9069,-5.8809,0.0,0.0,-6.0778,-6.0778,-6.1373,0.0,0.0,0.0,0.0,0.0,0.0,0.0,0.0,0.0,0.0,0.0,0.0,0.0,0.0,0.0,0.0,0.0,0.0,0.0,0.0,0.0,0.0,0.0,0.0,0.0,0.0,0.0,0.0,0.0,0.0,0.0,0.0,0.0,0.0,0.0,0.0,0.0,0.0,0.0,0.0,0.0,0.0,0.0,0.0,0.0,0.0,0.0,0.0,0.0,0.0,0.0,0.0,0.0,0.0,0.0,-7.0556,-7.1291,-7.2645,-7.3535,-7.3883,-7.3883,-7.3883,-7.3883,-7.1833,-7.075,0.0,0.0,0.0,0.0,0.0,0.0,0.0,0.0,0.0,0.0,0.0,0.0,0.0,0.0,0.0,0.0,0.0,0.0,0.0,0.0,0.0,0.0,0.0,0.0,0.0,0.0,0.0,0.0,0.0,0.0,0.0,0.0,0.0,0.0,0.0,0.0,0.0,0.0,0.0,0.0,0.0,0.0,-6.1856,-6.1336,0.0,0.0,0.0,-6.2413,-6.1967,0.0,0.0,0.0,0.0,0.0,0.0,0.0,0.0,0.0,0.0,0.0,0.0,0.0,0.0,0.0,0.0,0.0,0.0,0.0,0.0,0.0,0.0,0.0,0.0,0.0,0.0,0.0,0.0,0.0,0.0,0.0,0.0,0.0,0.0,0.0,0.0,0.0,0.0,0.0,0.0,0.0,0.0,0.0,0.0,0.0,0.0,0.0,0.0,0.0,0.0,0.0,0.0,0.0,0.0,0.0,0.0,0.0,-7.1988,-7.3651,-7.4541,-7.4502,-7.4541,-7.4541,-7.4502,-7.2877,0.0,0.0,0.0,0.0,0.0,0.0,0.0,0.0,0.0,0.0,0.0,0.0,0.0,0.0,0.0,0.0,0.0,0.0,0.0,0.0,0.0,0.0,0.0,0.0,0.0,0.0,0.0,-5.4946,0.0,0.0,0.0,0.0,0.0,0.0,0.0,0.0,0.0,0.0,0.0,0.0,0.0,0.0,-6.2933,-6.3505,-6.3082,-6.297,0.0,0.0,-6.3453,-6.3059,-6.4196,-6.4568,0.0,0.0,0.0,0.0,0.0,0.0,0.0,0.0,0.0,0.0,0.0,0.0,0.0,0.0,0.0,0.0,0.0,0.0,0.0,0.0,0.0,0.0,0.0,0.0,0.0,0.0,0.0,0.0,0.0,0.0,0.0,0.0,0.0,0.0,0.0,0.0,0.0,0.0,0.0,0.0,0.0,0.0,0.0,0.0,0.0,0.0,0.0,0.0,0.0,0.0,0.0,0.0,0.0,0.0,-7.2916,-7.3767,-7.5392,-7.6243,-7.6243,-7.6243,-7.6243,-7.6204,-7.4618,-7.3342,0.0,0.0,0.0,0.0,0.0,0.0,0.0,0.0,0.0,0.0,0.0,0.0,0.0,0.0,0.0,0.0,0.0,0.0,0.0,0.0,0.0,0.0,0.0,0.0,0.0,0.0,0.0,0.0,0.0,0.0,0.0,0.0,0.0,0.0,0.0,0.0,0.0,0.0,0.0,0.0,0.0,-6.3565,-6.3602,-6.3565,-6.3825,0.0,-6.4085,-6.3839,-6.4568,-6.5422,-6.5459,-6.3788,0.0,0.0,0.0,0.0,0.0,0.0,0.0,0.0,0.0,0.0,0.0,0.0,0.0,0.0,0.0,0.0,0.0,0.0,0.0,0.0,0.0,0.0,0.0,0.0,0.0,0.0,0.0,0.0,0.0,0.0,0.0,0.0,0.0,0.0,0.0,0.0,0.0,0.0,0.0,0.0,0.0,0.0,0.0,0.0,0.0,0.0,0.0,0.0,0.0,0.0,0.0,0.0,0.0,-7.4579,-7.543,-7.7132,-7.7983,-7.7983,-7.7983,-7.7751,-7.721,-7.6049,-7.4811,0.0,0.0,0.0,0.0,0.0,0.0,0.0,0.0,0.0,0.0,0.0,0.0,0.0,0.0,0.0,0.0,0.0,0.0,0.0,0.0,0.0,0.0,0.0,0.0,0.0,0.0,0.0,0.0,-5.8809,-5.9181,-5.9738,0.0,0.0,0.0,0.0,0.0,0.0,0.0,0.0,0.0,0.0,-6.4716,-6.5756,-6.5459,0.0,0.0,-6.6091,-6.5831,-6.5645,-6.6314,-6.6277,-6.4582,-6.4345,0.0,0.0,0.0,0.0,0.0,0.0,0.0,0.0,0.0,0.0,0.0,0.0,0.0,0.0,0.0,0.0,0.0,0.0,0.0,0.0,0.0,0.0,0.0,0.0,0.0,0.0,0.0,0.0,0.0,0.0,0.0,0.0,0.0,0.0,0.0,0.0,0.0,0.0,0.0,0.0,0.0,0.0,0.0,0.0,0.0,0.0,0.0,0.0,0.0,0.0,0.0,0.0,-7.5779,-7.6397,-7.8099,-7.9028,-7.9028,-7.9028,-7.8718,-7.8099,-7.7481,-7.6397,0.0,0.0,0.0,0.0,0.0,0.0,0.0,0.0,0.0,0.0,0.0,0.0,0.0,0.0,0.0,0.0,0.0,0.0,0.0,0.0,0.0,0.0,0.0,0.0,0.0,0.0,0.0,0.0,-6.0518,-6.089,-6.1484,0.0,0.0,0.0,0.0,0.0,0.0,0.0,0.0,0.0,0.0,-6.5882,-6.6834,-6.6685,-6.6624,-6.7243,-6.7293,-6.7205,-6.6871,-6.7094,-6.6908,-6.5733,0.0,0.0,0.0,0.0,0.0,0.0,0.0,0.0,0.0,0.0,0.0,0.0,0.0,0.0,0.0,0.0,0.0,0.0,0.0,0.0,0.0,0.0,0.0,0.0,0.0,0.0,0.0,-6.7867,0.0,0.0,-6.8513,0.0,0.0,0.0,0.0,0.0,0.0,0.0,0.0,0.0,0.0,0.0,0.0,0.0,0.0,0.0,0.0,0.0,0.0,0.0,0.0,0.0,0.0,-7.6397,-7.6436,-7.8177,-7.9067,-7.9067,-7.9028,-7.9028,-7.8989,-7.895,-7.8138,-7.6397,0.0,0.0,0.0,0.0,0.0,0.0,0.0,0.0,0.0,0.0,0.0,0.0,0.0,0.0,0.0,0.0,0.0,0.0,0.0,0.0,0.0,0.0,0.0,0.0,0.0,0.0,-6.1187,-6.1893,-6.2339,0.0,0.0,0.0,0.0,0.0,0.0,0.0,0.0,0.0,-6.4679,-6.6216,-6.6982,-6.6277,-6.6797,-6.7317,-6.733,-6.733,-6.7577,-6.832,-6.78,-6.7256,0.0,0.0,0.0,0.0,0.0,0.0,0.0,0.0,0.0,0.0,0.0,0.0,0.0,0.0,0.0,0.0,0.0,0.0,0.0,0.0,0.0,0.0,0.0,0.0,0.0,0.0,0.0,-7.1602,-7.1617,0.0,0.0,0.0,0.0,0.0,0.0,0.0,0.0,0.0,0.0,0.0,-7.3899,-7.4168,0.0,0.0,0.0,0.0,0.0,0.0,0.0,0.0,0.0,0.0,0.0,0.0,-7.7558,-7.8177,-7.9801,-8.0653,-8.0653,-8.0653,-8.0382,-7.9801,-7.9801,-7.9028,-7.7326,0.0,0.0,0.0,0.0,0.0,0.0,0.0,0.0,0.0,0.0,0.0,0.0,0.0,0.0,0.0,0.0,0.0,0.0,0.0,0.0,0.0,0.0,0.0,0.0,0.0,-6.2004,0.0,0.0,0.0,0.0,0.0,0.0,0.0,0.0,0.0,0.0,0.0,-6.4716,-6.5571,-6.6165,-6.6611,-6.6871,-6.7553,-6.8258,0.0,0.0,0.0,0.0,0.0,0.0,0.0,0.0,0.0,0.0,0.0,0.0,0.0,0.0,-6.427,-6.3713,-6.3579,-6.3602,-6.3602,0.0,0.0,0.0,0.0,0.0,0.0,0.0,0.0,0.0,0.0,0.0,0.0,0.0,0.0,-7.4207,-7.3962,-7.4245,0.0,0.0,0.0,0.0,0.0,0.0,0.0,0.0,-7.5745,-7.6169,-7.6438,-7.6438,-7.6438,0.0,-7.613,-7.5159,0.0,0.0,0.0,0.0,0.0,0.0,0.0,0.0,-7.7674,-7.8564,-8.0188,-8.1182,-8.1491,-8.1491,-8.122,-8.0691,-8.0343,-7.9685,-7.8602,-7.6939,-7.5624,0.0,0.0,0.0,0.0,0.0,0.0,0.0,0.0,0.0,0.0,0.0,0.0,0.0,0.0,0.0,0.0,0.0,0.0,0.0,0.0,0.0,0.0,0.0,-6.3379,0.0,0.0,0.0,0.0,0.0,0.0,0.0,0.0,0.0,-6.525,-6.5496,-6.5979,-6.6834,-6.7205,-6.7465,-6.7688,0.0,0.0,0.0,0.0,0.0,0.0,0.0,-6.8468,-6.8246,-6.8208,-6.8283,-6.8506,-6.8073,-6.7725,-6.7725,0.0,0.0,-6.5534,-6.5274,-6.525,-6.525,-6.4419,-6.3862,-6.4382,-6.4085,-6.3862,0.0,0.0,0.0,0.0,0.0,0.0,0.0,0.0,-7.563,-7.5476,0.0,-7.5592,0.0,0.0,0.0,0.0,-7.4822,-7.5592,0.0,0.0,-7.763,-7.8054,-7.7361,-7.7323,-7.7323,-7.7323,-7.6553,-7.6169,-7.6169,-7.6279,0.0,0.0,0.0,0.0,0.0,0.0,-7.6939,-7.7906,-7.9569,-8.0769,-8.1581,-8.162,-8.1568,-8.1581,-8.0769,-8.0304,-8.0227,-7.868,-7.7365,-7.6475,-7.4928,0.0,0.0,0.0,0.0,0.0,0.0,0.0,0.0,0.0,0.0,0.0,0.0,0.0,0.0,0.0,0.0,0.0,0.0,0.0,0.0,-6.4517,0.0,0.0,0.0,0.0,0.0,0.0,0.0,0.0,0.0,0.0,-6.6327,-6.681,-6.7577,-6.837,0.0,0.0,0.0,0.0,-7.0672,-6.9992,-7.0487,-7.097,-7.1007,-7.097,-7.1255,-7.206,0.0,0.0,-7.1155,-6.9744,-6.8803,-6.8704,-6.9397,-6.91,-6.6871,-6.65,-6.6351,-6.6277,-6.6314,-6.6239,-6.6239,-6.6314,-6.6314,-7.5476,0.0,0.0,0.0,0.0,-7.5168,-7.5438,-7.563,-7.5899,-7.5861,-7.5668,-7.5861,0.0,0.0,0.0,0.0,0.0,0.0,-7.6322,-7.6938,-7.74,-7.7823,-7.813,-7.813,-7.8477,-7.9054,-7.8823,-7.9015,-7.9669,-8.0223,-7.8773,-7.5375,0.0,0.0,0.0,0.0,-7.9531,-8.0459,-8.2122,-8.3089,-8.3322,-8.336,-8.336,-8.336,-8.2509,-8.2045,-8.2045,-8.042,-7.9105,-7.8293,-7.721,0.0,0.0,0.0,0.0,0.0,0.0,0.0,0.0,0.0,0.0,0.0,0.0,0.0,0.0,0.0,0.0,0.0,0.0,0.0,-6.5049,-6.5971,-6.6272,0.0,0.0,0.0,0.0,0.0,0.0,0.0,0.0,0.0,-6.9373,-6.8184,-6.7614,0.0,0.0,-6.8964,-6.9298,-7.0772,-7.1923,-7.2295,-7.2555,0.0,-7.3447,-7.3038,-7.2778,-7.3027,-7.3547,-7.3818,-7.3595,-7.3149,-7.2852,-7.2815,-7.2555,-7.2072,-7.1441,-7.0289,-6.9373,-6.8853,-6.9113,-6.9298,-6.8816,-6.9076,-6.9509,-7.8515,-7.79,-7.6592,-7.6207,-7.6515,-7.6861,-7.7207,-7.7553,-7.7861,-7.7823,-7.7515,-7.7515,-7.713,-7.6515,-7.6515,0.0,0.0,0.0,-7.7977,-7.8823,-7.9131,-7.9554,-8.0015,-8.0362,-8.0785,-8.1285,-8.0939,-8.1054,-8.1554,-8.14,-7.9845,-7.6993,0.0,-7.7627,-7.7945,-7.9415,-8.0653,-8.1542,-8.2857,-8.3747,-8.4095,-8.4095,-8.4095,-8.4095,-8.3592,-8.3283,-8.3283,-8.1968,-8.0846,-8.0034,-7.8834,-7.7365,0.0,0.0,0.0,0.0,0.0,0.0,0.0,0.0,0.0,0.0,0.0,-6.7157,-6.6965,0.0,0.0,0.0,-6.743,-6.7115,-6.6996,-6.7158,0.0,0.0,0.0,0.0,0.0,0.0,0.0,-6.7763,-6.9063,-7.0437,-7.1701,-7.0623,-7.0029,-7.0809,-7.092,-7.1106,-7.1589,0.0,-7.3807,-7.4264,-7.4365,-7.4524,-7.497,-7.497,-7.497,-7.5267,-7.5416,-7.5564,-7.5564,-7.5331,-7.5081,-7.5007,-7.4673,-7.4338,-7.4338,-7.3521,-7.2332,-7.0995,-7.0809,-7.071,-7.0264,-7.0561,-7.0895,-8.117,-8.0823,-7.7707,-7.6899,-7.7669,-7.8415,-7.9131,-7.9977,-8.0746,-8.0631,-7.9939,-7.99,-7.9054,-7.7592,-7.7592,0.0,-7.99,-7.99,-8.0323,-8.1131,-8.1862,-8.217,-8.2131,-8.2901,-8.3285,-8.3247,-8.2477,-8.2131,-8.2093,-8.0746,-8.0008,-8.0136,-8.1056,-8.1013,-8.0137,-8.0137,-8.0653,-8.1491,-8.2355,-8.3206,-8.4095,-8.4095,-8.4134,-8.4211,-8.4134,-8.4134,-8.4173,-8.336,-8.2548,-8.1736,-8.0111,-7.8796,-7.7867,0.0,0.0,0.0,0.0,0.0,0.0,0.0,0.0,0.0,0.0,0.0,0.0,0.0,0.0,-6.9796,-6.9498,0.0,-6.9336,-6.8286,0.0,0.0,0.0,-6.8184,-6.9707,-6.9992,-7.0586,-7.2135,0.0,0.0,-7.351,-7.3621,-7.3919,-7.4784,-7.471,-7.4598,-7.4699,-7.5304,-7.5899,-7.5861,-7.5973,-7.5973,-7.6084,-7.6632,-7.7263,-7.783,-7.7709,-7.7189,-7.7115,-7.6567,-7.6047,-7.6047,-7.601,-7.5936,-7.5899,-7.5713,-7.5081,-7.2804,-7.1886,-7.1341,-7.1341,-7.1378,-7.1415,-8.167,-8.1054,-8.0208,-8.0015,-8.0208,-8.04,-8.0592,-8.0823,-8.1016,-8.0977,-8.0823,-8.0785,-8.0554,-8.0208,-8.0208,-8.04,-8.0785,-8.0785,-8.09,-8.1093,-8.1323,-8.1016,-8.0439,-8.0631,-8.0708,-8.0669,-8.0477,-8.0746,-8.1362,-8.1593,-8.1755,-8.1869,-8.2753,-8.1835,-7.925,-7.9842,-8.0614,-8.1491,-8.2355,-8.3206,-8.4057,-8.4095,-8.4405,-8.4985,-8.4405,-8.4366,-8.4985,-8.4211,-8.367,-8.3476,-8.1852,-8.0498,-7.9647,-7.721,0.0,0.0,0.0,0.0,0.0,0.0,0.0,0.0,0.0,-6.8846,-6.8586,0.0,-6.907,0.0,-6.9751,-7.0191,-7.042,-7.02,0.0,0.0,-6.9867,-7.0475,-7.1478,-7.2146,-7.2666,-7.3064,-7.3632,-7.4301,-7.5118,-7.523,-7.5814,-7.7125,-7.5787,-7.4784,-7.5416,-7.6233,-7.678,-7.6827,-7.7301,-7.7682,-7.7709,-7.783,-7.8118,-7.8239,-7.8128,-7.8016,-7.8016,-7.7868,-7.7682,-7.7682,-7.7682,-7.7486,-7.6902,-7.6233,-7.5453,-7.4365,-7.4338,-7.4413,-7.3855,-7.367,-7.367,-8.3747,-8.3324,-8.3324,-8.3324,-8.3208,-8.1747,-8.1093,-8.1093,-8.1093,-8.1093,-8.1093,-8.0708,-8.0516,-8.0554,-8.0516,-8.0746,-8.1131,-8.1477,-8.1631,-8.167,-8.2439,-8.2516,-8.2093,-8.2439,-8.2593,-8.2593,-8.2593,-8.2862,-8.3324,-8.3785,-8.401,-8.4042,-8.4235,-8.3215,-8.1098,-8.1633,-8.2161,-8.2664,-8.3476,-8.4327,-8.5178,-8.5217,-8.5256,-8.5256,-8.4521,-8.4327,-8.4753,-8.3592,-8.3128,-8.3438,-8.2238,-8.1104,-8.0215,-7.7717,-7.6044,0.0,0.0,0.0,0.0,0.0,0.0,0.0,0.0,0.0,0.0,0.0,-7.0854,-7.1336,-7.1799,-7.2169,-7.2449,-7.2192,-7.2011,-7.205,-7.2334,-7.2852,-7.3733,-7.4216,-7.445,-7.445,-7.5193,-7.5861,-7.6334,-7.6679,-7.7236,-7.8165,-7.7422,-7.679,-7.6902,-7.7347,-7.7635,-7.7672,-7.8313,-7.8982,-7.9279,-7.9354,-7.9354,-7.9354,-7.9354,-7.9354,-7.9354,-7.9056,-7.8833,-7.8824,-7.8536,-7.8192,-7.7682,-7.7236,-7.6753,-7.6456,-7.6567,-7.6159,-7.4476,-7.4104,-7.4067,-8.6209,-8.6094,-8.6094,-8.6055,-8.5747,-8.2824,-8.1631,-8.1747,-8.1747,-8.1747,-8.1708,-8.0939,-8.0631,-8.0592,-8.0592,-8.1016,-8.1785,-8.2477,-8.2785,-8.2862,-8.4362,-8.5016,-8.4939,-8.5632,-8.5901,-8.5786,-8.5786,-8.5786,-8.5786,-8.5786,-8.5786,-8.5747,-8.5151,-8.4451,-8.3772,-8.3989,-8.3979,-8.3786,-8.4559,-8.5333,-8.6107,-8.5991,-8.5643,-8.4985,-8.4289,-8.3979,-8.4057,-8.2548,-8.2006,-8.2703,-8.189,-8.1078,-8.0498,-7.8065,-7.6671,0.0,-7.4288,0.0,0.0,0.0,0.0,0.0,0.0,0.0,0.0,-7.2888,-7.3354,-7.4303,-7.4207,-7.4245,-7.4493,-7.3872,-7.3747,-7.4391,-7.455,-7.4896,-7.5676,-7.5899,-7.601,-7.6084,-7.6753,-7.7301,-7.7449,-7.8016,-7.8462,-7.8685,-7.8982,-7.8982,-7.8573,-7.8536,-7.8648,-7.8611,-7.9094,-7.9576,-7.9985,-8.0208,-8.0208,-8.0282,-8.0171,-8.0394,-8.0208,-7.9688,-7.9279,-7.9242,-7.8722,-7.8239,-7.8165,-7.809,-7.8016,-7.7719,-7.7645,-7.7003,-7.4996,-7.4253,-7.3881,-8.6748,-8.6094,-8.6094,-8.5709,-8.5055,-8.4439,-8.4555,-8.5132,-8.5132,-8.517,-8.517,-8.4978,-8.4901,-8.4901,-8.4901,-8.5016,-8.517,-8.5324,-8.5401,-8.5401,-8.5709,-8.5517,-8.4939,-8.5055,-8.4747,-8.4093,-8.4055,-8.4055,-8.4055,-8.4055,-8.4055,-8.4071,-8.4042,-8.3924,-8.3823,0.0,0.0,0.0,-8.2819,-8.336,-8.3476,-8.2819,-8.2741,-8.3244,-8.3128,0.0,-8.4018,-8.3089,-8.2625,-8.2741,-8.131,0.0,0.0,0.0,0.0,0.0,0.0,0.0,0.0,0.0,0.0,0.0,-7.2668,-7.3072,-7.4542,-7.4562,-7.4578,-7.4769,-7.4556,-7.4438,-7.4482,-7.4043,-7.3778,-7.3939,-7.4357,-7.4896,-7.5676,-7.6419,-7.7115,-7.7756,-7.8007,-7.8313,-7.8833,-7.9205,-7.9502,-7.9911,-7.9799,-7.9465,-7.9279,-7.9688,-8.0171,-8.0208,-7.9762,-7.9279,-7.8796,-7.8871,-7.9056,-7.8759,-7.8722,-7.8833,-7.8908,-7.8759,-7.8536,-7.8573,-7.8415,-7.8053,-7.7523,-7.7338,-7.7199,-7.6456,-7.6344,-7.6493,-7.7162,-7.6827,-7.6409,-8.7786,-8.7401,-8.7363,-8.7132,0.0,-8.6786,-8.7017,-8.7286,-8.6055,-8.5517,-8.5478,-8.5055,-8.4863,-8.4863,-8.4863,-8.5093,-8.5555,-8.5901,-8.6324,-8.6748,-8.6748,-8.6517,-8.6132,-8.567,-8.5286,-8.4824,-8.4824,-8.4824,-8.4824,-8.4824,-8.5055,-8.5478,-8.5568,-8.5861,-8.6262,-8.6447,-8.5487,-8.3399,-8.3824,-8.425,-8.4637,-8.425,-8.4018,-8.4018,-8.3631,0.0,0.0,0.0,0.0,0.0,0.0,0.0,0.0,-8.0409,0.0,-8.0405,-7.9531,-7.8961,-7.8798,-7.8623,-7.829,-7.7722,-7.7684,-7.6807,-7.4806,-7.4905,-7.5437,-7.6254,-7.6111,-7.6204,-7.6859,-7.6504,-7.6243,-7.6255,-7.6691,-7.7162,-7.7608,-7.8351,-7.8871,-7.8871,-7.8908,-7.8945,-7.8908,-7.8908,-7.9056,-7.9428,-7.9539,-7.9502,-7.9465,-7.9465,-7.9614,-8.0022,-7.9799,-7.9539,-7.9502,-7.9465,-7.9428,-7.9465,-7.9465,-7.9465,-7.9465,-7.9168,-7.8871,-7.8833,-7.8573,-7.8128,-7.7793,-7.7682,-7.7533,-7.7162,-7.7013,-7.7236,-7.809,-7.731,-7.6483,-8.9594,-8.9594,-8.9556,-8.9479,-8.9363,-8.9363,-8.9363,-8.9171,0.0,0.0,0.0,-8.4824,-8.4478,-8.4494,-8.4478,-8.4901,-8.5593,-8.6286,-8.694,-8.7632,-8.7632,-8.7632,-8.7594,-8.6901,-8.6555,-8.6555,-8.6555,-8.6555,-8.6555,-8.6555,-8.6901,-8.7572,-8.7693,-8.8088,-8.8791,-8.8967,-8.8063,-8.6107,-8.5836,-8.6107,-8.6803,-8.6532,-8.6029,-8.5294,-8.4521,-8.4095,-8.4095,-8.3244,-8.3128,-8.3786,-8.3167,-8.2548,-8.1955,-8.0588,-7.9716,-7.9614,-7.9291,-7.9489,-8.0479,-8.0889,-8.1286,-8.1799,-8.1837,-8.0046,-7.5723,-7.6198,-7.7131,-7.8275,-7.804,-7.8268,-7.9214,-7.8678,-7.8312,-7.8349,-7.8793,-7.9019,-7.9094,-7.9799,-7.9837,-7.9391,-7.9205,-7.9094,-7.8648,-7.8573,-7.8573,-7.8759,-7.9279,-7.9502,-7.9428,-7.9205,-7.9131,-7.9465,-7.9539,-7.9725,-8.0245,-8.0357,-8.0505,-8.0542,-8.058,-8.0691,-8.058,-8.0022,-7.9539,-7.9428,-7.8833,-7.8351,-7.8304,-7.8267,-7.8304,-7.8304,-7.8304,-7.8304,-7.8192,-7.7236,-7.6419,-9.2979,-9.2979,-9.2979,-9.2595,-9.1979,-9.1979,-9.1979,-9.1748,-8.9248,-8.8171,-8.8132,-8.8017,-8.7995,-8.7979,-8.7979,-8.8055,-8.8171,-8.8286,-8.8402,-8.8517,-8.8517,-8.8517,-8.8479,-8.8402,-8.8325,-8.8325,-8.8325,-8.8325,-8.8325,-8.8286,-8.8402,-8.8496,-8.8562,-8.8752,-8.8967,-8.9107,-8.9008,-8.8621,-8.7925,-8.7615,-8.7679,-8.6261,-8.5449,-8.5294,-8.4559,-8.4095,-8.4095,-8.3283,-8.287,-8.2973,-8.2857,-8.3089,-8.3708,-8.4069,-8.4161,-8.3658,-8.2954,-8.1802,-8.0148,-7.9398,-7.877,-7.8238,-7.8163,-7.8938,-8.1046,-8.1527,-8.1436,-8.0726,-7.9849,-7.9291,-7.8772,-7.7702,-7.7091,-7.7029,-7.7297,-7.7486,-7.7635,-7.8313,-7.8796,-7.8685,-7.8462,-7.8796,-7.9242,-7.9279,-7.9502,-8.0022,-7.9874,-7.9539,-7.9651,-7.9985,-8.0059,-7.9651,-7.9502,-7.9539,-7.9799,-7.9688,-8.0022,-8.0617,-8.0691,-8.0691,-8.0691,-8.0097,-7.9614,-7.9502,-7.8982,-7.8499,-7.8388,-7.8304,-7.8425,-7.8499,-7.8527,-7.849,-7.8453,-7.8016,-7.783,-9.3672,-9.3672,-9.3672,-9.348,-9.3172,-9.3133,-9.3133,-9.3056,-9.1902,-9.0864,-8.9979,-8.9094,-8.8671,-8.8671,-8.8671,-8.894,-8.9363,-8.9363,-8.9594,-9.0017,-8.9594,-8.9363,-8.9325,-8.8902,-8.8671,-8.8671,-8.8671,-8.8671,-8.8671,-8.8671,-8.894,-8.9363,-8.9872,-9.0233,-9.0402,-9.047,-9.0513,-9.0516,-8.9279,-8.8621,-8.8582,-8.7847,-8.7422,-8.7422,-8.7035,-8.6648,-8.6184,-8.5759,-8.5333,-8.4908,-8.4405,-8.4327,-8.4714,-8.4516,-8.428,-8.4044,-8.3948,-8.3483,-8.2472,-8.2292,-8.2027,-8.1512,-8.1588,-8.2238,-8.3612,-8.1507,-8.0066,-7.9944,-7.964,-7.9405,-7.9313,-7.8487,-7.7952,-7.799,-7.8219,-7.8378,-7.8462,-7.9094,-7.9614,-7.9576,-7.9205,-7.9242,-8.0059,-7.9762,-7.9799,-8.0505,-8.032,-8.0134,-8.0134,-8.0468,-8.0617,-8.0208,-8.0171,-8.0134,-8.0134,-8.0134,-8.0282,-8.0654,-8.0691,-8.0691,-8.0691,-8.032,-8.0208,-8.0134,-7.9799,-7.9614,-7.9576,-7.9576,-7.9576,-7.9614,-7.9614,-7.9502,-7.9094,-7.8611,-7.8313,-9.4287,-9.4287,-9.4287,-9.4287,-9.4287,-9.4287,-9.4287,-9.4249,-9.4057,-9.3249,-9.1941,-9.0441,-8.9825,-8.9825,-8.9825,-9.0171,-9.071,-9.0748,-9.1133,-9.1633,-9.1056,-9.0748,-9.071,-9.0094,-8.9825,-8.9825,-8.9825,-8.9825,-8.9825,-8.9825,-9.0133,-9.0787,-9.1489,-9.1952,-9.2118,-9.2134,-9.2194,-9.2151,-9.0759,-8.9922,-8.9743,-8.9588,-8.9472,-8.9472,-8.9279,-8.8892,-8.8234,-8.8002,-8.7577,-8.6919,-8.6068,-8.5604,-8.5552,-8.4783,-8.4149,-8.4011,-8.4268,-8.4363,-8.4079,-8.4437,-8.4546,-8.4355,-8.4502,-8.4567,-8.4059,-8.1005,-7.9283,-8.0121,-8.0347,-8.0342,-8.0618,-8.0071,-7.9642,-7.9654,-7.9711,-7.9716,-7.9799,-8.032,-8.0691,-8.0617,-8.0134,-8.0022,-8.0394,-8.0134,-8.0059,-8.0542,-8.084,-8.0988,-8.0988,-8.11,-8.1285,-8.1174,-8.0988,-8.0802,-8.0914,-8.0988,-8.11,-8.1174,-8.1323,-8.1397,-8.136,-8.1211,-8.0988,-8.0951,-8.0765,-8.058,-8.0617,-8.0617,-8.058,-8.0505,-8.0505,-8.0394,-7.9874,-7.9354,-7.8685,-9.6057,-9.6057,-9.6057,-9.6057,-9.6019,-9.6019,-9.598,-9.5903,-9.5249,-9.4826,-9.4441,-9.3633,-9.3172,-9.3249,-9.3133,-9.3133,-9.321,-9.3326,-9.3326,-9.3364,-9.3403,-9.3326,-9.321,-9.3172,-9.3249,-9.3133,-9.3056,-9.2903,-9.2941,-9.3056,-9.321,-9.3382,-9.353,-9.3598,-9.3654,-9.372,-9.3763,-9.384,-9.2913,-9.2146,-9.1484,-9.071,-9.0284,-9.0284,-8.9588,-8.9163,-8.9047,-8.8312,-8.7886,-8.7731,-8.6958,-8.6494,-8.6442,-8.6351,-8.5829,-8.4851,-8.4631,-8.3945,-8.2825,-8.2618,-8.2807,-8.2649,-8.2823,-8.2845,-8.2778,-8.2292,-8.2633,-8.3642,-8.3528,-8.2959,-8.3172,-8.1993,-8.1144,-8.1043,-8.0756,-8.058,-8.0542,-8.0654,-8.0691,-8.0691,-8.0542,-8.0617,-8.0728,-8.0728,-8.0691,-8.0914,-8.1508,-8.188,-8.1917,-8.2326,-8.2697,-8.2586,-8.1768,-8.1211,-8.1657,-8.188,-8.2066,-8.266,-8.2883,-8.2771,-8.2586,-8.2214,-8.1872,-8.1768,-8.1323,-8.0988,-8.0877,-8.0691,-8.0802,-8.1025,-8.0951,-8.0691,-8.058,-8.0394,-7.9874,-9.7788,-9.7788,-9.7788,-9.748,-9.698,-9.6519,-9.6288,-9.6249,-9.5903,-9.5749,-9.5749,-9.5403,-9.4672,-9.371,-9.3672,-9.3672,-9.3672,-9.3672,-9.3672,-9.3672,-9.3672,-9.3672,-9.3672,-9.3672,-9.3672,-9.3672,-9.3672,-9.371,-9.3672,-9.371,-9.3672,-9.371,-9.3746,-9.3838,-9.389,-9.3924,-9.3968,-9.4095,-9.3763,-9.3461,-9.3055,-9.187,-9.1174,-9.1135,-9.0865,-9.04,-8.9936,-8.9549,-8.8931,-8.8002,-8.7538,-8.7151,-8.6596,-8.6447,-8.6138,-8.5683,-8.524,-8.4706,-8.4132,-8.3974,-8.3877,-8.3877,-8.3877,-8.3877,-8.3877,-8.3877,-8.4218,-8.4597,-8.3688,-8.2892,-8.2869,-8.2069,-8.1519,-8.1442,-8.1017,-8.0691,-8.0691,-8.0691,-8.0691,-8.0691,-8.0691,-8.0914,-8.1397,-8.188,-8.214,-8.2177,-8.2511,-8.2623,-8.2697,-8.2994,-8.3143,-8.3143,-8.2549,-8.2363,-8.2623,-8.2697,-8.2883,-8.3069,-8.318,-8.318,-8.3143,-8.2994,-8.2697,-8.266,-8.2288,-8.2066,-8.2251,-8.2177,-8.2177,-8.2028,-8.1657,-8.1434,-8.1471,-8.1025,-8.0394,-9.8788,-9.8788,-9.8788,-9.8442,-9.7827,-9.725,-9.698,-9.6942,-9.6749,-9.6634,-9.6596,-9.6403,-9.5634,-9.4518,-9.4403,-9.4403,-9.4403,-9.4403,-9.4403,-9.4403,-9.4403,-9.4403,-9.4403,-9.4403,-9.4403,-9.4403,-9.4441,-9.4441,-9.4403,-9.4403,-9.4403,-9.4403,-9.4403,-9.4477,-9.4531,-9.4548,-9.4617,-9.4711,-9.4535,-9.4443,-9.4302,-9.3118,-9.2267,-9.2064,-9.1832,-9.1406,-9.0787,-9.0516,-8.9859,-8.866,-8.8157,-8.7615,-8.6983,-8.6573,-8.6231,-8.6033,-8.5665,-8.5352,-8.5186,-8.4999,-8.4901,-8.4901,-8.4901,-8.4901,-8.4901,-8.4901,-8.4901,-8.4825,-8.3802,-8.3157,-8.3036,-8.2559,-8.2195,-8.2144,-8.1689,-8.1389,-8.1397,-8.136,-8.1434,-8.1397,-8.1545,-8.1583,-8.2251,-8.2771,-8.3069,-8.3069,-8.3143,-8.318,-8.318,-8.318,-8.318,-8.3217,-8.3329,-8.3403,-8.3254,-8.3143,-8.318,-8.318,-8.318,-8.318,-8.318,-8.318,-8.318,-8.2957,-8.3143,-8.3143,-8.2883,-8.2994,-8.3106,-8.3069,-8.2697,-8.2251,-8.2326,-8.1731,-8.1508,-9.8788,-9.8827,-9.8827,-9.8827,-9.8711,-9.8634,-9.8634,-9.8442,-9.7788,-9.7442,-9.7365,-9.6711,-9.6288,-9.6172,-9.6134,-9.6172,-9.6134,-9.6057,-9.6019,-9.6019,-9.6057,-9.6134,-9.6211,-9.6211,-9.6134,-9.5942,-9.5942,-9.598,-9.6057,-9.6134,-9.6211,-9.6134,-9.6019,-9.6095,-9.6075,-9.6037,-9.6189,-9.6026,-9.5427,-9.5147,-9.5216,-9.4459,-9.3639,-9.3017,-9.218,-9.1716,-9.1561,-9.0865,-9.0323,-9.0246,-8.8814,-8.7963,-8.7809,-8.7047,-8.6345,-8.5846,-8.5682,-8.5435,-8.5022,-8.4924,-8.4901,-8.4901,-8.4901,-8.4901,-8.4901,-8.4901,-8.4901,-8.4901,-8.4711,-8.4635,-8.4528,-8.3929,-8.366,-8.3618,-8.3294,-8.3016,-8.2994,-8.2809,-8.3032,-8.2957,-8.2846,-8.2846,-8.3032,-8.3143,-8.3254,-8.3254,-8.3254,-8.3292,-8.344,-8.3329,-8.3366,-8.3514,-8.3849,-8.4109,-8.3403,-8.3552,-8.3477,-8.3514,-8.3737,-8.3366,-8.3217,-8.318,-8.3254,-8.3254,-8.3329,-8.3366,-8.3254,-8.318,-8.318,-8.3143,-8.3143,-8.2957,-8.2846,-8.3032,-8.2809,-10.0404,-10.0366,-9.9827,-9.9635,-9.9558,-9.9058,-9.8788,-9.875,-9.8481,-9.8327,-9.8288,-9.8019,-9.7904,-9.7865,-9.7326,-9.6788,-9.6326,-9.6288,-9.6288,-9.6288,-9.6288,-9.6288,-9.6288,-9.6288,-9.6288,-9.6288,-9.6288,-9.6288,-9.6288,-9.6288,-9.6288,-9.6288,-9.6288,-9.6288,-9.6288,-9.6288,-9.6343,-9.6355,-9.6047,-9.5983,-9.5985,-9.5307,-9.4721,-9.4489,-9.3234,-9.2528,-9.2528,-9.1716,-9.0981,-9.0439,-8.9782,-8.9279,-8.8685,-8.7708,-8.6786,-8.6077,-8.5665,-8.5335,-8.5181,-8.4977,-8.4901,-8.4901,-8.4901,-8.4901,-8.4901,-8.4901,-8.4901,-8.4901,-8.4901,-8.4831,-8.4565,-8.4205,-8.3918,-8.374,-8.3441,-8.3217,-8.318,-8.318,-8.318,-8.318,-8.318,-8.318,-8.3292,-8.318,-8.3403,-8.3849,-8.396,-8.4146,-8.4592,-8.474,-8.4629,-8.474,-8.4963,-8.5075,-8.4852,-8.4778,-8.4778,-8.4778,-8.4778,-8.4778,-8.4666,-8.4555,-8.4592,-8.4072,-8.396,-8.3812,-8.3737,-8.3403,-8.3366,-8.3292,-8.3292,-8.318,-8.318,-8.318,-8.318,-10.1289,-10.1212,-10.0712,-10.0481,-10.0404,-9.9865,-9.9596,-9.9558,-9.9327,-9.9211,-9.9173,-9.8942,-9.8788,-9.8711,-9.8173,-9.7673,-9.7057,-9.6557,-9.6288,-9.6288,-9.6288,-9.6288,-9.6288,-9.6288,-9.6288,-9.6288,-9.6288,-9.6288,-9.6288,-9.6288,-9.6288,-9.6288,-9.6288,-9.6288,-9.6288,-9.6288,-9.6325,-9.6379,-9.6397,-9.6394,-9.6403,-9.5957,-9.5682,-9.557,-9.445,-9.3505,-9.3031,-9.218,-9.1445,-9.0865,-9.0555,-9.0052,-8.9188,-8.8058,-8.7115,-8.65,-8.5724,-8.5249,-8.5181,-8.4999,-8.4901,-8.4901,-8.4901,-8.4901,-8.4901,-8.4901,-8.4901,-8.4901,-8.4878,-8.4822,-8.4832,-8.467,-8.4272,-8.3769,-8.3579,-8.3589,-8.3589,-8.3812,-8.3997,-8.4072,-8.4072,-8.4035,-8.396,-8.3997,-8.4257,-8.474,-8.4778,-8.5075,-8.5446,-8.5595,-8.5595,-8.5632,-8.5818,-8.5929,-8.6004,-8.6115,-8.5669,-8.5595,-8.5521,-8.5669,-8.5781,-8.5743,-8.5558,-8.5,-8.4629,-8.4443,-8.4146,-8.3812,-8.3626,-8.3589,-8.3329,-8.318,-8.318,-8.318,-8.318,-10.1289,-10.1289,-10.1289,-10.1212,-10.1173,-10.1096,-10.1212,-10.0981,-10.0404,-10.0096,-9.9981,-9.9288,-9.9096,-9.8904,-9.8904,-9.875,-9.8442,-9.725,-9.6519,-9.6442,-9.6403,-9.6365,-9.6326,-9.6288,-9.6288,-9.6288,-9.6288,-9.6288,-9.6288,-9.6288,-9.6288,-9.6288,-9.6288,-9.6288,-9.6288,-9.6288,-9.6288,-9.6306,-9.6306,-9.6343,-9.6376,-9.6317,-9.633,-9.6338,-9.5609,-9.4528,-9.3094,-9.2257,-9.1754,-9.1561,-9.0903,-9.0052,-8.929,-8.8205,-8.7325,-8.6964,-8.599,-8.5257,-8.5007,-8.4939,-8.4901,-8.4901,-8.4901,-8.4901,-8.4901,-8.4901,-8.4939,-8.5052,-8.5029,-8.5148,-8.5612,-8.5688,-8.5195,-8.3984,-8.4261,-8.4495,-8.4614,-8.5075,-8.5558,-8.5446,-8.5335,-8.5521,-8.5558,-8.5335,-8.5335,-8.5521,-8.5595,-8.5706,-8.5966,-8.6041,-8.5781,-8.5892,-8.6375,-8.6821,-8.7118,-8.7341,-8.6709,-8.6189,-8.6078,-8.6115,-8.6264,-8.6301,-8.6189,-8.5743,-8.5298,-8.5075,-8.4963,-8.4629,-8.4443,-8.4295,-8.3812,-8.344,-8.344,-8.3477,-8.3217,-10.1289,-10.1289,-10.1289,-10.1289,-10.1289,-10.1289,-10.1289,-10.1289,-10.1019,-10.0943,-10.0866,-10.0635,-10.0519,-10.0366,-9.9981,-9.9712,-9.9596,-9.8519,-9.7711,-9.7211,-9.7134,-9.6826,-9.6403,-9.6326,-9.6288,-9.6288,-9.6288,-9.6288,-9.6288,-9.6288,-9.6288,-9.6288,-9.6288,-9.6288,-9.6288,-9.6288,-9.6288,-9.6288,-9.6288,-9.6306,-9.6325,-9.6325,-9.6379,-9.6313,-9.5721,-9.4837,-9.3793,-9.3002,-9.2335,-9.1754,-9.1445,-9.0903,-9.0045,-8.9102,-8.8404,-8.783,-8.6604,-8.5835,-8.5682,-8.5242,-8.4976,-8.4939,-8.4939,-8.4901,-8.4901,-8.4976,-8.5204,-8.5621,-8.5711,-8.5943,-8.6367,-8.6543,-8.624,-8.5644,-8.5601,-8.5587,-8.5603,-8.5604,-8.5588,-8.5595,-8.5595,-8.5595,-8.5632,-8.5669,-8.5929,-8.6338,-8.6449,-8.6561,-8.7118,-8.7118,-8.7341,-8.7378,-8.7675,-8.7564,-8.7675,-8.775,-8.7452,-8.7081,-8.6932,-8.6784,-8.6895,-8.6895,-8.6784,-8.6524,-8.6078,-8.5855,-8.5706,-8.5483,-8.5298,-8.5,-8.4592,-8.4295,-8.4035,-8.3775,-8.3552,-10.1289,-10.1289,-10.1289,-10.1289,-10.1289,-10.1289,-10.1289,-10.1289,-10.1289,-10.1289,-10.1289,-10.1289,-10.1289,-10.1212,-10.075,-10.0558,-10.0481,-9.9981,-9.9288,-9.8481,-9.8057,-9.7673,-9.7173,-9.6865,-9.6557,-9.6326,-9.6288,-9.6288,-9.6288,-9.6288,-9.6288,-9.6288,-9.6288,-9.6288,-9.6288,-9.6288,-9.6288,-9.6288,-9.6288,-9.6288,-9.6288,-9.6288,-9.6306,-9.6302,-9.5928,-9.5302,-9.4518,-9.3763,-9.2886,-9.1919,-9.1605,-9.1168,-9.0526,-8.9631,-8.8926,-8.8433,-8.7449,-8.6606,-8.653,-8.6189,-8.5848,-8.5848,-8.5848,-8.5848,-8.5848,-8.5848,-8.6114,-8.6455,-8.6606,-8.6838,-8.7398,-8.7499,-8.7538,-8.7749,-8.7087,-8.6846,-8.6889,-8.6736,-8.6591,-8.6635,-8.6598,-8.6524,-8.6524,-8.6524,-8.6709,-8.7192,-8.7304,-8.7378,-8.7935,-8.8047,-8.8084,-8.8084,-8.801,-8.7973,-8.8047,-8.8084,-8.8084,-8.7935,-8.7861,-8.7712,-8.7712,-8.7675,-8.7564,-8.7415,-8.7044,-8.7007,-8.6895,-8.6338,-8.6004,-8.5669,-8.5409,-8.5038,-8.474,-8.4146,-8.3886,-10.1289,-10.1289,-10.1289,-10.1289,-10.1289,-10.1289,-10.1289,-10.1289,-10.1289,-10.1289,-10.1289,-10.1289,-10.1289,-10.1289,-10.1212,-10.1173,-10.125,-10.1135,-10.0712,-9.9981,-9.9365,-9.8865,-9.8442,-9.7865,-9.7211,-9.6557,-9.6442,-9.6403,-9.6288,-9.6288,-9.6288,-9.6288,-9.6288,-9.6288,-9.6288,-9.6288,-9.6288,-9.6288,-9.6288,-9.6288,-9.6288,-9.6288,-9.6288,-9.6306,-9.6281,-9.591,-9.5041,-9.4226,-9.3175,-9.1852,-9.1345,-9.1073,-9.0647,-8.9735,-8.9196,-8.9146,-8.8106,-8.7601,-8.744,-8.7213,-8.7137,-8.7137,-8.7137,-8.7402,-8.7175,-8.7061,-8.7175,-8.744,-8.744,-8.7781,-8.8439,-8.8629,-8.8908,-8.9389,-8.8436,-8.7989,-8.8338,-8.8151,-8.7818,-8.7898,-8.8047,-8.8047,-8.7861,-8.7861,-8.7898,-8.7973,-8.7973,-8.801,-8.8047,-8.8084,-8.8084,-8.8084,-8.8084,-8.8084,-8.8084,-8.8084,-8.8084,-8.8084,-8.8084,-8.8084,-8.8084,-8.8084,-8.8084,-8.7935,-8.7861,-8.7935,-8.7787,-8.7192,-8.6895,-8.6747,-8.6375,-8.5892,-8.5372,-8.4889,-8.448,-10.1289,-10.1289,-10.1289,-10.1289,-10.1289,-10.1289,-10.1289,-10.1289,-10.1289,-10.1289,-10.1289,-10.1289,-10.1289,-10.1289,-10.1289,-10.1289,-10.1289,-10.1289,-10.125,-10.0981,-10.0789,-9.9865,-9.8981,-9.8596,-9.8019,-9.7288,-9.7134,-9.6865,-9.6326,-9.6326,-9.6288,-9.6288,-9.6288,-9.6288,-9.6288,-9.6288,-9.6288,-9.6288,-9.6288,-9.6288,-9.6288,-9.6288,-9.6288,-9.6288,-9.6379,-9.5914,-9.5084,-9.3824,-9.262,-9.1467,-9.1077,-9.0895,-9.0704,-9.0035,-8.9657,-8.9701,-8.8942,-8.8274,-8.816,-8.7781,-8.7478,-8.7402,-8.7592,-8.7402,-8.7402,-8.744,-8.7705,-8.8084,-8.8312,-8.8615,-8.9259,-8.9449,-8.9527,-8.9414,-8.891,-8.8542,-8.845,-8.8263,-8.8084,-8.8084,-8.8084,-8.8084,-8.8084,-8.8084,-8.8084,-8.8084,-8.8084,-8.8084,-8.8084,-8.8084,-8.8084,-8.8084,-8.8084,-8.8084,-8.8084,-8.8084,-8.8084,-8.8084,-8.8084,-8.8084,-8.8084,-8.8084,-8.8084,-8.8047,-8.7973,-8.801,-8.8047,-8.7787,-8.775,-8.7564,-8.7118,-8.6524,-8.6264,-8.5855,-8.5446,-10.0987,-10.0987,-10.121,-10.1289,-10.1289,-10.1289,-10.1289,-10.1289,-10.1289,-10.1289,-10.1289,-10.1289,-10.1289,-10.1289,-10.1289,-10.1289,-10.1289,-10.1289,-10.1289,-10.1289,-10.125,-10.0519,-9.9596,-9.9327,-9.8865,-9.8057,-9.7673,-9.725,-9.6826,-9.648,-9.6288,-9.6288,-9.6288,-9.6288,-9.6288,-9.6288,-9.6288,-9.6288,-9.6288,-9.6288,-9.6288,-9.6288,-9.6288,-9.6288,-9.6304,-9.584,-9.466,-9.372,-9.2591,-9.1311,-9.0838,-9.0664,-9.0355,-9.0052,-8.9887,-9.0022,-8.9455,-8.9108,-8.9032,-8.8653,-8.8426,-8.8426,-8.8426,-8.8426,-8.8463,-8.8426,-8.8691,-8.9032,-8.9108,-8.9335,-8.9638,-8.979,-8.9667,-8.9412,-8.9157,-8.8879,-8.8562,-8.83,-8.8115,-8.8084,-8.8084,-8.8084,-8.8084,-8.8084,-8.8084,-8.8084,-8.8084,-8.8084,-8.8084,-8.8084,-8.8084,-8.8084,-8.8084,-8.8084,-8.8084,-8.8084,-8.8084,-8.8084,-8.8084,-8.8084,-8.8084,-8.8084,-8.8084,-8.8084,-8.8084,-8.8084,-8.8084,-8.8084,-8.801,-8.7787,-8.749,-8.7341,-8.7081,-8.6672,-8.6264,-10.0442,-10.0536,-10.1029,-10.125,-10.1269,-10.1289,-10.1289,-10.1289,-10.1289,-10.1289,-10.1289,-10.1289,-10.1289,-10.1289,-10.1289,-10.1289,-10.1289,-10.1289,-10.1289,-10.1289,-10.125,-10.0866,-10.0289,-10.0212,-9.9712,-9.8942,-9.8096,-9.7711,-9.7365,-9.6749,-9.6403,-9.6326,-9.6288,-9.6288,-9.6288,-9.6288,-9.6288,-9.6288,-9.6288,-9.6288,-9.6288,-9.6288,-9.6288,-9.6288,-9.6288,-9.5496,-9.4377,-9.3645,-9.2773,-9.0623,-9.0684,-9.0478,-8.992,-8.979,-8.979,-8.9814,-8.9739,-8.9676,-8.9752,-8.9601,-8.9676,-8.9601,-8.9638,-8.979,-8.9601,-8.9525,-8.9563,-8.9638,-8.979,-8.9752,-8.9752,-8.979,-8.9616,-8.9397,-8.9102,-8.8879,-8.8533,-8.8269,-8.8084,-8.8084,-8.8084,-8.8084,-8.8084,-8.8084,-8.8084,-8.8084,-8.8084,-8.8084,-8.8084,-8.8084,-8.8084,-8.8084,-8.8084,-8.8084,-8.8084,-8.8084,-8.8084,-8.8084,-8.8084,-8.8084,-8.8084,-8.8084,-8.8084,-8.8084,-8.8084,-8.8084,-8.8084,-8.8084,-8.8084,-8.8047,-8.7787,-8.7898,-8.7935,-8.7415,-8.6969,-10.005,-10.0512,-10.0604,-10.0906,-10.125,-10.1289,-10.1289,-10.1289,-10.1289,-10.1289,-10.1289,-10.1289,-10.1289,-10.1289,-10.1289,-10.1289,-10.1289,-10.1289,-10.1289,-10.1289,-10.1289,-10.125,-10.1019,-10.0981,-10.0596,-9.9904,-9.9635,-9.8827,-9.7788,-9.7288,-9.6903,-9.6365,-9.6288,-9.6288,-9.6288,-9.6288,-9.6288,-9.6288,-9.6288,-9.6288,-9.6288,-9.6288,-9.6288,-9.6288,-9.6269,-9.5365,-9.4059,-9.3448,-9.2268,-9.0835,-9.0419,-9.0291,-8.9849,-8.979,-8.979,-8.979,-8.979,-8.979,-8.979,-8.979,-8.979,-8.979,-8.979,-8.979,-8.979,-8.979,-8.979,-8.979,-8.979,-8.979,-8.979,-8.979,-8.9541,-8.9238,-8.9019,-8.8766,-8.833,-8.8146,-8.8084,-8.8084,-8.8084,-8.8084,-8.8084,-8.8084,-8.8084,-8.8084,-8.8084,-8.8084,-8.8084,-8.8084,-8.8195,-8.827,-8.8344,-8.8418,-8.8641,-8.8567,-8.8418,-8.827,-8.8195,-8.8084,-8.8084,-8.8084,-8.8084,-8.8084,-8.8084,-8.8084,-8.8084,-8.8084,-8.8084,-8.8084,-8.8084,-8.8084,-8.801,-8.775,-8.7638,-9.9552,-10.0113,-10.0357,-10.082,-10.125,-10.1289,-10.1289,-10.1289,-10.1289,-10.1289,-10.1289,-10.1289,-10.1289,-10.1289,-10.1289,-10.1289,-10.1289,-10.1289,-10.1289,-10.1289,-10.1289,-10.1289,-10.1289,-10.1289,-10.1058,-10.0635,-10.0212,-9.9288,-9.8365,-9.7673,-9.7057,-9.6365,-9.6288,-9.6288,-9.6288,-9.6288,-9.6288,-9.6288,-9.6288,-9.6288,-9.6288,-9.6288,-9.6288,-9.6193,-9.5963,-9.5077,-9.3484,-9.2864,-9.1613,-9.03,-8.9892,-8.9906,-8.9716,-8.9754,-8.979,-8.979,-8.979,-8.979,-8.979,-8.979,-8.979,-8.979,-8.979,-8.979,-8.979,-8.979,-8.979,-8.979,-8.979,-8.979,-8.979,-8.9642,-8.9386,-8.9102,-8.8851,-8.8562,-8.8239,-8.8084,-8.8084,-8.8084,-8.8084,-8.8084,-8.8084,-8.8084,-8.8084,-8.8084,-8.8084,-8.8084,-8.8084,-8.8158,-8.8455,-8.8567,-8.8678,-8.8864,-8.9161,-8.9124,-8.8827,-8.8604,-8.8381,-8.8233,-8.8084,-8.8084,-8.8084,-8.8084,-8.8084,-8.8084,-8.8084,-8.8084,-8.8084,-8.8084,-8.8084,-8.8084,-8.8047,-8.7935,-8.7898,-9.8922,-9.9487,-10.0,-10.0559,-10.1029,-10.1111,-10.1131,-10.1131,-10.1269,-10.1289,-10.1289,-10.1289,-10.1289,-10.1289,-10.1289,-10.1289,-10.1289,-10.1289,-10.1289,-10.1289,-10.1289,-10.1289,-10.1289,-10.1289,-10.125,-10.1212,-10.0673,-9.9788,-9.8788,-9.8057,-9.7326,-9.648,-9.6288,-9.6288,-9.6288,-9.6288,-9.6288,-9.6288,-9.6288,-9.6288,-9.6288,-9.6269,-9.6251,-9.6,-9.5435,-9.4414,-9.2999,-9.2033,-9.0965,-8.9371,-8.9205,-8.9216,-8.9307,-8.9515,-8.9716,-8.9692,-8.9692,-8.9716,-8.9766,-8.979,-8.979,-8.979,-8.979,-8.979,-8.979,-8.979,-8.979,-8.979,-8.979,-8.9766,-8.9716,-8.9566,-8.9254,-8.8964,-8.8679,-8.8414,-8.8177,-8.8084,-8.8084,-8.8084,-8.8084,-8.8084,-8.8084,-8.8084,-8.8084,-8.8084,-8.8084,-8.8084,-8.8084,-8.8344,-8.8678,-8.9087,-8.9236,-8.9459,-8.9756,-8.983,-8.9533,-8.9236,-8.8864,-8.853,-8.8307,-8.8121,-8.8158,-8.8121,-8.8084,-8.8084,-8.8084,-8.8084,-8.8084,-8.8084,-8.8084,-8.8084,-8.8084,-8.8084,-8.8084,-9.8348,-9.8862,-9.8952,-9.932,-9.9923,-10.0404,-10.0649,-10.0732,-10.1149,-10.1269,-10.1289,-10.1289,-10.1289,-10.1289,-10.1289,-10.1289,-10.1289,-10.1289,-10.1289,-10.1289,-10.1289,-10.1289,-10.1289,-10.1289,-10.1289,-10.1289,-10.1019,-10.025,-9.9096,-9.8557,-9.7634,-9.6596,-9.6288,-9.6288,-9.6288,-9.6288,-9.6288,-9.6288,-9.6288,-9.6288,-9.6288,-9.6269,-9.604,-9.5644,-9.4894,-9.3671,-9.2315,-9.1061,-8.9957,-8.9009,-8.8748,-8.8671,-8.8728,-8.8992,-8.9238,-8.9449,-8.9438,-8.9553,-8.9692,-8.9766,-8.979,-8.979,-8.979,-8.979,-8.979,-8.979,-8.9766,-8.9741,-8.9716,-8.9692,-8.9464,-8.9333,-8.9092,-8.8757,-8.8495,-8.8384,-8.8177,-8.8084,-8.8084,-8.8084,-8.8084,-8.8084,-8.8084,-8.8084,-8.8084,-8.8084,-8.8084,-8.8084,-8.8084,-8.853,-8.9124,-8.9496,-8.9867,-9.009,-9.035,-9.0387,-9.0276,-9.0053,-8.9644,-8.905,-8.8753,-8.8344,-8.8195,-8.8121,-8.8084,-8.8084,-8.8084,-8.8084,-8.8084,-8.8084,-8.8084,-8.8084,-8.8084,-8.8084,-8.8084,-9.8188,-9.8679,-9.8679,-9.9041,-9.9623,-10.0236,-10.0512,-10.0581,-10.105,-10.1289,-10.1289,-10.1289,-10.1289,-10.1289,-10.1289,-10.1289,-10.1289,-10.1289,-10.1289,-10.1289,-10.1289,-10.1289,-10.1289,-10.1289,-10.1289,-10.1289,-10.1212,-10.0442,-9.8942,-9.8788,-9.7865,-9.6673,-9.6288,-9.6288,-9.6288,-9.6288,-9.6288,-9.6288,-9.6288,-9.6288,-9.6288,-9.6288,-9.5981,-9.5304,-9.4296,-9.3099,-9.1752,-9.0388,-8.9317,-8.8585,-8.8316,-8.8293,-8.8354,-8.8473,-8.8737,-8.9102,-8.9211,-8.9318,-8.9553,-8.9591,-8.9616,-8.9766,-8.979,-8.979,-8.979,-8.9766,-8.9716,-8.9629,-8.9449,-8.9333,-8.9211,-8.9037,-8.8785,-8.8592,-8.8384,-8.8269,-8.8146,-8.8115,-8.8084,-8.8084,-8.8084,-8.8084,-8.8084,-8.8084,-8.8084,-8.8084,-8.8084,-8.8084,-8.8084,-8.879,-8.9533,-9.0313,-9.0796,-9.1242,-9.1353,-9.1167,-9.1167,-9.0907,-9.035,-8.9756,-8.9161,-8.8716,-8.8344,-8.8121,-8.8084,-8.8084,-8.8084,-8.8084,-8.8084,-8.8084,-8.8084,-8.8084,-8.8084,-8.8084,-8.8084,-9.8158,-9.8567,-9.8567,-9.8839,-9.933,-10.0038,-10.0309,-10.0466,-10.1029,-10.1289,-10.1289,-10.1289,-10.1289,-10.1289,-10.1289,-10.1289,-10.1289,-10.1289,-10.1289,-10.1289,-10.1289,-10.1289,-10.1289,-10.1289,-10.1289,-10.1289,-10.1289,-10.0442,-9.9096,-9.8788,-9.7827,-9.6749,-9.6288,-9.6288,-9.6288,-9.6288,-9.6288,-9.6288,-9.6288,-9.6288,-9.6269,-9.6155,-9.5841,-9.512,-9.3782,-9.2329,-9.1175,-8.9757,-8.884,-8.8326,-8.8115,-8.8115,-8.8084,-8.8084,-8.833,-8.8708,-8.8851,-8.9075,-8.9345,-8.9423,-8.9578,-8.9766,-8.9716,-8.9716,-8.9667,-8.9591,-8.9553,-8.9345,-8.9184,-8.8992,-8.8908,-8.8708,-8.8533,-8.8384,-8.8239,-8.8084,-8.8115,-8.8084,-8.8084,-8.8084,-8.8084,-8.8084,-8.8084,-8.8084,-8.8084,-8.8084,-8.8084,-8.8084,-8.8233,-8.9198,-9.0053,-9.113,-9.1873,-9.2431,-9.2468,-9.2096,-9.2059,-9.191,-9.113,-9.0313,-8.9644,-8.9013,-8.8641,-8.8233,-8.8084,-8.8084,-8.8084,-8.8084,-8.8084,-8.8084,-8.8084,-8.8084,-8.8084,-8.8084,-8.8084,-9.7926,-9.7992,-9.7992,-9.8061,-9.8287,-9.9273,-9.9714,-9.9846,-10.0782,-10.1269,-10.123,-10.1289,-10.1289,-10.1289,-10.1289,-10.1289,-10.1289,-10.1289,-10.1289,-10.1289,-10.1289,-10.1289,-10.1289,-10.1289,-10.1289,-10.1289,-10.1289,-10.0327,-9.9173,-9.8788,-9.7904,-9.6634,-9.6288,-9.6288,-9.6288,-9.6288,-9.6288,-9.6288,-9.6288,-9.6288,-9.6193,-9.5841,-9.5295,-9.43,-9.2836,-9.1346,-9.0503,-8.9187,-8.8301,-8.8158,-8.8084,-8.8084,-8.8084,-8.8084,-8.8115,-8.8232,-8.8444,-8.8785,-8.92,-8.928,-8.9423,-8.9566,-8.9541,-8.9464,-8.9423,-8.9265,-8.9129,-8.9075,-8.8964,-8.8823,-8.8621,-8.8533,-8.8384,-8.8269,-8.8146,-8.8084,-8.8084,-8.8084,-8.8084,-8.8084,-8.8084,-8.8084,-8.8084,-8.8084,-8.8084,-8.8084,-8.8084,-8.8121,-8.8455,-8.9384,-9.0685,-9.1836,-9.2282,-9.2802,-9.2988,-9.2691,-9.2616,-9.2616,-9.1799,-9.0833,-9.009,-8.9384,-8.8753,-8.8418,-8.8233,-8.8084,-8.8084,-8.8084,-8.8084,-8.8084,-8.8084,-8.8084,-8.8084,-8.8084,-8.8084,-9.7892,-9.7892,-9.7892,-9.7892,-9.7992,-9.8748,-9.91,-9.932,-10.0333,-10.0842,-10.0906,-10.119,-10.1289,-10.1269,-10.1289,-10.1289,-10.1289,-10.1289,-10.1289,-10.1289,-10.1289,-10.1289,-10.1289,-10.1289,-10.1289,-10.1289,-10.1135,-10.0366,-9.9288,-9.8634,-9.7942,-9.6557,-9.6288,-9.6288,-9.6288,-9.6288,-9.6288,-9.6288,-9.6288,-9.6288,-9.6136,-9.5682,-9.4914,-9.3947,-9.222,-9.0916,-8.9796,-8.879,-8.8121,-8.8084,-8.8084,-8.8084,-8.8084,-8.8084,-8.8084,-8.8115,-8.8208,-8.8473,-8.8823,-8.887,-8.9092,-8.9254,-8.9265,-8.9184,-8.9129,-8.8898,-8.8737,-8.8737,-8.8562,-8.8414,-8.8361,-8.83,-8.8239,-8.8146,-8.8084,-8.8084,-8.8084,-8.8084,-8.8084,-8.8084,-8.8084,-8.8084,-8.8084,-8.8084,-8.8084,-8.8084,-8.8121,-8.8195,-8.8641,-8.9533,-9.0982,-9.2579,-9.2802,-9.2951,-9.2988,-9.2876,-9.2839,-9.2728,-9.2133,-9.1242,-9.0499,-8.9793,-8.9161,-8.853,-8.8195,-8.8084,-8.8084,-8.8084,-8.8084,-8.8084,-8.8084,-8.8084,-8.8084,-8.8084,-8.8084,-9.7892,-9.7892,-9.7892,-9.7892,-9.7961,-9.8472,-9.871,-9.8832,-9.982,-10.0285,-10.0442,-10.082,-10.107,-10.1131,-10.121,-10.1289,-10.1289,-10.1289,-10.1289,-10.1289,-10.1289,-10.1289,-10.1289,-10.1289,-10.1289,-10.1289,-10.1289,-10.0327,-9.9288,-9.8634,-9.7942,-9.6365,-9.6288,-9.6288,-9.6288,-9.6288,-9.6288,-9.6288,-9.6288,-9.6288,-9.6155,-9.5533,-9.4592,-9.3352,-9.1921,-9.0505,-8.9404,-8.853,-8.8121,-8.8084,-8.8084,-8.8084,-8.8084,-8.8084,-8.8084,-8.8084,-8.8146,-8.8171,-8.8414,-8.8562,-8.8679,-8.8851,-8.8879,-8.8851,-8.8708,-8.8533,-8.8414,-8.8414,-8.8263,-8.8177,-8.8084,-8.8115,-8.8115,-8.8115,-8.8084,-8.8084,-8.8115,-8.8146,-8.8146,-8.8084,-8.8084,-8.8084,-8.8084,-8.8084,-8.8084,-8.8084,-8.8158,-8.8233,-8.8976,-8.983,-9.113,-9.2728,-9.2988,-9.2988,-9.2988,-9.2988,-9.2988,-9.2876,-9.2319,-9.1725,-9.1019,-9.0239,-8.9533,-8.8938,-8.8307,-8.8084,-8.8084,-8.8084,-8.8084,-8.8084,-8.8084,-8.8084,-8.8084,-8.8084,-8.8084,-9.7892,-9.7892,-9.7892,-9.7892,-9.7889,-9.8472,-9.8686,-9.8686,-9.9386,-9.9687,-9.982,-10.0261,-10.0559,-10.0649,-10.1008,-10.121,-10.125,-10.1269,-10.1289,-10.1289,-10.1289,-10.1289,-10.1289,-10.1289,-10.1289,-10.1289,-10.125,-10.0366,-9.9173,-9.8788,-9.7788,-9.6519,-9.6326,-9.6288,-9.6288,-9.6288,-9.6288,-9.6288,-9.6288,-9.6251,-9.5941,-9.5242,-9.4263,-9.3184,-9.1625,-9.0159,-8.9347,-8.853,-8.8084,-8.8084,-8.8084,-8.8084,-8.8084,-8.8084,-8.8084,-8.8084,-8.8084,-8.8146,-8.8239,-8.8354,-8.8613,-8.8794,-8.8737,-8.8473,-8.8323,-8.8208,-8.8146,-8.8177,-8.8115,-8.8115,-8.8084,-8.8084,-8.8084,-8.8084,-8.8115,-8.8202,-8.8202,-8.8232,-8.8202,-8.8146,-8.8177,-8.8263,-8.8177,-8.8171,-8.8115,-8.8084,-8.8233,-8.8307,-8.9459,-9.0387,-9.1353,-9.2431,-9.2839,-9.2988,-9.2988,-9.2988,-9.2988,-9.2988,-9.2691,-9.2171,-9.1613,-9.0833,-8.9867,-8.9161,-8.8567,-8.8307,-8.8084,-8.8084,-8.8084,-8.8084,-8.8084,-8.8084,-8.8084,-8.8084,-8.8084,-9.7892,-9.7892,-9.7892,-9.7892,-9.7926,-9.8125,-9.8188,-9.8282,-9.8809,-9.9264,-9.9607,-9.9846,-9.9949,-10.01,-10.0536,-10.082,-10.0864,-10.119,-10.125,-10.1289,-10.1289,-10.1289,-10.1289,-10.1289,-10.1289,-10.1289,-10.1212,-10.0442,-9.8942,-9.8711,-9.7711,-9.6788,-9.6326,-9.6288,-9.6288,-9.6288,-9.6288,-9.6288,-9.6251,-9.6155,-9.5598,-9.5048,-9.4069,-9.2843,-9.1425,-9.0191,-8.931,-8.853,-8.8195,-8.8084,-8.8084,-8.8084,-8.8084,-8.8084,-8.8084,-8.8084,-8.8084,-8.8084,-8.8084,-8.8208,-8.8293,-8.8354,-8.833,-8.8239,-8.8084,-8.8084,-8.8084,-8.8084,-8.8115,-8.8177,-8.8084,-8.8084,-8.8084,-8.8084,-8.8177,-8.8256,-8.8399,-8.8487,-8.8624,-8.871,-8.8624,-8.8596,-8.8428,-8.8286,-8.8171,-8.8121,-8.8233,-8.8604,-8.9719,-9.0647,-9.1502,-9.2356,-9.2839,-9.2988,-9.2988,-9.2988,-9.2988,-9.2988,-9.2988,-9.2542,-9.1985,-9.1019,-9.0127,-8.9421,-8.879,-8.8418,-8.8158,-8.8121,-8.8084,-8.8084,-8.8084,-8.8084,-8.8084,-8.8084,-8.8084,-9.7892,-9.7892,-9.7892,-9.7892,-9.7892,-9.7892,-9.7892,-9.7995,-9.832,-9.8655,-9.9138,-9.9245,-9.9358,-9.9487,-9.9949,-10.0381,-10.0559,-10.0864,-10.1149,-10.123,-10.1289,-10.1289,-10.1289,-10.1289,-10.1289,-10.125,-10.0866,-10.0058,-9.8827,-9.8557,-9.7557,-9.6673,-9.6288,-9.6288,-9.6288,-9.6288,-9.6288,-9.6288,-9.6251,-9.6,-9.5429,-9.4842,-9.3963,-9.2654,-9.1249,-9.0159,-8.931,-8.8567,-8.8158,-8.8084,-8.8084,-8.8084,-8.8084,-8.8084,-8.8084,-8.8084,-8.8084,-8.8084,-8.8084,-8.8084,-8.8084,-8.8177,-8.8146,-8.8115,-8.8084,-8.8084,-8.8084,-8.8115,-8.8202,-8.8256,-8.8232,-8.8376,-8.8487,-8.8538,-8.8428,-8.8509,-8.8786,-8.8887,-8.9118,-8.93,-8.9145,-8.8996,-8.8596,-8.8369,-8.8171,-8.8115,-8.8158,-8.8753,-8.9942,-9.0759,-9.1353,-9.2208,-9.2951,-9.2988,-9.2988,-9.2988,-9.2988,-9.2988,-9.2951,-9.2802,-9.2208,-9.1279,-9.0573,-8.9942,-8.9273,-8.8567,-8.8233,-8.8121,-8.8084,-8.8084,-8.8084,-8.8084,-8.8084,-8.8084,-8.8084,-9.7892,-9.7892,-9.7892,-9.7892,-9.7892,-9.7892,-9.7892,-9.7892,-9.7958,-9.8027,-9.8192,-9.8535,-9.8748,-9.89,-9.9358,-9.9872,-10.0333,-10.0536,-10.082,-10.121,-10.1289,-10.1289,-10.1289,-10.1289,-10.1289,-10.1096,-10.0635,-9.9827,-9.8788,-9.8096,-9.7173,-9.6557,-9.6288,-9.6288,-9.6288,-9.6288,-9.6288,-9.6288,-9.6269,-9.5862,-9.5318,-9.4756,-9.379,-9.2675,-9.1224,-9.0127,-8.957,-8.8567,-8.8158,-8.8084,-8.8084,-8.8084,-8.8084,-8.8084,-8.8084,-8.8084,-8.8084,-8.8084,-8.8084,-8.8084,-8.8084,-8.8084,-8.8084,-8.8084,-8.8084,-8.8084,-8.8177,-8.8263,-8.845,-8.8509,-8.8653,-8.8841,-8.8941,-8.8969,-8.8832,-8.8969,-8.9223,-8.9402,-8.9649,-8.9885,-8.9697,-8.9402,-8.8859,-8.8487,-8.8232,-8.8115,-8.8115,-8.8864,-9.009,-9.0759,-9.1279,-9.2208,-9.2988,-9.2988,-9.2988,-9.2988,-9.2988,-9.2988,-9.2951,-9.2839,-9.2542,-9.1873,-9.1167,-9.0499,-8.9681,-8.879,-8.8381,-8.8084,-8.8084,-8.8084,-8.8084,-8.8084,-8.8084,-8.8084,-8.8084,-9.7892,-9.7892,-9.7892,-9.7892,-9.7892,-9.7892,-9.7892,-9.7892,-9.7892,-9.7892,-9.7926,-9.8125,-9.8192,-9.8353,-9.8748,-9.9358,-9.9872,-10.0466,-10.0798,-10.123,-10.125,-10.1289,-10.1289,-10.1289,-10.1289,-10.1096,-10.0481,-9.9596,-9.8788,-9.7865,-9.7096,-9.6519,-9.6288,-9.6288,-9.6288,-9.6288,-9.6288,-9.6193,-9.5902,-9.5446,-9.488,-9.4341,-9.3706,-9.281,-9.137,-9.0387,-8.9979,-8.8864,-8.8233,-8.8121,-8.8084,-8.8084,-8.8084,-8.8084,-8.8084,-8.8084,-8.8084,-8.8084,-8.8084,-8.8084,-8.8084,-8.8084,-8.8084,-8.8084,-8.8084,-8.8084,-8.8263,-8.8546,-8.8786,-8.8914,-8.9235,-8.9326,-8.9402,-8.9402,-8.9402,-8.9649,-8.9862,-8.9992,-9.0171,-9.0444,-9.0444,-8.9673,-8.905,-8.8719,-8.8444,-8.8326,-8.8307,-8.905,-9.0202,-9.061,-9.1093,-9.2208,-9.2988,-9.2988,-9.2988,-9.2988,-9.2988,-9.2988,-9.2988,-9.2951,-9.2616,-9.2245,-9.1465,-9.061,-8.983,-8.905,-8.853,-8.8084,-8.8084,-8.8084,-8.8084,-8.8084,-8.8084,-8.8084,-8.8084,-9.7892,-9.7892,-9.7892,-9.7892,-9.7892,-9.7892,-9.7892,-9.7892,-9.7892,-9.7892,-9.7892,-9.7892,-9.7926,-9.8027,-9.8287,-9.8748,-9.9302,-9.9661,-10.0404,-10.0906,-10.1029,-10.1091,-10.123,-10.1289,-10.1289,-10.1019,-10.0173,-9.925,-9.8711,-9.7634,-9.6865,-9.6403,-9.6288,-9.6288,-9.6288,-9.6288,-9.6288,-9.6136,-9.5821,-9.5227,-9.4655,-9.4132,-9.3567,-9.2801,-9.1762,-9.0796,-9.0239,-8.9384,-8.8344,-8.8195,-8.8084,-8.8084,-8.8084,-8.8084,-8.8084,-8.8084,-8.8084,-8.8084,-8.8084,-8.8084,-8.8084,-8.8084,-8.8084,-8.8171,-8.8286,-8.8369,-8.8644,-8.8941,-8.9171,-8.9352,-8.9601,-8.9721,-8.9999,-8.9999,-8.9931,-9.0193,-9.0423,-9.0544,-9.0523,-9.08,-9.0858,-9.006,-8.9313,-8.8999,-8.8679,-8.8615,-8.8567,-8.9459,-9.0313,-9.0759,-9.1205,-9.2282,-9.2988,-9.2988,-9.2988,-9.2988,-9.2988,-9.2988,-9.2988,-9.2988,-9.2914,-9.2579,-9.165,-9.0759,-9.0127,-8.9421,-8.853,-8.8084,-8.8084,-8.8084,-8.8084,-8.8084,-8.8084,-8.8084,-8.8084,-9.7892,-9.7892,-9.7892,-9.7892,-9.7892,-9.7892,-9.7892,-9.7892,-9.7892,-9.7892,-9.7892,-9.7892,-9.7892,-9.7892,-9.7926,-9.8287,-9.8748,-9.8832,-9.9634,-10.0309,-10.0627,-10.0885,-10.1151,-10.1289,-10.1289,-10.075,-9.9904,-9.9019,-9.8596,-9.7288,-9.6442,-9.6326,-9.6288,-9.6288,-9.6288,-9.6288,-9.6288,-9.6136,-9.5555,-9.5025,-9.4552,-9.4001,-9.3482,-9.2816,-9.2022,-9.1167,-9.0462,-8.9607,-8.8827,-8.8381,-8.8084,-8.8084,-8.8084,-8.8084,-8.8084,-8.8084,-8.8084,-8.8084,-8.8084,-8.8084,-8.8084,-8.8115,-8.8171,-8.8369,-8.8587,-8.8786,-8.9118,-8.9527,-8.9839,-8.9816,-8.9885,-9.036,-9.08,-9.0645,-9.0444,-9.0645,-9.0915,-9.0952,-9.0877,-9.0952,-9.11,-9.0605,-8.9792,-8.9376,-8.9142,-8.9272,-8.9349,-8.9904,-9.0685,-9.1167,-9.1725,-9.2468,-9.2988,-9.2988,-9.2988,-9.2988,-9.2988,-9.2988,-9.2988,-9.2988,-9.2951,-9.2765,-9.1873,-9.1093,-9.0536,-8.9719,-8.853,-8.8084,-8.8084,-8.8084,-8.8084,-8.8084,-8.8084,-8.8084,-8.8084,-9.7892,-9.7892,-9.7892,-9.7892,-9.7892,-9.7892,-9.7892,-9.7892,-9.7892,-9.7892,-9.7892,-9.7892,-9.7892,-9.7892,-9.7892,-9.8254,-9.8504,-9.8862,-9.9552,-10.0063,-10.0357,-10.082,-10.1111,-10.1269,-10.1269,-10.0712,-9.9788,-9.8711,-9.8404,-9.7096,-9.6288,-9.6288,-9.6288,-9.6288,-9.6288,-9.6288,-9.6288,-9.602,-9.5401,-9.488,-9.4367,-9.3739,-9.3301,-9.2793,-9.2245,-9.1428,-9.0647,-8.983,-8.9013,-8.8307,-8.8121,-8.8084,-8.8084,-8.8084,-8.8084,-8.8084,-8.8084,-8.8084,-8.8084,-8.8084,-8.8084,-8.8202,-8.8399,-8.8624,-8.8859,-8.9171,-8.9601,-9.0082,-9.036,-9.03,-9.0444,-9.082,-9.1082,-9.0971,-9.082,-9.0934,-9.1118,-9.11,-9.1046,-9.1064,-9.121,-9.0876,-9.0127,-8.9814,-8.9646,-8.9835,-9.0167,-9.0626,-9.1093,-9.165,-9.2059,-9.2802,-9.2988,-9.2988,-9.2988,-9.2988,-9.2988,-9.2988,-9.2988,-9.2988,-9.2988,-9.2653,-9.1985,-9.1093,-9.009,-8.9198,-8.8307,-8.8084,-8.8084,-8.8084,-8.8084,-8.8084,-8.8084,-8.8084,-8.8084,-9.7892,-9.7892,-9.7892,-9.7892,-9.7892,-9.7892,-9.7892,-9.7892,-9.7892,-9.7892,-9.7892,-9.7892,-9.7892,-9.7892,-9.7926,-9.8095,-9.8315,-9.838,-9.8839,-9.9497,-10.0088,-10.0489,-10.082,-10.1151,-10.1058,-10.0442,-9.9596,-9.8596,-9.8057,-9.7173,-9.6288,-9.6288,-9.6288,-9.6288,-9.6288,-9.6288,-9.6288,-9.5882,-9.5356,-9.4756,-9.4215,-9.3597,-9.3179,-9.2876,-9.2356,-9.1762,-9.0982,-9.0164,-8.9384,-8.8604,-8.8381,-8.8084,-8.8084,-8.8084,-8.8084,-8.8084,-8.8084,-8.8084,-8.8084,-8.8084,-8.8084,-8.8293,-8.8701,-8.9076,-8.9326,-8.9625,-9.0149,-9.0625,-9.0704,-9.082,-9.1008,-9.121,-9.1192,-9.1154,-9.1154,-9.1154,-9.121,-9.121,-9.1192,-9.1192,-9.1082,-9.0858,-9.0558,-9.0236,-9.0234,-9.0531,-9.0937,-9.1413,-9.1836,-9.2282,-9.2505,-9.2914,-9.2988,-9.2988,-9.2988,-9.2988,-9.2988,-9.2988,-9.2988,-9.2988,-9.2988,-9.2653,-9.2059,-9.0759,-8.9273,-8.8604,-8.8084,-8.8084,-8.8084,-8.8084,-8.8084,-8.8084,-8.8084,-8.8084,-8.8084,-9.7892,-9.7892,-9.7892,-9.7892,-9.7892,-9.7892,-9.7892,-9.7892,-9.7892,-9.7892,-9.7892,-9.7892,-9.7892,-9.7892,-9.7892,-9.7892,-9.8027,-9.8061,-9.8348,-9.871,-9.933,-9.9846,-10.0404,-10.0868,-10.0666,-9.998,-9.9211,-9.8327,-9.7403,-9.6673,-9.6288,-9.6288,-9.6288,-9.6288,-9.6288,-9.6288,-9.6269,-9.6117,-9.5401,-9.4731,-9.4341,-9.3747,-9.3054,-9.2988,-9.2802,-9.2505,-9.1688,-9.0945,-9.0202,-8.9347,-8.8716,-8.8307,-8.8121,-8.8084,-8.8084,-8.8084,-8.8084,-8.8084,-8.8084,-8.8084,-8.8171,-8.8458,-8.8996,-8.9452,-8.9745,-9.0149,-9.0664,-9.0915,-9.0971,-9.0989,-9.1136,-9.121,-9.121,-9.121,-9.121,-9.121,-9.121,-9.121,-9.121,-9.121,-9.1136,-9.0952,-9.0857,-9.0596,-9.0898,-9.1271,-9.1635,-9.2125,-9.2393,-9.2765,-9.2876,-9.2988,-9.2988,-9.2988,-9.2988,-9.2988,-9.2988,-9.2988,-9.2988,-9.2988,-9.2988,-9.2616,-9.2171,-9.0722,-8.9236,-8.8567,-8.8084,-8.8084,-8.8084,-8.8084,-8.8084,-8.8084,-8.8084,-8.8084,-8.8084,-9.7892,-9.7892,-9.7892,-9.7892,-9.7892,-9.7892,-9.7892,-9.7892,-9.7892,-9.7892,-9.7892,-9.7892,-9.7892,-9.7892,-9.7892,-9.7892,-9.7892,-9.7926,-9.8254,-9.8567,-9.8922,-9.9302,-9.9846,-10.0342,-10.0114,-9.9517,-9.882,-9.7942,-9.6903,-9.6403,-9.6288,-9.6288,-9.6288,-9.6288,-9.6288,-9.6288,-9.6269,-9.6251,-9.57,-9.5001,-9.4578,-9.4048,-9.3482,-9.3179,-9.2914,-9.2579,-9.1948,-9.1539,-9.0536,-8.9533,-8.9198,-8.8716,-8.8158,-8.8121,-8.8084,-8.8084,-8.8084,-8.8084,-8.8084,-8.8146,-8.8263,-8.8682,-8.9197,-8.9721,-9.0193,-9.0722,-9.1046,-9.1118,-9.121,-9.121,-9.121,-9.121,-9.121,-9.121,-9.121,-9.121,-9.121,-9.121,-9.121,-9.121,-9.121,-9.1159,-9.1088,-9.1326,-9.1613,-9.19,-9.2166,-9.2526,-9.27,-9.2914,-9.2914,-9.2988,-9.2988,-9.2988,-9.2988,-9.2988,-9.2988,-9.2988,-9.2988,-9.2988,-9.2988,-9.2133,-9.1316,-9.0462,-8.9384,-8.8604,-8.8084,-8.8084,-8.8084,-8.8084,-8.8084,-8.8084,-8.8084,-8.8084,-8.8084,-9.7892,-9.7892,-9.7892,-9.7892,-9.7892,-9.7892,-9.7892,-9.7892,-9.7892,-9.7892,-9.7892,-9.7892,-9.7892,-9.7892,-9.7892,-9.7892,-9.7892,-9.7892,-9.8061,-9.825,-9.8624,-9.8892,-9.9358,-9.9782,-9.9307,-9.8754,-9.7938,-9.7057,-9.6403,-9.6288,-9.6288,-9.6288,-9.6288,-9.6288,-9.6288,-9.6288,-9.6288,-9.6269,-9.5902,-9.549,-9.488,-9.427,-9.3567,-9.3179,-9.2876,-9.2616,-9.2356,-9.1985,-9.1242,-9.0276,-8.9756,-8.8864,-8.8307,-8.8121,-8.8084,-8.8084,-8.8084,-8.8084,-8.8115,-8.8171,-8.8376,-8.8841,-8.93,-8.9769,-9.0339,-9.0781,-9.1082,-9.121,-9.121,-9.121,-9.121,-9.121,-9.121,-9.121,-9.121,-9.121,-9.121,-9.121,-9.121,-9.121,-9.1287,-9.15,-9.1605,-9.2079,-9.2353,-9.2645,-9.2898,-9.2848,-9.2982,-9.2988,-9.2988,-9.2988,-9.2988,-9.2988,-9.2988,-9.2988,-9.2988,-9.2988,-9.2988,-9.2988,-9.2839,-9.1502,-9.0387,-9.0016,-8.9421,-8.8455,-8.8084,-8.8084,-8.8084,-8.8084,-8.8084,-8.8084,-8.8084,-8.8084,-8.8084,-9.7892,-9.7892,-9.7892,-9.7892,-9.7892,-9.7892,-9.7892,-9.7892,-9.7892,-9.7892,-9.7892,-9.7892,-9.7892,-9.7892,-9.7892,-9.7892,-9.7892,-9.7892,-9.7961,-9.8023,-9.838,-9.8504,-9.8778,-9.9103,-9.873,-9.7914,-9.6974,-9.6636,-9.6326,-9.6288,-9.6288,-9.6288,-9.6288,-9.6288,-9.6288,-9.6288,-9.6288,-9.6288,-9.6079,-9.5882,-9.5227,-9.4447,-9.3769,-9.3332,-9.3054,-9.2988,-9.2728,-9.2431,-9.191,-9.1056,-9.009,-8.9013,-8.8381,-8.8115,-8.8232,-8.8232,-8.8286,-8.8323,-8.8263,-8.8286,-8.8538,-8.8914,-8.9377,-8.9862,-9.0423,-9.08,-9.1118,-9.121,-9.121,-9.121,-9.121,-9.121,-9.121,-9.121,-9.121,-9.121,-9.121,-9.121,-9.121,-9.121,-9.1402,-9.1633,-9.2161,-9.2656,-9.2992,-9.3264,-9.3416,-9.3297,-9.3211,-9.3086,-9.2988,-9.2988,-9.2988,-9.2988,-9.2988,-9.2988,-9.2988,-9.2988,-9.2988,-9.2988,-9.2653,-9.139,-9.0536,-9.0202,-8.9533,-8.8418,-8.8084,-8.8084,-8.8084,-8.8084,-8.8084,-8.8084,-8.8084,-8.8084,-8.8084,-9.7892,-9.7892,-9.7892,-9.7892,-9.7892,-9.7892,-9.7892,-9.7892,-9.7892,-9.7892,-9.7892,-9.7892,-9.7892,-9.7892,-9.7892,-9.7892,-9.7892,-9.7892,-9.7892,-9.7958,-9.8091,-9.8057,-9.8138,-9.8433,-9.8351,-9.7486,-9.6413,-9.5995,-9.6079,-9.6193,-9.6288,-9.6288,-9.6288,-9.6288,-9.6288,-9.6288,-9.6288,-9.6288,-9.6251,-9.602,-9.549,-9.4806,-9.4205,-9.3709,-9.3205,-9.3082,-9.2914,-9.2839,-9.2356,-9.1465,-9.0276,-8.9124,-8.8493,-8.8221,-8.8293,-8.8517,-8.8567,-8.8653,-8.8653,-8.8644,-8.8969,-8.9377,-8.9792,-9.0105,-9.0605,-9.0989,-9.121,-9.121,-9.121,-9.121,-9.121,-9.121,-9.121,-9.121,-9.121,-9.121,-9.121,-9.121,-9.121,-9.1248,-9.1364,-9.179,-9.2371,-9.2769,-9.3023,-9.3277,-9.3464,-9.3372,-9.3114,-9.3054,-9.2988,-9.2988,-9.2988,-9.2988,-9.2988,-9.2988,-9.2988,-9.2988,-9.2988,-9.2988,-9.2505,-9.1428,-9.0722,-9.035,-8.9384,-8.827,-8.8084,-8.8084,-8.8084,-8.8084,-8.8084,-8.8084,-8.8084,-8.8084,-8.8084]},{"header":{"parameterUnit":"m.s-1","parameterCategory":1,"la1":31.0,"la2":29.5877,"lo1":-88.7671,"lo2":-86.6584,"dy":0.0162,"dx":0.0185,"nx":115,"ny":88,"refTime":"2023-03-13T06:00:00:Z","depth":0,"parameterNumber":3,"parameterNumberName":"V-component_of_WINDS"},"data":[0.0,0.0,0.0,0.0,0.0,0.0,0.0,0.0,0.0,0.0,0.0,0.0,0.0,0.0,0.0,0.0,0.0,0.0,0.0,0.0,0.0,0.0,0.0,0.0,0.0,0.0,0.0,0.0,0.0,0.0,0.0,0.0,0.0,0.0,0.0,0.0,0.0,0.0,0.0,0.0,0.0,0.0,0.0,0.0,0.0,0.0,0.0,0.0,0.0,0.0,0.0,0.0,0.0,0.0,0.0,0.0,0.0,0.0,0.0,0.0,0.0,0.0,0.0,0.0,0.0,0.0,0.0,0.0,0.0,0.0,0.0,0.0,0.0,0.0,0.0,0.0,0.0,0.0,0.0,0.0,0.0,0.0,0.0,0.0,0.0,0.0,0.0,0.0,0.0,0.0,0.0,0.0,0.0,0.0,0.0,0.0,0.0,0.0,0.0,0.0,0.0,0.0,0.0,0.0,0.0,0.0,0.0,0.0,0.0,0.0,0.0,0.0,0.0,0.0,0.0,0.0,0.0,0.0,0.0,0.0,0.0,0.0,0.0,0.0,0.0,0.0,0.0,0.0,0.0,0.0,0.0,0.0,0.0,0.0,0.0,0.0,0.0,0.0,0.0,0.0,0.0,0.0,0.0,0.0,0.0,0.0,0.0,0.0,0.0,0.0,0.0,0.0,0.0,0.0,0.0,0.0,0.0,0.0,0.0,0.0,0.0,0.0,0.0,0.0,0.0,0.0,0.0,0.0,0.0,0.0,0.0,0.0,0.0,0.0,0.0,0.0,0.0,0.0,0.0,0.0,0.0,0.0,0.0,0.0,0.0,0.0,0.0,0.0,0.0,0.0,0.0,0.0,0.0,0.0,0.0,0.0,0.0,0.0,0.0,0.0,0.0,0.0,0.0,0.0,0.0,0.0,0.0,0.0,0.0,0.0,0.0,0.0,0.0,0.0,0.0,0.0,0.0,0.0,0.0,0.0,0.0,0.0,0.0,0.0,0.0,0.0,0.0,0.0,0.0,0.0,0.0,0.0,0.0,0.0,0.0,0.0,0.0,0.0,0.0,0.0,0.0,0.0,0.0,0.0,0.0,0.0,0.0,0.0,0.0,0.0,0.0,0.0,0.0,0.0,0.0,0.0,0.0,0.0,0.0,0.0,0.0,0.0,0.0,0.0,0.0,0.0,0.0,0.0,0.0,0.0,0.0,0.0,0.0,0.0,0.0,0.0,0.0,0.0,0.0,0.0,0.0,0.0,0.0,0.0,0.0,0.0,0.0,0.0,0.0,0.0,0.0,0.0,0.0,0.0,0.0,0.0,0.0,0.0,0.0,0.0,0.0,0.0,0.0,0.0,0.0,0.0,0.0,0.0,0.0,0.0,0.0,0.0,0.0,0.0,0.0,0.0,0.0,0.0,0.0,0.0,0.0,0.0,0.0,0.0,0.0,0.0,0.0,0.0,0.0,0.0,0.0,0.0,0.0,0.0,0.0,0.0,0.0,0.0,0.0,0.0,0.0,0.0,0.0,0.0,0.0,0.0,0.0,0.0,0.0,0.0,0.0,0.0,0.0,0.0,0.0,0.0,0.0,0.0,0.0,0.0,0.0,0.0,0.0,0.0,0.0,0.0,0.0,0.0,0.0,0.0,0.0,0.0,0.0,0.0,0.0,0.0,0.0,0.0,0.0,0.0,0.0,0.0,0.0,0.0,0.0,0.0,0.0,0.0,0.0,0.0,0.0,0.0,0.0,0.0,0.0,0.0,0.0,0.0,0.0,0.0,0.0,0.0,0.0,0.0,0.0,0.0,0.0,0.0,0.0,0.0,0.0,0.0,0.0,0.0,0.0,0.0,0.0,0.0,0.0,0.0,0.0,0.0,0.0,0.0,0.0,0.0,0.0,0.0,0.0,0.0,0.0,0.0,0.0,0.0,0.0,0.0,0.0,0.0,0.0,0.0,0.0,0.0,0.0,0.0,0.0,0.0,0.0,0.0,0.0,0.0,0.0,0.0,0.0,0.0,0.0,0.0,0.0,0.0,0.0,0.0,0.0,0.0,0.0,0.0,0.0,0.0,0.0,0.0,0.0,0.0,0.0,0.0,0.0,0.0,0.0,0.0,0.0,0.0,0.0,0.0,0.0,0.0,0.0,0.0,0.0,0.0,0.0,0.0,0.0,0.0,0.0,0.0,0.0,0.0,0.0,0.0,0.0,0.0,0.0,0.0,0.0,0.0,0.0,0.0,0.0,0.0,0.0,0.0,0.0,0.0,0.0,0.0,0.0,0.0,0.0,0.0,0.0,0.0,0.0,0.0,0.0,0.0,0.0,0.0,0.0,0.0,0.0,0.0,0.0,0.0,0.0,0.0,0.0,0.0,0.0,0.0,0.0,0.0,0.0,0.0,0.0,0.0,0.0,0.0,0.0,0.0,0.0,0.0,0.0,0.0,0.0,0.0,0.0,0.0,0.0,0.0,0.0,0.0,0.0,0.0,0.0,0.0,0.0,0.0,0.0,0.0,0.0,0.0,0.0,0.0,0.0,0.0,0.0,0.0,0.0,0.0,0.0,0.0,0.0,0.0,0.0,0.0,0.0,0.0,0.0,0.0,0.0,0.0,0.0,0.0,0.0,0.0,0.0,0.0,0.0,0.0,0.0,0.0,0.0,0.0,0.0,0.0,0.0,0.0,0.0,0.0,0.0,0.0,0.0,0.0,0.0,0.0,0.0,0.0,0.0,0.0,0.0,0.0,0.0,0.0,0.0,0.0,0.0,0.0,0.0,0.0,0.0,0.0,0.0,0.0,0.0,0.0,0.0,0.0,0.0,0.0,0.0,0.0,0.0,0.0,0.0,0.0,0.0,0.0,0.0,0.0,0.0,0.0,0.0,0.0,0.0,0.0,0.0,0.0,0.0,0.0,0.0,0.0,0.0,0.0,0.0,0.0,0.0,0.0,0.0,0.0,0.0,0.0,0.0,0.0,0.0,0.0,0.0,0.0,0.0,0.0,0.0,0.0,0.0,0.0,0.0,0.0,0.0,0.0,0.0,0.0,0.0,0.0,0.0,0.0,0.0,0.0,0.0,0.0,0.0,0.0,0.0,0.0,0.0,0.0,0.0,0.0,0.0,0.0,0.0,0.0,0.0,0.0,0.0,0.0,0.0,0.0,0.0,0.0,0.0,0.0,0.0,0.0,0.0,0.0,0.0,0.0,0.0,0.0,0.0,0.0,0.0,0.0,0.0,0.0,0.0,0.0,0.0,0.0,0.0,0.0,0.0,0.0,0.0,0.0,0.0,0.0,0.0,0.0,0.0,0.0,0.0,0.0,0.0,0.0,0.0,0.0,0.0,0.0,0.0,0.0,0.0,0.0,0.0,0.0,0.0,0.0,0.0,0.0,0.0,0.0,0.0,0.0,0.0,0.0,0.0,0.0,0.0,0.0,0.0,0.0,0.0,0.0,0.0,0.0,0.0,0.0,0.0,0.0,0.0,0.0,0.0,0.0,0.0,0.0,0.0,0.0,0.0,0.0,0.0,0.0,0.0,0.0,0.0,0.0,0.0,0.0,0.0,0.0,0.0,0.0,0.0,0.0,0.0,0.0,0.0,0.0,0.0,0.0,0.0,0.0,0.0,0.0,0.0,0.0,0.0,0.0,0.0,0.0,0.0,0.0,0.0,0.0,0.0,0.0,0.0,0.0,0.0,0.0,0.0,0.0,0.0,0.0,0.0,0.0,0.0,0.0,0.0,0.0,0.0,0.0,0.0,0.0,0.0,0.0,0.0,0.0,0.0,0.0,0.0,0.0,0.0,0.0,0.0,0.0,0.0,0.0,0.0,0.0,0.0,0.0,0.0,0.0,0.0,0.0,0.0,0.0,0.0,0.0,0.0,0.0,0.0,0.0,0.0,0.0,0.0,0.0,0.0,0.0,0.0,0.0,0.0,0.0,0.0,0.0,0.0,0.0,0.0,0.0,0.0,0.0,0.0,0.0,0.0,0.0,0.0,0.0,0.0,0.0,0.0,0.0,0.0,0.0,0.0,0.0,0.0,0.0,0.0,0.0,0.0,0.0,0.0,0.0,0.0,0.0,0.0,0.0,0.0,0.0,0.0,0.0,0.0,0.0,0.0,0.0,0.0,0.0,0.0,0.0,0.0,0.0,0.0,0.0,0.0,0.0,0.0,0.0,0.0,0.0,0.0,0.0,0.0,0.0,0.0,0.0,0.0,0.0,0.0,0.0,0.0,0.0,0.0,0.0,0.0,0.0,0.0,0.0,1.7153,0.0,0.0,0.0,1.737,0.0,0.0,0.0,0.0,0.0,0.0,0.0,0.0,0.0,0.0,0.0,0.0,0.0,0.0,0.0,0.0,0.0,0.0,0.0,0.0,0.0,0.0,0.0,0.0,0.0,0.0,0.0,0.0,0.0,0.0,0.0,0.0,0.0,0.0,0.0,0.0,0.0,0.0,0.0,0.0,0.0,0.0,0.0,0.0,0.0,0.0,0.0,0.0,0.0,0.0,0.0,0.0,0.0,0.0,0.0,0.0,0.0,0.0,0.0,0.0,0.0,0.0,0.0,0.0,0.0,0.0,0.0,0.0,0.0,0.0,0.0,0.0,0.0,0.0,0.0,0.0,0.0,0.0,0.0,0.0,0.0,0.0,0.0,0.0,0.0,0.0,0.0,0.0,0.0,0.0,0.0,0.0,0.0,0.0,0.0,0.0,0.0,0.0,0.0,0.0,0.0,0.0,0.0,0.0,0.0,0.0,0.0,0.0,0.0,0.0,1.7358,1.7479,1.7479,1.7479,1.7479,0.0,0.0,0.0,0.0,0.0,0.0,0.0,0.0,0.0,0.0,0.0,0.0,0.0,0.0,0.0,0.0,0.0,0.0,0.0,0.0,0.0,0.0,0.0,0.0,0.0,0.0,0.0,0.0,0.0,0.0,0.0,0.0,0.0,0.0,0.0,0.0,0.0,0.0,0.0,0.0,0.0,0.0,0.0,0.0,0.0,0.0,0.0,0.0,0.0,0.0,0.0,0.0,0.0,0.0,0.0,0.0,0.0,0.0,0.0,0.0,0.0,0.0,0.0,0.0,0.0,0.0,0.0,0.0,0.0,0.0,0.0,0.0,0.0,0.0,0.0,0.0,0.0,0.0,0.0,0.0,0.0,0.0,0.0,0.0,0.0,0.0,0.0,0.0,0.0,0.0,0.0,0.0,0.0,0.0,0.0,0.0,0.0,0.0,0.0,0.0,0.0,0.0,0.0,0.0,0.0,0.0,0.0,0.0,0.0,0.0,0.0,0.0,1.7479,1.7479,1.7479,0.0,0.0,0.0,0.0,0.0,0.0,0.0,0.0,0.0,0.0,0.0,0.0,0.0,0.0,0.0,0.0,0.0,0.0,0.0,0.0,0.0,0.0,0.0,0.0,0.0,0.0,0.0,0.0,0.0,0.0,0.0,0.0,0.0,0.0,0.0,0.0,0.0,0.0,0.0,0.0,0.0,0.0,0.0,0.0,0.0,0.0,0.0,0.0,0.0,0.0,0.0,0.0,0.0,0.0,0.0,0.0,0.0,0.0,0.0,0.0,0.0,0.0,0.0,0.0,0.0,0.0,0.0,0.0,0.0,0.0,0.0,0.0,0.0,0.0,0.0,0.0,0.0,0.0,0.0,0.0,0.0,0.0,0.0,0.0,0.0,0.0,0.0,0.0,0.0,0.0,0.0,0.0,0.0,0.0,0.0,0.0,0.0,0.0,0.0,0.0,0.0,0.0,0.0,0.0,0.0,0.0,0.0,0.0,0.0,0.0,1.7479,1.7479,1.7479,0.0,1.7479,0.0,0.0,0.0,0.0,0.0,0.0,0.0,0.0,0.0,0.0,0.0,0.0,0.0,0.0,0.0,0.0,0.0,0.0,0.0,0.0,0.0,0.0,0.0,0.0,0.0,0.0,0.0,0.0,0.0,0.0,0.0,0.0,0.0,0.0,0.0,0.0,0.0,0.0,0.0,0.0,0.0,0.0,0.0,0.0,0.0,0.0,0.0,0.0,0.0,0.0,0.0,0.0,0.0,0.0,0.0,0.0,0.0,0.0,0.0,0.0,0.0,0.0,0.0,0.0,0.0,0.0,0.0,0.0,0.0,0.0,0.0,0.0,0.0,0.0,0.0,0.0,0.0,0.0,0.0,0.0,0.0,0.0,0.0,0.0,0.0,0.0,0.0,0.0,0.0,0.0,0.0,0.0,0.0,0.0,0.0,0.0,0.0,0.0,0.0,0.0,0.0,0.0,0.0,0.0,0.0,0.0,0.0,0.0,0.0,0.0,1.6703,1.7479,1.7479,1.7479,0.0,0.0,0.0,0.0,0.0,0.0,0.0,0.0,0.0,0.0,0.0,0.0,0.0,0.0,0.0,0.0,0.0,0.0,0.0,0.0,0.0,0.0,0.0,0.0,0.0,0.0,0.0,0.0,0.0,0.0,0.0,0.0,0.0,0.0,0.0,0.0,0.0,0.0,0.0,0.0,0.0,0.0,0.0,0.0,0.0,0.0,0.0,0.0,0.0,0.0,0.0,0.0,0.0,0.0,0.0,0.0,0.0,0.0,0.0,0.0,0.0,0.0,0.0,0.0,0.0,0.0,0.0,0.0,0.0,0.0,0.0,0.0,0.0,0.0,0.0,0.0,0.0,0.0,0.0,0.0,0.0,0.0,0.0,0.0,0.0,0.0,0.0,0.0,0.0,0.0,0.0,0.0,0.0,0.0,0.0,0.0,0.0,0.0,0.0,0.0,0.0,0.0,0.0,0.0,0.0,0.0,0.0,0.0,0.0,0.0,1.5935,1.6585,1.742,1.7479,1.7479,1.7479,0.0,0.0,0.0,0.0,0.0,0.0,0.0,0.0,0.0,0.0,0.0,0.0,0.0,0.0,0.0,0.0,0.0,0.0,0.0,0.0,0.0,0.0,0.0,0.0,0.0,0.0,0.0,0.0,0.0,0.0,0.0,0.0,0.0,0.0,0.0,0.0,0.0,0.0,0.0,0.0,0.0,0.0,0.0,0.0,0.0,0.0,0.0,0.0,0.0,0.0,0.0,0.0,0.0,0.0,0.0,0.0,0.0,0.0,0.0,0.0,0.0,0.0,0.0,0.0,0.0,0.0,0.0,0.0,0.0,0.0,0.0,0.0,0.0,0.0,0.0,0.0,0.0,0.0,0.0,0.0,0.0,0.0,0.0,0.0,0.0,0.0,0.0,0.0,0.0,0.0,0.0,0.0,0.0,0.0,0.0,0.0,0.0,0.0,0.0,0.0,0.0,0.0,0.0,0.0,0.0,0.0,0.0,0.0,1.551,1.6703,1.742,1.7479,1.7479,1.7479,0.0,0.0,0.0,0.0,0.0,0.0,0.0,0.0,0.0,0.0,0.0,0.0,0.0,0.0,0.0,0.0,0.0,0.0,0.0,0.0,0.0,0.0,0.0,0.0,0.0,0.0,0.0,0.0,0.0,0.0,0.0,0.0,0.0,0.0,0.0,0.0,0.0,0.0,0.0,0.0,0.0,0.0,0.0,0.0,0.0,0.0,0.0,0.0,0.0,0.0,0.0,0.0,0.0,0.0,0.0,0.0,0.0,0.0,0.0,0.0,0.0,0.0,0.0,0.0,0.0,0.0,0.0,0.0,0.0,0.0,0.0,0.0,0.0,0.0,0.0,0.0,0.0,0.0,0.0,0.0,0.0,0.0,0.0,0.0,0.0,0.0,0.0,0.0,0.0,0.0,0.0,0.0,0.0,0.0,0.0,0.0,0.0,0.0,0.0,0.0,0.0,0.0,0.0,0.0,0.0,0.0,0.0,0.0,0.0,1.3066,1.4381,1.5865,1.7361,1.6703,1.6644,0.0,0.0,0.0,0.0,0.0,0.0,0.0,0.0,0.0,0.0,0.0,0.0,0.0,0.0,0.0,0.0,0.0,0.0,0.0,0.0,0.0,0.0,0.0,0.0,0.0,0.0,0.0,0.0,0.0,0.0,0.0,0.0,0.0,0.0,0.0,0.0,0.0,0.0,0.0,0.0,0.0,0.0,0.0,0.0,0.0,0.0,0.0,0.0,0.0,0.0,0.0,0.0,0.0,0.0,0.0,0.0,0.0,0.0,0.0,0.0,0.0,0.0,0.0,0.0,0.0,0.0,0.0,0.0,0.0,0.0,0.0,0.0,0.0,0.0,0.0,0.0,0.0,0.0,0.0,0.0,0.0,0.0,0.0,0.0,0.0,0.0,0.0,0.0,0.0,0.0,0.0,0.0,0.0,0.0,0.0,0.0,0.0,0.0,0.0,0.0,0.0,0.0,0.0,0.0,0.0,0.0,0.0,0.0,0.0,1.2946,0.0,1.5332,1.7361,1.6703,1.6644,0.0,0.0,0.0,0.0,0.0,0.0,0.0,0.0,0.0,0.0,0.0,0.0,0.0,0.0,0.0,0.0,0.0,0.0,0.0,0.0,0.0,0.0,0.0,0.0,0.0,0.0,0.0,0.0,0.0,0.0,0.0,0.0,0.0,0.0,0.0,0.0,0.0,0.0,0.0,0.0,0.0,0.0,0.0,0.0,0.0,0.0,0.0,0.0,0.0,0.0,0.0,0.0,0.0,0.0,0.0,0.0,0.0,0.0,0.0,0.0,0.0,0.0,0.0,0.0,0.0,0.0,0.0,0.0,0.0,0.0,0.0,0.0,0.0,0.0,0.0,0.0,0.0,0.0,0.0,0.0,0.0,0.0,0.0,0.0,0.0,0.0,0.0,0.0,0.0,0.0,0.0,0.0,0.0,0.0,0.0,0.0,0.0,0.0,0.0,0.0,0.0,0.0,0.0,0.0,0.0,0.0,0.0,0.0,1.2835,1.5353,1.5402,1.5876,1.7373,1.7303,1.7361,0.0,0.0,0.0,0.0,0.0,0.0,0.0,0.0,0.0,0.0,0.0,0.0,0.0,0.0,0.0,0.0,0.0,0.0,0.0,0.0,0.0,0.0,0.0,0.0,0.0,0.0,0.0,0.0,0.0,0.0,0.0,0.0,0.0,0.0,0.0,0.0,0.0,0.0,0.0,0.0,0.0,0.0,0.0,0.0,0.0,0.0,0.0,0.0,0.0,0.0,0.0,0.0,0.0,0.0,0.0,0.0,0.0,0.0,0.0,0.0,0.0,0.0,0.0,0.0,0.0,0.0,0.0,0.0,0.0,0.0,0.0,0.0,0.0,0.0,0.0,0.0,0.0,0.0,0.0,0.0,0.0,0.0,0.0,0.0,0.0,0.0,0.0,0.0,0.0,0.0,0.0,0.0,0.0,0.0,0.0,0.0,0.0,0.0,0.0,0.0,0.0,0.0,0.0,0.0,0.0,0.0,0.0,0.0,0.0,1.3164,1.217,1.2699,1.4882,1.4929,1.5273,0.0,0.0,0.0,0.0,0.0,0.0,0.0,0.0,0.0,0.0,0.0,0.0,0.0,0.0,0.0,0.0,0.0,0.0,0.0,0.0,0.0,0.0,0.0,0.0,0.0,0.0,0.0,0.0,0.0,0.0,0.0,0.0,0.0,0.0,0.0,0.0,0.0,0.0,0.0,0.0,0.0,0.0,0.0,0.0,0.0,0.0,0.0,0.0,0.0,0.0,0.0,0.0,0.0,0.0,0.0,0.0,0.0,0.0,0.0,0.0,0.0,0.0,0.0,0.0,0.0,0.0,0.0,0.0,0.0,0.0,0.0,0.0,0.0,0.0,0.0,0.0,0.0,0.0,0.0,0.0,0.0,0.0,0.0,0.0,0.0,0.0,0.0,0.0,0.0,0.0,0.0,0.0,0.0,0.0,0.0,0.0,0.0,0.0,0.0,0.0,0.0,0.0,0.0,0.0,0.0,0.0,0.0,0.0,0.0,1.1667,1.1106,1.1813,1.3957,1.4463,1.4993,1.558,0.0,0.0,0.0,0.0,0.0,0.0,0.0,0.0,0.0,0.0,0.0,0.0,0.0,0.0,0.0,0.0,0.0,0.0,0.0,0.0,0.0,0.0,0.0,0.0,0.0,0.0,0.0,0.0,0.0,0.0,0.0,0.0,0.0,0.0,0.0,0.0,0.0,0.0,0.0,0.0,0.0,0.0,0.0,0.0,0.0,0.0,0.0,0.0,0.0,0.0,0.0,0.0,0.0,0.0,0.0,0.0,0.0,0.0,0.0,0.0,0.0,0.0,0.0,0.0,0.0,0.0,0.0,0.0,0.0,0.0,0.0,0.0,0.0,0.0,0.0,0.0,0.0,0.0,0.0,0.0,0.0,0.0,0.0,0.0,0.0,0.0,0.0,0.0,0.0,0.0,0.0,0.0,0.0,0.0,0.0,0.0,0.0,0.0,0.0,0.0,0.0,0.0,0.0,0.0,0.0,0.0,0.0,0.0,1.0887,1.1871,1.278,1.3843,1.5319,1.595,0.0,0.0,0.0,0.0,0.0,0.0,0.0,0.0,0.0,0.0,0.0,0.0,0.0,0.0,0.0,0.0,0.0,0.0,0.0,0.0,0.0,0.0,0.0,0.0,0.0,0.0,0.0,0.0,0.0,0.0,0.0,0.0,0.0,0.0,0.0,0.0,0.0,0.0,0.0,0.0,0.0,0.0,0.0,0.0,0.0,0.0,0.0,0.0,0.0,0.0,0.0,0.0,0.0,0.0,0.0,0.0,0.0,0.0,0.0,0.0,0.0,0.0,0.0,0.0,0.0,0.0,0.0,0.0,0.0,0.0,0.0,0.0,0.0,0.0,0.0,0.0,0.0,0.0,0.0,0.0,0.0,0.0,0.0,0.0,0.0,0.0,0.0,0.0,0.0,0.0,0.0,0.0,0.0,0.0,0.0,0.0,0.0,0.0,0.0,0.0,0.0,0.0,0.0,0.0,0.0,0.0,0.0,0.0,0.0,1.1097,1.1482,1.1711,1.1762,1.2856,1.3879,0.0,0.0,0.0,0.0,0.0,0.0,0.0,0.0,0.0,0.0,0.0,0.0,0.0,0.0,0.0,0.0,0.0,0.0,0.0,0.0,0.0,0.0,0.0,0.0,0.0,0.0,0.0,0.0,0.0,0.0,0.0,0.0,0.0,0.0,0.0,0.0,0.0,0.0,0.0,0.0,0.0,0.0,0.0,0.0,0.0,0.0,0.0,0.0,0.0,0.0,0.0,0.0,0.0,0.0,0.0,0.0,0.0,0.0,0.0,0.0,0.0,0.0,0.0,0.0,0.0,0.0,0.0,0.0,0.0,0.0,0.0,0.0,0.0,0.0,0.0,0.0,0.0,0.0,0.0,0.0,0.0,0.0,0.0,0.0,0.0,0.0,0.0,0.0,0.0,0.0,0.0,0.0,0.0,0.0,0.0,0.0,0.0,0.0,0.0,0.0,0.0,0.0,0.0,0.0,0.0,0.0,0.0,0.0,1.0448,1.075,1.1023,1.112,1.0955,1.2142,1.3291,0.0,0.0,0.0,0.0,0.0,0.0,0.0,0.0,0.0,0.0,0.0,0.0,0.0,0.0,0.0,0.0,0.0,0.0,0.0,0.0,0.0,0.0,0.0,0.0,0.0,0.0,0.0,0.0,0.0,0.0,0.0,0.0,0.0,0.0,0.0,0.0,0.0,0.0,0.0,0.0,0.0,0.0,0.0,0.0,0.0,0.0,0.0,0.0,0.0,0.0,0.0,0.0,0.0,0.0,0.0,0.0,0.0,0.0,0.0,0.0,0.0,0.0,0.0,0.0,0.0,0.0,0.0,0.0,0.0,0.0,0.0,0.0,0.0,0.0,0.0,0.0,0.0,0.0,0.0,0.0,0.0,0.0,0.0,0.0,0.0,0.0,0.0,0.0,0.0,0.0,0.0,0.0,0.0,0.0,0.0,0.0,0.0,0.0,0.0,0.0,0.0,0.0,0.0,0.0,0.0,0.0,0.0,0.0,1.0159,1.0125,1.0662,1.101,1.1076,1.2517,1.3721,0.0,0.0,0.0,0.0,0.0,0.0,0.0,0.0,0.0,0.0,0.0,0.0,0.0,0.0,0.0,0.0,0.0,0.0,0.0,0.0,0.0,0.0,0.0,0.0,0.0,0.0,0.0,0.0,0.0,0.0,0.0,0.0,0.0,0.0,0.0,0.0,0.0,0.0,0.0,0.0,0.0,0.0,0.0,0.0,0.0,0.0,0.0,0.0,0.0,0.0,0.0,0.0,0.0,0.0,0.0,0.0,0.0,0.0,0.0,0.0,0.0,0.0,0.0,0.0,0.0,0.0,0.0,0.0,0.0,0.0,0.0,0.0,0.0,0.0,0.0,0.0,0.0,0.0,0.0,0.0,0.0,0.0,0.0,0.0,0.0,0.0,0.0,0.0,0.0,0.0,0.0,0.0,0.0,0.0,0.0,0.0,0.0,0.0,0.0,0.0,0.0,0.0,0.0,0.0,0.0,0.0,0.0,0.0,1.0167,1.0462,1.0694,1.1002,1.1292,1.263,1.39,0.0,0.0,0.0,0.0,0.0,0.0,0.0,0.0,0.0,0.0,0.0,0.0,0.0,0.0,0.0,0.0,0.0,0.0,0.0,0.0,0.0,0.0,0.0,0.0,0.0,0.0,0.0,0.0,0.0,0.0,0.0,0.0,0.0,0.0,0.0,0.0,0.0,0.0,0.0,0.0,0.0,0.0,0.0,0.0,0.0,0.0,0.0,0.0,1.7756,0.0,0.0,0.0,0.0,0.0,0.0,0.0,0.0,0.0,0.0,0.0,0.0,0.0,0.0,0.0,0.0,0.0,0.0,0.0,0.0,0.0,0.0,0.0,0.0,0.0,0.0,0.0,0.0,0.0,0.0,0.0,0.0,0.0,0.0,0.0,0.0,0.0,0.0,0.0,0.0,0.0,0.0,0.0,0.0,0.0,0.0,0.0,0.0,0.0,0.0,0.0,0.0,0.0,0.0,0.0,0.0,0.0,0.0,0.0,0.9854,1.0075,1.0345,1.064,1.0853,1.246,1.3636,0.0,0.0,0.0,0.0,0.0,0.0,0.0,0.0,0.0,0.0,0.0,0.0,0.0,0.0,0.0,0.0,0.0,0.0,0.0,0.0,0.0,0.0,0.0,0.0,0.0,0.0,0.0,0.0,0.0,0.0,0.0,0.0,0.0,0.0,0.0,0.0,0.0,0.0,0.0,0.0,0.0,0.0,0.0,0.0,0.0,0.0,0.0,0.0,0.0,0.0,0.0,0.0,0.0,0.0,0.0,0.0,0.0,0.0,0.0,0.0,0.0,0.0,0.0,0.0,0.0,0.0,0.0,0.0,0.0,0.0,0.0,0.0,0.0,0.0,0.0,0.0,0.0,0.0,0.0,0.0,0.0,0.0,0.0,0.0,0.0,0.0,0.0,0.0,0.0,0.0,0.0,0.0,0.0,0.0,0.0,0.0,0.0,0.0,0.0,0.0,0.0,0.0,0.0,0.0,0.0,0.0,0.0,0.9416,0.9536,0.9568,0.9966,1.0173,1.0242,1.1945,1.288,1.3075,0.0,0.0,0.0,0.0,0.0,0.0,0.0,0.0,0.0,0.0,0.0,0.0,0.0,0.0,0.0,0.0,0.0,0.0,0.0,0.0,0.0,0.0,0.0,0.0,0.0,0.0,0.0,0.0,0.0,0.0,0.0,0.0,0.0,0.0,0.0,0.0,0.0,0.0,1.7598,1.7574,0.0,0.0,0.0,0.0,0.0,0.0,0.0,0.0,1.7841,0.0,0.0,0.0,0.0,0.0,0.0,0.0,0.0,0.0,0.0,0.0,0.0,0.0,0.0,0.0,0.0,0.0,0.0,0.0,0.0,0.0,0.0,0.0,0.0,0.0,0.0,0.0,0.0,0.0,0.0,0.0,0.0,0.0,0.0,0.0,0.0,0.0,0.0,0.0,0.0,0.0,0.0,0.0,0.0,0.0,0.0,0.0,0.0,0.0,0.0,0.0,0.0,0.0,0.0,0.0,0.0,0.9579,0.9622,0.9731,0.9927,1.0031,1.0191,1.0495,1.0655,1.0829,1.1166,0.0,0.0,0.0,0.0,0.0,0.0,0.0,0.0,0.0,0.0,0.0,0.0,0.0,0.0,0.0,0.0,0.0,0.0,0.0,0.0,0.0,0.0,0.0,0.0,0.0,0.0,0.0,0.0,0.0,0.0,0.0,0.0,0.0,0.0,0.0,0.0,0.0,0.0,0.0,1.7624,1.766,0.0,0.0,0.0,0.0,0.0,0.0,0.0,0.0,1.8577,0.0,0.0,0.0,0.0,0.0,0.0,0.0,0.0,0.0,0.0,0.0,0.0,0.0,0.0,0.0,0.0,0.0,0.0,0.0,0.0,0.0,0.0,0.0,0.0,0.0,0.0,0.0,0.0,0.0,0.0,0.0,0.0,0.0,0.0,0.0,0.0,0.0,0.0,0.0,0.0,0.0,0.0,0.0,0.0,0.0,0.0,0.0,0.0,0.0,0.0,0.0,0.0,0.0,0.0,0.0,0.9661,0.9726,0.984,1.0014,1.0019,1.0097,1.0247,1.0304,1.03,0.0,0.0,0.0,0.0,0.0,0.0,0.0,0.0,0.0,0.0,0.0,0.0,0.0,0.0,0.0,0.0,0.0,0.0,0.0,0.0,0.0,0.0,0.0,0.0,0.0,0.0,0.0,0.0,0.0,0.0,0.0,0.0,0.0,0.0,0.0,0.0,0.0,0.0,0.0,0.0,1.8179,1.8251,1.8638,0.0,0.0,0.0,0.0,0.0,0.0,1.877,1.8722,0.0,0.0,0.0,0.0,0.0,0.0,0.0,0.0,0.0,0.0,0.0,0.0,0.0,0.0,0.0,0.0,0.0,0.0,0.0,0.0,0.0,0.0,0.0,0.0,0.0,0.0,0.0,0.0,0.0,0.0,0.0,0.0,0.0,0.0,0.0,0.0,0.0,0.0,0.0,0.0,0.0,0.0,0.0,0.0,0.0,0.0,0.0,0.0,0.0,0.0,0.0,0.0,0.0,0.0,0.0,0.9737,0.9851,0.997,1.009,1.0095,1.0095,1.009,1.0235,1.0176,0.0,0.0,0.0,0.0,0.0,0.0,0.0,0.0,0.0,0.0,0.0,0.0,0.0,0.0,0.0,0.0,0.0,0.0,0.0,0.0,0.0,0.0,0.0,0.0,0.0,0.0,0.0,0.0,0.0,0.0,0.0,0.0,0.0,0.0,0.0,0.0,0.0,0.0,0.0,0.0,0.0,1.8794,1.9108,1.8927,0.0,0.0,0.0,0.0,1.8927,1.8963,0.0,0.0,0.0,0.0,0.0,0.0,0.0,0.0,0.0,0.0,0.0,0.0,0.0,0.0,0.0,0.0,0.0,0.0,0.0,0.0,0.0,0.0,0.0,0.0,0.0,0.0,0.0,0.0,0.0,0.0,0.0,0.0,0.0,0.0,0.0,0.0,0.0,0.0,0.0,0.0,0.0,0.0,0.0,0.0,0.0,0.0,0.0,0.0,0.0,0.0,0.0,0.0,0.0,0.0,0.0,0.0,0.9976,1.0101,1.0221,1.0335,1.0346,1.0346,1.034,1.0014,0.9835,0.0,0.0,0.0,0.0,0.0,0.0,0.0,0.0,0.0,0.0,0.0,0.0,0.0,0.0,0.0,0.0,0.0,0.0,0.0,0.0,0.0,0.0,0.0,0.0,0.0,0.0,0.0,0.0,0.0,0.0,0.0,0.0,0.0,0.0,0.0,0.0,0.0,0.0,0.0,0.0,0.0,1.8867,1.9415,1.9193,1.9108,0.0,0.0,1.9748,1.9748,1.9941,0.0,0.0,0.0,0.0,0.0,0.0,0.0,0.0,0.0,0.0,0.0,0.0,0.0,0.0,0.0,0.0,0.0,0.0,0.0,0.0,0.0,0.0,0.0,0.0,0.0,0.0,0.0,0.0,0.0,0.0,0.0,0.0,0.0,0.0,0.0,0.0,0.0,0.0,0.0,0.0,0.0,0.0,0.0,0.0,0.0,0.0,0.0,0.0,0.0,0.0,0.0,0.0,0.0,0.0,0.0,0.9916,1.0019,1.021,1.0335,1.0384,1.0384,1.0384,1.0384,1.0095,0.9943,0.0,0.0,0.0,0.0,0.0,0.0,0.0,0.0,0.0,0.0,0.0,0.0,0.0,0.0,0.0,0.0,0.0,0.0,0.0,0.0,0.0,0.0,0.0,0.0,0.0,0.0,0.0,0.0,0.0,0.0,0.0,0.0,0.0,0.0,0.0,0.0,0.0,0.0,0.0,0.0,0.0,0.0,2.0098,1.9929,0.0,0.0,0.0,2.0279,2.0134,0.0,0.0,0.0,0.0,0.0,0.0,0.0,0.0,0.0,0.0,0.0,0.0,0.0,0.0,0.0,0.0,0.0,0.0,0.0,0.0,0.0,0.0,0.0,0.0,0.0,0.0,0.0,0.0,0.0,0.0,0.0,0.0,0.0,0.0,0.0,0.0,0.0,0.0,0.0,0.0,0.0,0.0,0.0,0.0,0.0,0.0,0.0,0.0,0.0,0.0,0.0,0.0,0.0,0.0,0.0,0.0,0.0,1.0117,1.0351,1.0476,1.0471,1.0476,1.0476,1.0471,1.0242,0.0,0.0,0.0,0.0,0.0,0.0,0.0,0.0,0.0,0.0,0.0,0.0,0.0,0.0,0.0,0.0,0.0,0.0,0.0,0.0,0.0,0.0,0.0,0.0,0.0,0.0,0.0,1.7853,0.0,0.0,0.0,0.0,0.0,0.0,0.0,0.0,0.0,0.0,0.0,0.0,0.0,0.0,2.0448,2.0711,2.0496,2.046,0.0,0.0,2.0617,2.0565,2.0859,2.0979,0.0,0.0,0.0,0.0,0.0,0.0,0.0,0.0,0.0,0.0,0.0,0.0,0.0,0.0,0.0,0.0,0.0,0.0,0.0,0.0,0.0,0.0,0.0,0.0,0.0,0.0,0.0,0.0,0.0,0.0,0.0,0.0,0.0,0.0,0.0,0.0,0.0,0.0,0.0,0.0,0.0,0.0,0.0,0.0,0.0,0.0,0.0,0.0,0.0,0.0,0.0,0.0,0.0,0.0,1.0248,1.0367,1.0596,1.0715,1.0715,1.0715,1.0715,1.071,1.0487,1.0307,0.0,0.0,0.0,0.0,0.0,0.0,0.0,0.0,0.0,0.0,0.0,0.0,0.0,0.0,0.0,0.0,0.0,0.0,0.0,0.0,0.0,0.0,0.0,0.0,0.0,0.0,0.0,0.0,0.0,0.0,0.0,0.0,0.0,0.0,0.0,0.0,0.0,0.0,0.0,0.0,0.0,2.0653,2.0665,2.0653,2.0738,0.0,2.0822,2.082,2.0979,2.1257,2.1269,2.0726,0.0,0.0,0.0,0.0,0.0,0.0,0.0,0.0,0.0,0.0,0.0,0.0,0.0,0.0,0.0,0.0,0.0,0.0,0.0,0.0,0.0,0.0,0.0,0.0,0.0,0.0,0.0,0.0,0.0,0.0,0.0,0.0,0.0,0.0,0.0,0.0,0.0,0.0,0.0,0.0,0.0,0.0,0.0,0.0,0.0,0.0,0.0,0.0,0.0,0.0,0.0,0.0,0.0,1.0481,1.0601,1.084,1.096,1.096,1.096,1.0927,1.0851,1.0688,1.0514,0.0,0.0,0.0,0.0,0.0,0.0,0.0,0.0,0.0,0.0,0.0,0.0,0.0,0.0,0.0,0.0,0.0,0.0,0.0,0.0,0.0,0.0,0.0,0.0,0.0,0.0,0.0,0.0,1.9108,1.9229,1.941,0.0,0.0,0.0,0.0,0.0,0.0,0.0,0.0,0.0,0.0,2.1028,2.1366,2.1269,0.0,0.0,2.1474,2.139,2.1329,2.1547,2.1535,2.1062,2.0907,0.0,0.0,0.0,0.0,0.0,0.0,0.0,0.0,0.0,0.0,0.0,0.0,0.0,0.0,0.0,0.0,0.0,0.0,0.0,0.0,0.0,0.0,0.0,0.0,0.0,0.0,0.0,0.0,0.0,0.0,0.0,0.0,0.0,0.0,0.0,0.0,0.0,0.0,0.0,0.0,0.0,0.0,0.0,0.0,0.0,0.0,0.0,0.0,0.0,0.0,0.0,0.0,1.065,1.0737,1.0976,1.1107,1.1107,1.1107,1.1063,1.0976,1.0889,1.0737,0.0,0.0,0.0,0.0,0.0,0.0,0.0,0.0,0.0,0.0,0.0,0.0,0.0,0.0,0.0,0.0,0.0,0.0,0.0,0.0,0.0,0.0,0.0,0.0,0.0,0.0,0.0,0.0,1.9664,1.9784,1.9977,0.0,0.0,0.0,0.0,0.0,0.0,0.0,0.0,0.0,0.0,2.1486,2.1716,2.1667,2.1728,2.1848,2.1946,2.1836,2.1728,2.18,2.174,2.1437,0.0,0.0,0.0,0.0,0.0,0.0,0.0,0.0,0.0,0.0,0.0,0.0,0.0,0.0,0.0,0.0,0.0,0.0,0.0,0.0,0.0,0.0,0.0,0.0,0.0,0.0,0.0,1.4194,0.0,0.0,1.2081,0.0,0.0,0.0,0.0,0.0,0.0,0.0,0.0,0.0,0.0,0.0,0.0,0.0,0.0,0.0,0.0,0.0,0.0,0.0,0.0,0.0,0.0,1.0737,1.0742,1.0987,1.1112,1.1112,1.1107,1.1107,1.1101,1.1096,1.0982,1.0737,0.0,0.0,0.0,0.0,0.0,0.0,0.0,0.0,0.0,0.0,0.0,0.0,0.0,0.0,0.0,0.0,0.0,0.0,0.0,0.0,0.0,0.0,0.0,0.0,0.0,0.0,1.9881,2.011,2.0255,0.0,0.0,0.0,0.0,0.0,0.0,0.0,0.0,0.0,2.1016,2.1595,2.1764,2.1535,2.1704,2.1873,2.1958,2.1958,2.1957,2.2198,2.2029,2.1934,0.0,0.0,0.0,0.0,0.0,0.0,0.0,0.0,0.0,0.0,0.0,0.0,0.0,0.0,0.0,0.0,0.0,0.0,0.0,0.0,0.0,0.0,0.0,0.0,0.0,0.0,0.0,1.3432,1.3354,0.0,0.0,0.0,0.0,0.0,0.0,0.0,0.0,0.0,0.0,0.0,1.303,1.3078,0.0,0.0,0.0,0.0,0.0,0.0,0.0,0.0,0.0,0.0,0.0,0.0,1.09,1.0987,1.1215,1.1335,1.1335,1.1335,1.1297,1.1215,1.1215,1.1107,1.0867,0.0,0.0,0.0,0.0,0.0,0.0,0.0,0.0,0.0,0.0,0.0,0.0,0.0,0.0,0.0,0.0,0.0,0.0,0.0,0.0,0.0,0.0,0.0,0.0,0.0,2.0146,0.0,0.0,0.0,0.0,0.0,0.0,0.0,0.0,0.0,0.0,0.0,2.1028,2.1305,2.1498,2.1643,2.1728,2.2031,2.2261,0.0,0.0,0.0,0.0,0.0,0.0,0.0,0.0,0.0,0.0,0.0,0.0,0.0,0.0,2.0883,2.0702,2.0735,2.0665,2.0665,0.0,0.0,0.0,0.0,0.0,0.0,0.0,0.0,0.0,0.0,0.0,0.0,0.0,0.0,1.3085,1.3125,1.3091,0.0,0.0,0.0,0.0,0.0,0.0,0.0,0.0,1.3356,1.3431,1.3478,1.3478,1.3478,0.0,1.3424,1.3083,0.0,0.0,0.0,0.0,0.0,0.0,0.0,0.0,1.0916,1.1041,1.127,1.15,1.1543,1.1543,1.1505,1.134,1.1291,1.1199,1.1047,1.0813,1.0628,0.0,0.0,0.0,0.0,0.0,0.0,0.0,0.0,0.0,0.0,0.0,0.0,0.0,0.0,0.0,0.0,0.0,0.0,0.0,0.0,0.0,0.0,0.0,2.0593,0.0,0.0,0.0,0.0,0.0,0.0,0.0,0.0,0.0,2.128,2.1281,2.1438,2.1716,2.1836,2.1921,2.1993,0.0,0.0,0.0,0.0,0.0,0.0,0.0,2.2247,2.2174,2.2162,2.2186,2.2259,2.22,2.2005,2.2005,0.0,0.0,2.1293,2.1209,2.128,2.128,2.0931,2.075,2.0919,2.0822,2.075,0.0,0.0,0.0,0.0,0.0,0.0,0.0,0.0,1.3336,1.3308,0.0,1.3329,0.0,0.0,0.0,0.0,1.3193,1.3329,0.0,0.0,1.3688,1.3763,1.3641,1.3634,1.3634,1.3634,1.3498,1.3431,1.3431,1.3022,0.0,0.0,0.0,0.0,0.0,0.0,1.0813,1.0949,1.1183,1.1351,1.1465,1.1471,1.1554,1.1465,1.1351,1.1286,1.1275,1.1058,1.0873,1.0748,1.053,0.0,0.0,0.0,0.0,0.0,0.0,0.0,0.0,0.0,0.0,0.0,0.0,0.0,0.0,0.0,0.0,0.0,0.0,0.0,0.0,2.0497,0.0,0.0,0.0,0.0,0.0,0.0,0.0,0.0,0.0,0.0,2.1631,2.1789,2.1957,2.2297,0.0,0.0,0.0,0.0,2.3048,2.2742,2.2988,2.3145,2.3157,2.3145,2.3152,2.3327,0.0,0.0,2.3206,2.2745,2.2355,2.2406,2.2549,2.2452,2.1728,2.1607,2.1559,2.1535,2.1547,2.1523,2.1523,2.1547,2.1547,1.3308,0.0,0.0,0.0,0.0,1.3254,1.3302,1.3336,1.3383,1.3376,1.3342,1.3376,0.0,0.0,0.0,0.0,0.0,0.0,1.3458,1.3566,1.3648,1.3722,1.3777,1.3777,1.3838,1.3939,1.3899,1.3933,1.4048,1.4055,1.327,1.177,0.0,0.0,0.0,0.0,1.1177,1.1308,1.1542,1.1677,1.171,1.1716,1.1716,1.1716,1.1596,1.1531,1.1531,1.1302,1.1118,1.1003,1.0851,0.0,0.0,0.0,0.0,0.0,0.0,0.0,0.0,0.0,0.0,0.0,0.0,0.0,0.0,0.0,0.0,0.0,0.0,0.0,1.8883,2.0563,2.1294,0.0,0.0,0.0,0.0,0.0,0.0,0.0,0.0,0.0,2.2624,2.2237,2.1969,0.0,0.0,2.2491,2.26,2.2995,2.3369,2.349,2.3575,0.0,2.3864,2.3731,2.3647,2.364,2.3808,2.3985,2.3913,2.3768,2.3671,2.3659,2.3575,2.3418,2.3212,2.2838,2.2624,2.2455,2.2539,2.26,2.2443,2.2527,2.2585,1.3844,1.3736,1.3505,1.3437,1.3492,1.3553,1.3614,1.3675,1.3729,1.3722,1.3668,1.3668,1.36,1.3492,1.3492,0.0,0.0,0.0,1.3749,1.3899,1.3953,1.4027,1.4109,1.417,1.4245,1.4333,1.4272,1.4292,1.438,1.4353,1.372,1.2539,0.0,1.1515,1.0954,1.1161,1.1335,1.146,1.1645,1.177,1.1819,1.1819,1.1819,1.1819,1.1748,1.1705,1.1705,1.152,1.1362,1.1248,1.1079,1.0873,0.0,0.0,0.0,0.0,0.0,0.0,0.0,0.0,0.0,0.0,0.0,1.5427,1.3929,0.0,0.0,0.0,1.7439,1.8613,1.8895,2.0692,0.0,0.0,0.0,0.0,0.0,0.0,0.0,2.2017,2.244,2.2887,2.3297,2.2947,2.2754,2.3007,2.3043,2.3104,2.3261,0.0,2.3892,2.413,2.4073,2.4214,2.4359,2.4359,2.4359,2.4456,2.4504,2.4552,2.4552,2.4386,2.4395,2.4371,2.4263,2.4154,2.4154,2.3888,2.3502,2.3068,2.3007,2.306,2.2915,2.3012,2.3121,1.4312,1.4251,1.3702,1.3559,1.3695,1.3738,1.3953,1.4102,1.4238,1.4217,1.4095,1.4089,1.3939,1.3682,1.3682,0.0,1.4089,1.4089,1.4163,1.4306,1.4434,1.4489,1.4482,1.4618,1.4685,1.4679,1.4543,1.4482,1.4475,1.4238,1.3928,1.341,1.311,1.2379,1.1352,1.1352,1.1335,1.1543,1.1574,1.1694,1.1819,1.1819,1.1824,1.1835,1.1824,1.1824,1.183,1.1716,1.1601,1.1487,1.1259,1.1074,1.0944,0.0,0.0,0.0,0.0,0.0,0.0,0.0,0.0,0.0,0.0,0.0,0.0,0.0,0.0,1.716,1.8785,0.0,1.9229,2.0877,0.0,0.0,0.0,2.2237,2.2733,2.2742,2.2935,2.3351,0.0,0.0,2.3796,2.3832,2.3928,2.4299,2.4275,2.4238,2.4181,2.4468,2.4661,2.4649,2.4685,2.4685,2.4721,2.4807,2.5011,2.5289,2.5156,2.4987,2.4963,2.4878,2.4709,2.4709,2.4697,2.4673,2.4661,2.4601,2.4395,2.3568,2.3357,2.3266,2.3266,2.3278,2.329,1.4401,1.4292,1.4143,1.4109,1.4143,1.4177,1.4211,1.4251,1.4285,1.4278,1.4251,1.4245,1.4204,1.4143,1.4143,1.4177,1.4245,1.4245,1.4265,1.4299,1.434,1.4285,1.4183,1.4217,1.4231,1.4224,1.419,1.4238,1.4346,1.4387,1.414,1.37,1.3384,1.2687,1.1756,1.1488,1.133,1.1543,1.1574,1.1694,1.1813,1.1819,1.1862,1.1944,1.1862,1.1857,1.1944,1.1835,1.1759,1.1732,1.1504,1.1313,1.1194,1.0851,0.0,0.0,0.0,0.0,0.0,0.0,0.0,0.0,0.0,1.4477,1.2557,0.0,1.5471,0.0,1.8445,1.9796,1.9116,2.1295,0.0,0.0,2.2365,2.2899,2.3225,2.3442,2.3611,2.3652,2.3925,2.4142,2.4407,2.4444,2.4542,2.5059,2.4625,2.4299,2.4504,2.477,2.4855,2.4963,2.5023,2.524,2.5156,2.5289,2.5288,2.5421,2.5385,2.5349,2.5349,2.5301,2.524,2.524,2.524,2.5083,2.4987,2.477,2.4516,2.4073,2.4154,2.4178,2.3997,2.3937,2.3937,1.4767,1.4692,1.4692,1.4692,1.4672,1.4414,1.4299,1.4299,1.4299,1.4299,1.4299,1.4231,1.4197,1.4204,1.4197,1.4238,1.4306,1.4367,1.4394,1.4401,1.4536,1.455,1.4475,1.4536,1.4563,1.4563,1.4563,1.4611,1.4692,1.4774,1.4624,1.4441,1.4002,1.3459,1.2845,1.1927,1.1547,1.1618,1.1732,1.1851,1.1971,1.1976,1.1982,1.1982,1.1879,1.1851,1.1911,1.1748,1.1683,1.1726,1.1558,1.1489,1.1363,1.1442,1.1535,0.0,0.0,0.0,0.0,0.0,0.0,0.0,0.0,0.0,0.0,0.0,1.5546,1.5163,1.8485,2.0269,1.9243,2.1727,2.3224,2.2717,2.3241,2.3671,2.3868,2.4025,2.419,2.419,2.4432,2.4649,2.471,2.4914,2.5096,2.5397,2.5156,2.4951,2.4987,2.5132,2.5132,2.5144,2.5446,2.5663,2.5759,2.5784,2.5784,2.5784,2.5784,2.5784,2.5784,2.5687,2.5615,2.5517,2.5518,2.5312,2.524,2.5096,2.4939,2.4842,2.4878,2.4745,2.4109,2.3989,2.3977,1.5201,1.5181,1.5181,1.5174,1.512,1.4604,1.4394,1.4414,1.4414,1.4414,1.4407,1.4272,1.4217,1.4211,1.4211,1.4285,1.4421,1.4543,1.4597,1.4611,1.4875,1.4991,1.4977,1.5099,1.5147,1.5126,1.5126,1.5126,1.5126,1.5126,1.5126,1.512,1.444,1.4132,1.3925,1.2552,1.1803,1.1775,1.1884,1.1993,1.2102,1.2085,1.2036,1.1944,1.1846,1.1803,1.1813,1.1601,1.1525,1.1623,1.1509,1.1395,1.1313,1.2015,1.2573,0.0,1.3517,0.0,0.0,0.0,0.0,0.0,0.0,0.0,0.0,1.6995,1.6178,1.5286,1.8846,2.0677,1.9612,2.197,2.3695,2.3992,2.4133,2.4335,2.4589,2.4661,2.4697,2.4721,2.4939,2.5023,2.5071,2.5349,2.5494,2.5566,2.5663,2.5663,2.553,2.5518,2.5554,2.5542,2.5699,2.5856,2.5989,2.6061,2.6061,2.6085,2.6049,2.6122,2.6061,2.5892,2.5759,2.5747,2.5578,2.5421,2.5397,2.5373,2.5349,2.5252,2.5228,2.4927,2.4277,2.4037,2.3916,1.5296,1.5181,1.5181,1.5113,1.4997,1.4889,1.4909,1.5011,1.5011,1.5018,1.5018,1.4984,1.497,1.497,1.497,1.4991,1.5018,1.5045,1.5059,1.5059,1.5113,1.5079,1.4977,1.4997,1.4943,1.4828,1.4821,1.4821,1.4821,1.4821,1.4821,1.4729,1.397,1.348,1.337,0.0,0.0,0.0,1.1639,1.1716,1.1732,1.1639,1.1629,1.1699,1.1683,0.0,1.1808,1.1677,1.1612,1.1629,1.1427,0.0,0.0,0.0,0.0,0.0,0.0,0.0,0.0,0.0,0.0,0.0,1.6027,1.6367,1.6953,1.7729,1.8163,1.8037,1.9368,2.012,1.9957,2.1669,2.282,2.2959,2.3713,2.4335,2.4589,2.483,2.4963,2.5264,2.5252,2.5446,2.5615,2.5735,2.5832,2.5965,2.5928,2.582,2.5759,2.5892,2.6049,2.6061,2.5916,2.5759,2.5602,2.5627,2.5687,2.559,2.5578,2.5615,2.5639,2.559,2.5518,2.553,2.5384,2.5361,2.5095,2.5035,2.5083,2.4842,2.4806,2.4854,2.5071,2.4963,2.4735,1.5479,1.5411,1.5404,1.5364,0.0,1.5303,1.5343,1.5391,1.5174,1.5079,1.5072,1.4997,1.4964,1.4964,1.4964,1.5004,1.5086,1.5147,1.5221,1.5296,1.5296,1.5255,1.5187,1.5106,1.5038,1.4957,1.4957,1.4957,1.4957,1.4957,1.4997,1.5072,1.4319,1.3983,1.3952,1.3016,1.23,1.1721,1.1781,1.1841,1.1895,1.1841,1.1808,1.1808,1.1754,0.0,0.0,0.0,0.0,0.0,0.0,0.0,0.0,1.1928,0.0,1.3455,1.3934,1.4456,1.5317,1.5996,1.6641,1.7231,1.7222,1.7028,1.667,1.7293,1.7763,1.8043,1.88,1.9708,2.0594,2.2299,2.331,2.3404,2.4365,2.5071,2.5216,2.5458,2.5627,2.5627,2.5639,2.5651,2.5639,2.5639,2.5687,2.5808,2.5844,2.5832,2.582,2.582,2.5868,2.6001,2.5928,2.5844,2.5832,2.582,2.5808,2.582,2.582,2.582,2.582,2.5723,2.5627,2.5615,2.553,2.5385,2.5277,2.524,2.5192,2.5071,2.5023,2.5096,2.5373,2.512,2.4759,1.5798,1.5798,1.5791,1.5778,1.5757,1.5757,1.5757,1.5723,0.0,0.0,0.0,1.4957,1.4896,1.4804,1.4896,1.497,1.5092,1.5215,1.533,1.5452,1.5452,1.5452,1.5445,1.5323,1.5262,1.5262,1.5262,1.5262,1.5262,1.5262,1.5323,1.5343,1.4872,1.4642,1.4461,1.3594,1.2769,1.2102,1.2063,1.2102,1.2199,1.2161,1.2091,1.1987,1.1879,1.1819,1.1819,1.1699,1.1683,1.1775,1.1688,1.1601,1.1609,1.2314,1.3072,1.368,1.4606,1.5451,1.6282,1.7563,1.83,1.8509,1.8518,1.8113,1.7221,1.7067,1.7188,1.7801,1.8466,1.9514,2.0855,2.2654,2.3756,2.3767,2.4843,2.5675,2.5699,2.5928,2.594,2.5796,2.5735,2.5699,2.5554,2.553,2.553,2.559,2.5759,2.5832,2.5808,2.5735,2.5711,2.582,2.5844,2.5904,2.6073,2.6109,2.6158,2.617,2.6182,2.6218,2.6182,2.6001,2.5844,2.5808,2.5615,2.5458,2.5348,2.5336,2.5348,2.5348,2.5348,2.5348,2.5312,2.5096,2.483,1.6395,1.6395,1.6395,1.6327,1.6218,1.6218,1.6218,1.6178,1.5737,1.5547,1.554,1.552,1.5417,1.5513,1.5513,1.5527,1.5547,1.5567,1.5588,1.5608,1.5608,1.5608,1.5601,1.5588,1.5574,1.5574,1.5574,1.5574,1.5574,1.5567,1.5588,1.5505,1.5118,1.4454,1.3594,1.292,1.2509,1.2455,1.2357,1.2314,1.242,1.2123,1.2009,1.1987,1.1884,1.1819,1.1819,1.1705,1.1554,1.1661,1.1645,1.1677,1.1764,1.2002,1.3236,1.5694,1.5843,1.6829,1.9057,1.9337,1.9275,1.9145,1.9126,1.9407,1.9832,1.8822,1.852,1.966,1.9631,1.977,1.9914,2.1366,2.2379,2.2452,2.4001,2.5083,2.5132,2.5446,2.5602,2.5566,2.5494,2.5602,2.5747,2.5759,2.5832,2.6001,2.5953,2.5844,2.588,2.5989,2.6013,2.588,2.5832,2.5844,2.5928,2.5892,2.6001,2.6194,2.6218,2.6218,2.6218,2.6025,2.5868,2.5832,2.5663,2.5506,2.547,2.5348,2.5482,2.5506,2.542,2.5408,2.5396,2.5349,2.5289,1.6517,1.6517,1.6517,1.6483,1.6429,1.6422,1.6422,1.6408,1.6205,1.6022,1.5866,1.571,1.5635,1.5635,1.5635,1.5683,1.5757,1.5757,1.5798,1.5872,1.5798,1.5757,1.575,1.5676,1.5635,1.5635,1.5635,1.5635,1.5635,1.5635,1.5683,1.5757,1.5342,1.4594,1.3511,1.3319,1.3023,1.2721,1.2547,1.2455,1.2449,1.2346,1.2286,1.2286,1.2232,1.2178,1.2112,1.2053,1.1993,1.1933,1.1862,1.1851,1.1906,1.2725,1.3726,1.5103,1.5843,1.6795,1.8001,1.881,1.9598,2.0229,1.9587,1.9554,2.0847,1.8911,1.8025,1.8732,1.8661,1.8972,1.9683,2.1306,2.2352,2.2363,2.4194,2.5372,2.5494,2.5699,2.5868,2.5856,2.5735,2.5747,2.6013,2.5916,2.5928,2.6158,2.6097,2.6037,2.6037,2.6146,2.6194,2.6061,2.6049,2.6037,2.6037,2.6037,2.6085,2.6206,2.6218,2.6218,2.6218,2.6097,2.6061,2.6037,2.5928,2.5868,2.5856,2.5856,2.5856,2.5868,2.5868,2.5832,2.5699,2.5542,2.5446,1.6625,1.6625,1.6625,1.6625,1.6625,1.6625,1.6625,1.6619,1.6585,1.6442,1.6212,1.5947,1.5839,1.5839,1.5839,1.59,1.5995,1.6001,1.6069,1.6157,1.6056,1.6001,1.5995,1.5886,1.5839,1.5839,1.5839,1.5839,1.5839,1.5839,1.5893,1.6008,1.5618,1.4975,1.4178,1.4078,1.3676,1.3156,1.2957,1.2738,1.2613,1.2591,1.2574,1.2574,1.2547,1.2493,1.2401,1.2368,1.2308,1.2216,1.2096,1.2031,1.2119,1.3049,1.3799,1.4153,1.5618,1.6781,1.7393,1.8526,1.9811,2.0934,1.9995,1.9718,2.0666,1.9167,1.8122,1.8313,1.855,1.8918,2.01,2.1736,2.2837,2.2935,2.4656,2.5805,2.5928,2.6097,2.6218,2.6194,2.6037,2.6001,2.6122,2.6037,2.6013,2.617,2.6266,2.6315,2.6315,2.6351,2.6411,2.6375,2.6315,2.6254,2.6291,2.6315,2.6351,2.6375,2.6423,2.6447,2.6435,2.6387,2.6315,2.6303,2.6242,2.6182,2.6194,2.6194,2.6182,2.6158,2.6158,2.6122,2.5953,2.5784,2.5566,1.6937,1.6937,1.6937,1.6937,1.6931,1.6931,1.6924,1.691,1.6795,1.672,1.6653,1.651,1.6429,1.6442,1.6422,1.6422,1.6435,1.6456,1.6456,1.6463,1.6469,1.6456,1.6435,1.6429,1.6442,1.6422,1.6408,1.6381,1.6388,1.6408,1.6435,1.6361,1.5966,1.5558,1.5462,1.5054,1.4536,1.4025,1.3886,1.3463,1.2857,1.2748,1.2689,1.2689,1.2591,1.2531,1.2515,1.2411,1.2352,1.233,1.2221,1.2156,1.2245,1.2328,1.2923,1.4104,1.559,1.7461,1.9789,2.0312,2.0359,2.0511,2.0458,2.0368,2.0639,2.0327,2.0411,2.0564,2.0536,2.0396,2.0834,2.2258,2.3268,2.3334,2.4979,2.6182,2.617,2.6206,2.6218,2.6218,2.617,2.6194,2.623,2.623,2.6218,2.6291,2.6484,2.6604,2.6616,2.6749,2.687,2.6834,2.6568,2.6387,2.6532,2.6604,2.6665,2.6858,2.693,2.6894,2.6834,2.6713,2.6503,2.6568,2.6423,2.6315,2.6278,2.6218,2.6254,2.6327,2.6303,2.6218,2.6182,2.6122,2.5953,1.7243,1.7243,1.7243,1.7188,1.71,1.7019,1.6978,1.6971,1.691,1.6883,1.6883,1.6822,1.6693,1.6524,1.6517,1.6517,1.6517,1.6517,1.6517,1.6517,1.6517,1.6517,1.6517,1.6517,1.6517,1.6517,1.6517,1.6524,1.6517,1.6524,1.6517,1.6524,1.6319,1.6019,1.5712,1.5507,1.4988,1.4168,1.4013,1.3655,1.3182,1.2912,1.2814,1.2808,1.277,1.2705,1.264,1.2585,1.2498,1.2368,1.2303,1.2248,1.2267,1.3016,1.3739,1.4338,1.6569,1.8391,1.952,2.0354,2.0913,2.0913,2.0913,2.0913,2.0913,2.0913,2.0998,2.1093,2.0866,2.0667,2.0758,2.2278,2.3375,2.3642,2.506,2.6218,2.6218,2.6218,2.6218,2.6218,2.6218,2.6291,2.6447,2.6604,2.6689,2.6701,2.681,2.6846,2.687,2.6966,2.7015,2.7015,2.6822,2.6761,2.6846,2.687,2.693,2.6991,2.7027,2.7027,2.7015,2.6966,2.687,2.6858,2.6737,2.6665,2.6725,2.6701,2.6701,2.6653,2.6532,2.646,2.6472,2.6327,2.6122,1.7419,1.7419,1.7419,1.7358,1.7249,1.7148,1.71,1.7093,1.706,1.7039,1.7032,1.6998,1.6863,1.6666,1.6646,1.6646,1.6646,1.6646,1.6646,1.6646,1.6646,1.6646,1.6646,1.6646,1.6646,1.6646,1.6653,1.6653,1.6646,1.6646,1.6646,1.6646,1.6646,1.6446,1.6137,1.6034,1.5621,1.4789,1.4656,1.422,1.3568,1.3294,1.3173,1.2939,1.2906,1.2846,1.2759,1.2721,1.2629,1.246,1.239,1.2314,1.2321,1.3228,1.414,1.5073,1.704,1.8727,1.9471,2.0603,2.1168,2.1168,2.1168,2.1168,2.1168,2.1168,2.1168,2.1149,2.0894,2.0733,2.0896,2.2411,2.3569,2.3748,2.5267,2.6347,2.6447,2.6435,2.646,2.6447,2.6496,2.6508,2.6725,2.6894,2.6991,2.6991,2.7015,2.7027,2.7027,2.7027,2.7027,2.7039,2.7075,2.7099,2.7051,2.7015,2.7027,2.7027,2.7027,2.7027,2.7027,2.7027,2.7027,2.6954,2.7015,2.7015,2.693,2.6966,2.7003,2.6991,2.687,2.6725,2.6749,2.6556,2.6484,1.7419,1.7426,1.7426,1.7426,1.7405,1.7392,1.7392,1.7358,1.7243,1.7182,1.7168,1.7053,1.6978,1.6958,1.6951,1.6958,1.6951,1.6937,1.6931,1.6931,1.6937,1.6951,1.6965,1.6965,1.6951,1.6917,1.6917,1.6924,1.6937,1.6951,1.6965,1.6951,1.6931,1.6944,1.6833,1.6826,1.6636,1.5962,1.5755,1.5283,1.4336,1.4117,1.3786,1.3176,1.2955,1.289,1.2868,1.277,1.2694,1.2683,1.2482,1.2362,1.2341,1.2427,1.3676,1.6104,1.6752,1.816,2.051,2.1075,2.1168,2.1168,2.1168,2.1168,2.1168,2.1168,2.1168,2.1168,2.1121,2.1102,2.1369,2.2882,2.3989,2.4274,2.5764,2.6773,2.6966,2.6906,2.6979,2.6954,2.6918,2.6918,2.6979,2.7015,2.7051,2.7051,2.7051,2.7063,2.7111,2.7075,2.7087,2.7135,2.7244,2.7329,2.7099,2.7148,2.7123,2.7135,2.7208,2.7087,2.7039,2.7027,2.7051,2.7051,2.7075,2.7087,2.7051,2.7027,2.7027,2.7015,2.7015,2.6954,2.6918,2.6979,2.6906,1.7704,1.7697,1.7602,1.7568,1.7555,1.7467,1.7419,1.7412,1.7365,1.7338,1.7331,1.7283,1.7263,1.7256,1.7161,1.7066,1.6985,1.6978,1.6978,1.6978,1.6978,1.6978,1.6978,1.6978,1.6978,1.6978,1.6978,1.6978,1.6978,1.6978,1.6978,1.6978,1.6978,1.6978,1.6978,1.6978,1.6663,1.6124,1.6073,1.5739,1.4988,1.4776,1.4473,1.3911,1.3311,1.3004,1.3004,1.289,1.2786,1.271,1.2618,1.2547,1.2562,1.3304,1.4134,1.5275,1.704,1.8625,1.9666,2.0696,2.1168,2.1168,2.1168,2.1168,2.1168,2.1168,2.1168,2.1168,2.1168,2.1446,2.2165,2.3352,2.4361,2.5103,2.6209,2.7039,2.7027,2.7027,2.7027,2.7027,2.7027,2.7027,2.7063,2.7027,2.7099,2.7244,2.728,2.7341,2.7486,2.7534,2.7498,2.7534,2.7606,2.7642,2.757,2.7546,2.7546,2.7546,2.7546,2.7546,2.751,2.7473,2.7486,2.7317,2.728,2.7232,2.7208,2.7099,2.7087,2.7063,2.7063,2.7027,2.7027,2.7027,2.7027,1.786,1.7846,1.7758,1.7717,1.7704,1.7609,1.7561,1.7555,1.7514,1.7494,1.7487,1.7446,1.7419,1.7405,1.7311,1.7222,1.7114,1.7026,1.6978,1.6978,1.6978,1.6978,1.6978,1.6978,1.6978,1.6978,1.6978,1.6978,1.6978,1.6978,1.6978,1.6978,1.6978,1.6978,1.6978,1.6978,1.6768,1.6453,1.6348,1.6131,1.5592,1.5413,1.5155,1.4603,1.3905,1.3349,1.3075,1.2955,1.2852,1.277,1.2727,1.2656,1.2634,1.3849,1.4774,1.535,1.7538,1.9192,1.9666,2.0603,2.1168,2.1168,2.1168,2.1168,2.1168,2.1168,2.1168,2.1168,2.1261,2.1641,2.2532,2.3282,2.4264,2.5411,2.6553,2.716,2.716,2.7232,2.7292,2.7317,2.7317,2.7304,2.728,2.7292,2.7377,2.7534,2.7546,2.7642,2.7763,2.7811,2.7811,2.7824,2.7884,2.792,2.7944,2.798,2.7836,2.7811,2.7787,2.7836,2.7872,2.786,2.7799,2.7618,2.7498,2.7437,2.7341,2.7232,2.7172,2.716,2.7075,2.7027,2.7027,2.7027,2.7027,1.786,1.786,1.786,1.7846,1.784,1.7826,1.7846,1.7806,1.7704,1.765,1.7629,1.7507,1.7473,1.7439,1.7439,1.7412,1.7358,1.7148,1.7019,1.7005,1.6998,1.6992,1.6985,1.6978,1.6978,1.6978,1.6978,1.6978,1.6978,1.6978,1.6978,1.6978,1.6978,1.6978,1.6978,1.6978,1.6978,1.6873,1.6873,1.6663,1.6236,1.6118,1.5796,1.5258,1.4609,1.3917,1.3187,1.2966,1.2895,1.2868,1.2776,1.2656,1.2748,1.4168,1.5398,1.6707,1.818,1.9683,2.0899,2.1178,2.1168,2.1168,2.1168,2.1168,2.1168,2.1168,2.1178,2.1206,2.1299,2.1625,2.264,2.296,2.3727,2.5376,2.6466,2.7149,2.7289,2.7642,2.7799,2.7763,2.7727,2.7787,2.7799,2.7727,2.7727,2.7787,2.7811,2.7848,2.7932,2.7956,2.7872,2.7908,2.8065,2.821,2.8306,2.8379,2.8174,2.8005,2.7968,2.798,2.8029,2.8041,2.8005,2.786,2.7715,2.7642,2.7606,2.7498,2.7437,2.7389,2.7232,2.7111,2.7111,2.7123,2.7039,1.786,1.786,1.786,1.786,1.786,1.786,1.786,1.786,1.7812,1.7799,1.7785,1.7745,1.7724,1.7697,1.7629,1.7582,1.7561,1.7372,1.7229,1.7141,1.7127,1.7073,1.6998,1.6985,1.6978,1.6978,1.6978,1.6978,1.6978,1.6978,1.6978,1.6978,1.6978,1.6978,1.6978,1.6978,1.6978,1.6978,1.6978,1.6873,1.6768,1.6768,1.6453,1.5901,1.5161,1.4491,1.3808,1.3278,1.2977,1.2895,1.2852,1.2776,1.3257,1.6112,1.7685,1.7371,1.9398,2.0805,2.1264,2.1253,2.1187,2.1178,2.1178,2.1168,2.1168,2.1187,2.1244,2.1348,2.147,2.1827,2.2839,2.3088,2.3613,2.4862,2.5967,2.6678,2.6888,2.7402,2.7706,2.7811,2.7811,2.7811,2.7824,2.7836,2.792,2.8053,2.8089,2.8125,2.8306,2.8306,2.8379,2.8391,2.8487,2.8451,2.8487,2.8512,2.8415,2.8294,2.8246,2.8198,2.8234,2.8234,2.8198,2.8113,2.7968,2.7896,2.7848,2.7775,2.7715,2.7618,2.7486,2.7389,2.7304,2.722,2.7148,1.786,1.786,1.786,1.786,1.786,1.786,1.786,1.786,1.786,1.786,1.786,1.786,1.786,1.7846,1.7765,1.7731,1.7717,1.7629,1.7507,1.7365,1.729,1.7222,1.7134,1.708,1.7026,1.6985,1.6978,1.6978,1.6978,1.6978,1.6978,1.6978,1.6978,1.6978,1.6978,1.6978,1.6978,1.6978,1.6978,1.6978,1.6978,1.6978,1.6873,1.644,1.5838,1.5308,1.4759,1.4013,1.3261,1.3123,1.3384,1.393,1.4743,1.7727,1.9206,1.8898,2.0089,2.1593,2.1574,2.1489,2.1404,2.1404,2.1404,2.1404,2.1404,2.1404,2.1471,2.1556,2.1593,2.1953,2.2603,2.2833,2.3149,2.3718,2.5075,2.6034,2.6565,2.7452,2.8031,2.8149,2.8137,2.8113,2.8113,2.8113,2.8174,2.8331,2.8367,2.8391,2.8572,2.8608,2.862,2.862,2.8596,2.8584,2.8608,2.862,2.862,2.8572,2.8548,2.85,2.85,2.8487,2.8451,2.8403,2.8282,2.827,2.8234,2.8053,2.7944,2.7836,2.7751,2.763,2.7534,2.7341,2.7256,1.786,1.786,1.786,1.786,1.786,1.786,1.786,1.786,1.786,1.786,1.786,1.786,1.786,1.786,1.7846,1.784,1.7853,1.7833,1.7758,1.7629,1.7521,1.7433,1.7358,1.7256,1.7141,1.7026,1.7005,1.6998,1.6978,1.6978,1.6978,1.6978,1.6978,1.6978,1.6978,1.6978,1.6978,1.6978,1.6978,1.6978,1.6978,1.6978,1.6978,1.6873,1.6328,1.5942,1.5691,1.4608,1.3717,1.3318,1.457,1.5956,1.7415,1.8971,1.9979,1.9661,2.1051,2.1639,2.1801,2.1745,2.1726,2.1726,2.1726,2.1792,2.1735,2.1707,2.1735,2.1801,2.1801,2.1886,2.2153,2.22,2.2373,2.2702,2.4318,2.5751,2.6902,2.79,2.8428,2.856,2.8608,2.8608,2.8548,2.8548,2.856,2.8584,2.8584,2.8596,2.8608,2.862,2.862,2.862,2.862,2.862,2.862,2.862,2.862,2.862,2.862,2.862,2.862,2.862,2.862,2.8572,2.8548,2.8572,2.8524,2.8331,2.8234,2.8186,2.8065,2.7908,2.7739,2.7582,2.7449,1.786,1.786,1.786,1.786,1.786,1.786,1.786,1.786,1.786,1.786,1.786,1.786,1.786,1.786,1.786,1.786,1.786,1.786,1.7853,1.7806,1.7772,1.7609,1.7453,1.7385,1.7283,1.7154,1.7127,1.708,1.6985,1.6985,1.6978,1.6978,1.6978,1.6978,1.6978,1.6978,1.6978,1.6978,1.6978,1.6978,1.6978,1.6978,1.6978,1.6978,1.6453,1.6158,1.5912,1.465,1.4256,1.4794,1.6162,1.7154,1.7939,2.0166,2.1111,2.04,2.125,2.2009,2.1981,2.1886,2.1811,2.1792,2.1839,2.1792,2.1792,2.1801,2.1867,2.1962,2.2019,2.2094,2.2255,2.2302,2.2633,2.3541,2.4657,2.5808,2.6936,2.7935,2.862,2.862,2.862,2.862,2.862,2.862,2.862,2.862,2.862,2.862,2.862,2.862,2.862,2.862,2.862,2.862,2.862,2.862,2.862,2.862,2.862,2.862,2.862,2.862,2.862,2.8608,2.8584,2.8596,2.8608,2.8524,2.8512,2.8451,2.8306,2.8113,2.8029,2.7896,2.7763,1.9287,1.9287,1.8302,1.786,1.786,1.786,1.786,1.786,1.786,1.786,1.786,1.786,1.786,1.786,1.786,1.786,1.786,1.786,1.786,1.786,1.7853,1.7724,1.7561,1.7514,1.7433,1.729,1.7222,1.7148,1.7073,1.7012,1.6978,1.6978,1.6978,1.6978,1.6978,1.6978,1.6978,1.6978,1.6978,1.6978,1.6978,1.6978,1.6978,1.6978,1.6656,1.6361,1.5841,1.5054,1.5183,1.6409,1.7246,1.8137,1.9618,2.1308,2.1995,2.1094,2.1786,2.2217,2.2198,2.2104,2.2047,2.2047,2.2047,2.2047,2.2056,2.2047,2.2113,2.2198,2.2217,2.2274,2.2349,2.2387,2.2877,2.3853,2.4935,2.5906,2.6971,2.7947,2.8524,2.862,2.862,2.862,2.862,2.862,2.862,2.862,2.862,2.862,2.862,2.862,2.862,2.862,2.862,2.862,2.862,2.862,2.862,2.862,2.862,2.862,2.862,2.862,2.862,2.862,2.862,2.862,2.862,2.862,2.8596,2.8524,2.8427,2.8379,2.8294,2.8162,2.8029,2.1579,2.114,1.9067,1.8081,1.797,1.786,1.786,1.786,1.786,1.786,1.786,1.786,1.786,1.786,1.786,1.786,1.786,1.786,1.786,1.786,1.7853,1.7785,1.7684,1.767,1.7582,1.7446,1.7297,1.7229,1.7168,1.706,1.6998,1.6985,1.6978,1.6978,1.6978,1.6978,1.6978,1.6978,1.6978,1.6978,1.6978,1.6978,1.6978,1.6978,1.6978,1.6516,1.6111,1.5986,1.6881,1.854,1.8038,1.9232,2.1692,2.2387,2.2387,2.2289,2.227,2.2359,2.2378,2.234,2.2359,2.234,2.2349,2.2387,2.234,2.2321,2.233,2.2349,2.2387,2.2378,2.2378,2.2387,2.3072,2.4058,2.5129,2.5906,2.7067,2.8043,2.862,2.862,2.862,2.862,2.862,2.862,2.862,2.862,2.862,2.862,2.862,2.862,2.862,2.862,2.862,2.862,2.862,2.862,2.862,2.862,2.862,2.862,2.862,2.862,2.862,2.862,2.862,2.862,2.862,2.862,2.862,2.8608,2.8524,2.856,2.8572,2.8403,2.8258,2.2983,2.125,2.0811,1.95,1.8081,1.786,1.786,1.786,1.786,1.786,1.786,1.786,1.786,1.786,1.786,1.786,1.786,1.786,1.786,1.786,1.786,1.7853,1.7812,1.7806,1.7738,1.7616,1.7568,1.7426,1.7243,1.7154,1.7087,1.6992,1.6978,1.6978,1.6978,1.6978,1.6978,1.6978,1.6978,1.6978,1.6978,1.6978,1.6978,1.6978,1.7083,1.6815,1.6797,1.753,1.8877,1.9618,1.9322,1.9914,2.1986,2.2387,2.2387,2.2387,2.2387,2.2387,2.2387,2.2387,2.2387,2.2387,2.2387,2.2387,2.2387,2.2387,2.2387,2.2387,2.2387,2.2387,2.2387,2.2387,2.3365,2.4643,2.5421,2.6294,2.785,2.8428,2.862,2.862,2.862,2.862,2.862,2.862,2.862,2.862,2.862,2.862,2.862,2.862,2.8656,2.8681,2.8705,2.8729,2.8801,2.8777,2.8729,2.8681,2.8656,2.862,2.862,2.862,2.862,2.862,2.862,2.862,2.862,2.862,2.862,2.862,2.862,2.862,2.8596,2.8512,2.8475,2.5052,2.2883,2.179,1.994,1.8081,1.786,1.786,1.786,1.786,1.786,1.786,1.786,1.786,1.786,1.786,1.786,1.786,1.786,1.786,1.786,1.786,1.786,1.786,1.786,1.7819,1.7745,1.767,1.7507,1.7344,1.7222,1.7114,1.6992,1.6978,1.6978,1.6978,1.6978,1.6978,1.6978,1.6978,1.6978,1.6978,1.6978,1.6978,1.7286,1.7894,1.8373,1.8172,1.9845,2.1151,2.1783,2.1477,2.1585,2.2681,2.269,2.2387,2.2387,2.2387,2.2387,2.2387,2.2387,2.2387,2.2387,2.2387,2.2387,2.2387,2.2387,2.2387,2.2387,2.2387,2.2387,2.2387,2.2974,2.3951,2.5129,2.6003,2.6971,2.8139,2.862,2.862,2.862,2.862,2.862,2.862,2.862,2.862,2.862,2.862,2.862,2.862,2.8644,2.8741,2.8777,2.8813,2.8874,2.897,2.8958,2.8862,2.8789,2.8717,2.8669,2.862,2.862,2.862,2.862,2.862,2.862,2.862,2.862,2.862,2.862,2.862,2.862,2.8608,2.8572,2.856,2.7434,2.5151,2.3202,2.1031,1.9067,1.8626,1.8515,1.8515,1.797,1.786,1.786,1.786,1.786,1.786,1.786,1.786,1.786,1.786,1.786,1.786,1.786,1.786,1.786,1.786,1.7853,1.7846,1.7751,1.7595,1.7419,1.729,1.7161,1.7012,1.6978,1.6978,1.6978,1.6978,1.6978,1.6978,1.6978,1.6978,1.6978,1.7083,1.7188,1.8118,1.8983,2.0068,2.0511,2.2095,2.3631,2.4156,2.432,2.4428,2.4243,2.3463,2.2681,2.2779,2.2779,2.2681,2.2485,2.2387,2.2387,2.2387,2.2387,2.2387,2.2387,2.2387,2.2387,2.2387,2.2387,2.2485,2.2681,2.3268,2.4438,2.5615,2.6584,2.7453,2.8332,2.862,2.862,2.862,2.862,2.862,2.862,2.862,2.862,2.862,2.862,2.862,2.862,2.8705,2.8813,2.8946,2.8994,2.9067,2.9163,2.9188,2.9091,2.8994,2.8874,2.8765,2.8693,2.8632,2.8644,2.8632,2.862,2.862,2.862,2.862,2.862,2.862,2.862,2.862,2.862,2.862,2.862,2.9833,2.7649,2.7326,2.5802,2.3529,2.1571,2.0592,2.038,1.8633,1.797,1.786,1.786,1.786,1.786,1.786,1.786,1.786,1.786,1.786,1.786,1.786,1.786,1.786,1.786,1.786,1.786,1.7812,1.7677,1.7473,1.7378,1.7216,1.7032,1.6978,1.6978,1.6978,1.6978,1.6978,1.6978,1.6978,1.6978,1.6978,1.7083,1.7908,1.9133,2.0062,2.1088,2.2589,2.4187,2.5265,2.5313,2.6078,2.6476,2.6282,2.5518,2.4643,2.3863,2.3756,2.3473,2.2779,2.2485,2.2387,2.2387,2.2387,2.2387,2.2387,2.2387,2.2485,2.2583,2.2681,2.2779,2.3658,2.4146,2.5022,2.6186,2.7056,2.755,2.8332,2.862,2.862,2.862,2.862,2.862,2.862,2.862,2.862,2.862,2.862,2.862,2.862,2.8765,2.8958,2.9079,2.92,2.9272,2.9357,2.9369,2.9332,2.926,2.9127,2.8934,2.8837,2.8705,2.8656,2.8632,2.862,2.862,2.862,2.862,2.862,2.862,2.862,2.862,2.862,2.862,2.862,3.0488,2.8296,2.8296,2.7002,2.4608,2.2337,2.125,2.0921,1.8957,1.786,1.786,1.786,1.786,1.786,1.786,1.786,1.786,1.786,1.786,1.786,1.786,1.786,1.786,1.786,1.786,1.786,1.7846,1.7711,1.7446,1.7419,1.7256,1.7046,1.6978,1.6978,1.6978,1.6978,1.6978,1.6978,1.6978,1.6978,1.6978,1.6978,1.8222,1.9823,2.1337,2.2674,2.4478,2.6453,2.7307,2.7295,2.7634,2.7839,2.7646,2.726,2.639,2.5129,2.474,2.4351,2.3473,2.317,2.3072,2.2485,2.2387,2.2387,2.2387,2.2485,2.2681,2.318,2.3863,2.4146,2.474,2.5216,2.6089,2.6874,2.755,2.8043,2.8428,2.8524,2.862,2.862,2.862,2.862,2.862,2.862,2.862,2.862,2.862,2.862,2.862,2.885,2.9091,2.9344,2.9501,2.9646,2.9682,2.9622,2.9622,2.9538,2.9357,2.9163,2.897,2.8825,2.8705,2.8632,2.862,2.862,2.862,2.862,2.862,2.862,2.862,2.862,2.862,2.862,2.862,3.0714,2.8963,2.8963,2.7876,2.592,2.3211,2.2008,2.1469,1.9067,1.786,1.786,1.786,1.786,1.786,1.786,1.786,1.786,1.786,1.786,1.786,1.786,1.786,1.786,1.786,1.786,1.786,1.786,1.7711,1.7473,1.7419,1.7249,1.706,1.6978,1.6978,1.6978,1.6978,1.6978,1.6978,1.6978,1.6978,1.7083,1.7496,1.8738,2.087,2.284,2.4739,2.6683,2.787,2.8438,2.838,2.8524,2.8524,2.862,2.862,2.785,2.6487,2.6003,2.5227,2.4253,2.3961,2.3375,2.2485,2.2681,2.2681,2.2877,2.317,2.3473,2.4253,2.4838,2.5518,2.5809,2.6487,2.7067,2.755,2.8139,2.862,2.8524,2.862,2.862,2.862,2.862,2.862,2.862,2.862,2.862,2.862,2.862,2.862,2.8669,2.8982,2.926,2.961,2.9851,3.0033,3.0045,2.9924,2.9912,2.9864,2.961,2.9344,2.9127,2.8922,2.8801,2.8669,2.862,2.862,2.862,2.862,2.862,2.862,2.862,2.862,2.862,2.862,2.862,3.17,3.1368,3.1368,3.1154,3.0167,2.6136,2.44,2.3856,1.9933,1.797,1.8191,1.786,1.786,1.786,1.786,1.786,1.786,1.786,1.786,1.786,1.786,1.786,1.786,1.786,1.786,1.786,1.786,1.769,1.7487,1.7419,1.7263,1.7039,1.6978,1.6978,1.6978,1.6978,1.6978,1.6978,1.6978,1.6978,1.7286,1.8738,2.08,2.2857,2.4658,2.6517,2.8102,2.8764,2.8584,2.8644,2.862,2.862,2.862,2.862,2.8524,2.8031,2.7357,2.6089,2.4633,2.4341,2.3961,2.3268,2.3365,2.3658,2.3961,2.4546,2.5032,2.5227,2.5615,2.61,2.6777,2.7067,2.755,2.8043,2.8428,2.862,2.862,2.862,2.862,2.862,2.862,2.862,2.862,2.862,2.862,2.862,2.862,2.8632,2.8741,2.9043,2.9465,2.9839,2.9984,3.0153,3.0214,3.0117,3.0093,3.0093,2.9827,2.9513,2.9272,2.9043,2.8837,2.8729,2.8669,2.862,2.862,2.862,2.862,2.862,2.862,2.862,2.862,2.862,2.862,3.1807,3.1807,3.1807,3.1807,3.1368,2.8199,2.6786,2.5802,2.1899,1.983,1.95,1.8412,1.786,1.797,1.786,1.786,1.786,1.786,1.786,1.786,1.786,1.786,1.786,1.786,1.786,1.786,1.7833,1.7697,1.7507,1.7392,1.727,1.7026,1.6978,1.6978,1.6978,1.6978,1.6978,1.6978,1.6978,1.6978,1.7601,1.9141,2.1259,2.3315,2.5142,2.7147,2.8528,2.885,2.8632,2.862,2.862,2.862,2.862,2.862,2.862,2.8524,2.8236,2.726,2.61,2.5798,2.5022,2.4438,2.4546,2.4838,2.5032,2.5701,2.639,2.639,2.6971,2.7453,2.7754,2.7947,2.8139,2.8428,2.862,2.862,2.862,2.862,2.862,2.862,2.862,2.862,2.862,2.862,2.862,2.862,2.8632,2.8656,2.8801,2.9091,2.9562,3.0081,3.0153,3.0202,3.0214,3.0177,3.0165,3.0129,2.9936,2.9646,2.9405,2.9175,2.897,2.8765,2.8656,2.862,2.862,2.862,2.862,2.862,2.862,2.862,2.862,2.862,2.862,3.1807,3.1807,3.1807,3.1807,3.1593,2.9286,2.8188,2.7757,2.3965,2.2118,2.1579,1.994,1.8846,1.8515,1.8302,1.786,1.786,1.786,1.786,1.786,1.786,1.786,1.786,1.786,1.786,1.786,1.786,1.769,1.7507,1.7392,1.727,1.6992,1.6978,1.6978,1.6978,1.6978,1.6978,1.6978,1.6978,1.6978,1.7496,1.9871,2.1621,2.36,2.5492,2.7562,2.8726,2.8765,2.8632,2.862,2.862,2.862,2.862,2.862,2.862,2.862,2.8428,2.8224,2.7453,2.6971,2.6584,2.6003,2.5906,2.6003,2.6487,2.7067,2.7453,2.7453,2.7935,2.8332,2.862,2.8524,2.8524,2.8524,2.862,2.862,2.8524,2.8428,2.8428,2.862,2.862,2.862,2.862,2.862,2.862,2.862,2.8644,2.8669,2.891,2.9188,2.961,3.0129,3.0214,3.0214,3.0214,3.0214,3.0214,3.0177,2.9996,2.9803,2.9574,2.932,2.9091,2.8898,2.8693,2.862,2.862,2.862,2.862,2.862,2.862,2.862,2.862,2.862,2.862,3.1807,3.1807,3.1807,3.1807,3.1688,2.9286,2.8414,2.8414,2.5703,2.4509,2.3965,2.2227,2.1031,2.0592,1.9177,1.8302,1.8081,1.797,1.786,1.786,1.786,1.786,1.786,1.786,1.786,1.786,1.7853,1.7697,1.7487,1.7419,1.7243,1.7019,1.6985,1.6978,1.6978,1.6978,1.6978,1.6978,1.6978,1.7188,1.8432,2.0679,2.3175,2.4099,2.6815,2.9186,2.9031,2.8765,2.862,2.862,2.862,2.862,2.862,2.862,2.862,2.862,2.862,2.8428,2.8139,2.7646,2.6669,2.6197,2.639,2.726,2.7742,2.8236,2.8428,2.8332,2.8524,2.8524,2.862,2.862,2.862,2.862,2.8524,2.8128,2.8128,2.8031,2.8128,2.8428,2.8332,2.7935,2.8332,2.8224,2.8524,2.862,2.8669,2.8693,2.9067,2.9369,2.9682,3.0033,3.0165,3.0214,3.0214,3.0214,3.0214,3.0214,3.0117,2.9948,2.9767,2.9513,2.92,2.897,2.8777,2.8693,2.862,2.862,2.862,2.862,2.862,2.862,2.862,2.862,2.862,3.1807,3.1807,3.1807,3.1807,3.17,3.0821,3.0488,3.0048,2.7983,2.6018,2.4835,2.3856,2.342,2.2765,2.114,1.994,1.972,1.8412,1.8081,1.786,1.786,1.786,1.786,1.786,1.786,1.786,1.7846,1.7711,1.7446,1.7405,1.7229,1.7066,1.6985,1.6978,1.6978,1.6978,1.6978,1.6978,1.7188,1.7496,1.9558,2.1725,2.4109,2.553,2.7625,2.9087,2.9019,2.8765,2.8656,2.862,2.862,2.862,2.862,2.862,2.862,2.862,2.862,2.862,2.862,2.8236,2.7839,2.7646,2.785,2.8139,2.862,2.862,2.862,2.862,2.8524,2.8332,2.862,2.862,2.862,2.862,2.8332,2.7827,2.7237,2.6948,2.6357,2.6067,2.6357,2.6454,2.7141,2.7731,2.8224,2.8632,2.8669,2.8789,2.9151,2.9453,2.9731,3.0008,3.0165,3.0214,3.0214,3.0214,3.0214,3.0214,3.0214,3.0069,2.9888,2.9574,2.9284,2.9055,2.885,2.8729,2.8644,2.8632,2.862,2.862,2.862,2.862,2.862,2.862,2.862,3.1807,3.1807,3.1807,3.1807,3.1807,3.1807,3.1807,3.1486,3.0059,2.8522,2.6796,2.6245,2.5811,2.5151,2.342,2.168,2.1031,1.972,1.8633,1.8191,1.786,1.786,1.786,1.786,1.786,1.7853,1.7785,1.7643,1.7426,1.7378,1.7202,1.7046,1.6978,1.6978,1.6978,1.6978,1.6978,1.6978,1.7188,1.8118,2.0175,2.2442,2.4519,2.6349,2.8334,2.9186,2.9019,2.8777,2.8644,2.862,2.862,2.862,2.862,2.862,2.862,2.862,2.862,2.862,2.862,2.862,2.862,2.8332,2.8428,2.8524,2.862,2.862,2.862,2.8524,2.8128,2.7827,2.8031,2.7442,2.6948,2.6647,2.7141,2.6743,2.5669,2.5173,2.4192,2.3511,2.4095,2.4785,2.6454,2.7334,2.8224,2.8524,2.8644,2.8837,2.9224,2.9489,2.9682,2.996,3.0202,3.0214,3.0214,3.0214,3.0214,3.0214,3.0202,3.0153,2.996,2.9658,2.9429,2.9224,2.9006,2.8777,2.8669,2.8632,2.862,2.862,2.862,2.862,2.862,2.862,2.862,3.1807,3.1807,3.1807,3.1807,3.1807,3.1807,3.1807,3.1807,3.1474,3.1261,3.0607,2.9071,2.8199,2.766,2.5811,2.3747,2.1899,2.114,1.994,1.8302,1.786,1.786,1.786,1.786,1.786,1.7826,1.7745,1.7602,1.7419,1.7297,1.7134,1.7026,1.6978,1.6978,1.6978,1.6978,1.6978,1.6978,1.7083,1.8634,2.0696,2.2968,2.5021,2.7122,2.8544,2.9284,2.9103,2.8777,2.8644,2.862,2.862,2.862,2.862,2.862,2.862,2.862,2.862,2.862,2.862,2.862,2.862,2.862,2.862,2.862,2.862,2.862,2.8332,2.7935,2.6936,2.6743,2.626,2.5475,2.4979,2.4882,2.5367,2.4882,2.3803,2.3121,2.2144,2.1165,2.1949,2.3121,2.527,2.6948,2.8031,2.8524,2.8524,2.8874,2.9272,2.9489,2.9658,2.996,3.0214,3.0214,3.0214,3.0214,3.0214,3.0214,3.0202,3.0165,3.0069,2.9851,2.9622,2.9405,2.9139,2.885,2.8717,2.862,2.862,2.862,2.862,2.862,2.862,2.862,2.862,3.1807,3.1807,3.1807,3.1807,3.1807,3.1807,3.1807,3.1807,3.1807,3.1807,3.17,3.0821,3.0607,2.9952,2.8199,2.5811,2.3747,2.1469,2.005,1.8191,1.8081,1.786,1.786,1.786,1.786,1.7826,1.7717,1.7561,1.7419,1.7256,1.7121,1.7019,1.6978,1.6978,1.6978,1.6978,1.6978,1.7286,1.8424,2.0288,2.245,2.4618,2.6649,2.8707,2.9248,2.9369,2.9236,2.8874,2.8669,2.8632,2.862,2.862,2.862,2.862,2.862,2.862,2.862,2.862,2.862,2.862,2.862,2.862,2.862,2.862,2.862,2.862,2.7935,2.6755,2.5669,2.5076,2.391,2.3413,2.3121,2.3121,2.3121,2.2144,2.1263,2.088,2.0094,1.9018,1.9018,2.2047,2.4591,2.6175,2.7357,2.838,2.8693,2.8934,2.9308,2.9441,2.9598,2.996,3.0214,3.0214,3.0214,3.0214,3.0214,3.0214,3.0214,3.0202,3.0093,2.9972,2.9719,2.9441,2.9188,2.8934,2.8765,2.862,2.862,2.862,2.862,2.862,2.862,2.862,2.862,3.1807,3.1807,3.1807,3.1807,3.1807,3.1807,3.1807,3.1807,3.1807,3.1807,3.1807,3.1807,3.17,3.1261,3.0167,2.8199,2.6028,2.4617,2.1571,1.95,1.9067,1.8736,1.8191,1.786,1.786,1.7812,1.7663,1.75,1.7405,1.7216,1.708,1.6998,1.6978,1.6978,1.6978,1.6978,1.6978,1.7601,1.8843,2.1111,2.3381,2.5553,2.7827,2.926,2.9815,2.9501,2.932,2.9043,2.8705,2.8656,2.862,2.862,2.862,2.862,2.862,2.862,2.862,2.862,2.862,2.862,2.862,2.862,2.862,2.8224,2.7731,2.7334,2.6152,2.4979,2.3998,2.3316,2.234,2.1851,2.0675,2.0675,2.0969,1.9995,1.9117,1.873,1.8829,1.765,1.7353,2.0585,2.3618,2.5205,2.6584,2.7728,2.8777,2.9067,2.9344,2.9489,2.9634,2.9984,3.0214,3.0214,3.0214,3.0214,3.0214,3.0214,3.0214,3.0214,3.0189,3.0081,2.9779,2.9489,2.9284,2.9055,2.8765,2.862,2.862,2.862,2.862,2.862,2.862,2.862,2.862,3.1807,3.1807,3.1807,3.1807,3.1807,3.1807,3.1807,3.1807,3.1807,3.1807,3.1807,3.1807,3.1807,3.1807,3.17,3.0167,2.8199,2.7757,2.4726,2.2008,2.0701,1.961,1.8405,1.786,1.786,1.7765,1.7616,1.746,1.7385,1.7154,1.7005,1.6985,1.6978,1.6978,1.6978,1.6978,1.6978,1.7601,1.9767,2.1829,2.3794,2.6179,2.8246,2.9599,2.99,2.9622,2.9393,2.9115,2.8862,2.8717,2.862,2.862,2.862,2.862,2.862,2.862,2.862,2.862,2.862,2.862,2.862,2.8524,2.8224,2.7334,2.6346,2.5669,2.4192,2.2633,2.1361,2.1459,2.1165,1.9413,1.765,1.8236,1.9018,1.8236,1.7261,1.7062,1.7459,1.7062,1.6474,1.8434,2.1557,2.3531,2.5561,2.7187,2.8386,2.9212,2.9465,2.9622,2.9803,3.0045,3.0214,3.0214,3.0214,3.0214,3.0214,3.0214,3.0214,3.0214,3.0202,3.0141,2.9851,2.9598,2.9417,2.9151,2.8765,2.862,2.862,2.862,2.862,2.862,2.862,2.862,2.862,3.1807,3.1807,3.1807,3.1807,3.1807,3.1807,3.1807,3.1807,3.1807,3.1807,3.1807,3.1807,3.1807,3.1807,3.1807,3.0274,2.9178,2.7649,2.5052,2.3101,2.179,1.994,1.8626,1.797,1.797,1.7758,1.7595,1.7405,1.7351,1.7121,1.6978,1.6978,1.6978,1.6978,1.6978,1.6978,1.6978,1.8013,2.0496,2.245,2.4515,2.7101,2.8971,2.9927,2.9972,2.9707,2.9453,2.9188,2.8922,2.8693,2.8632,2.862,2.862,2.862,2.862,2.862,2.862,2.862,2.862,2.862,2.862,2.8128,2.7237,2.6357,2.527,2.3998,2.234,2.0487,1.9413,1.9503,1.9018,1.7551,1.6573,1.6963,1.7551,1.7162,1.6374,1.6474,1.6772,1.6672,1.6083,1.7253,2.029,2.2289,2.4335,2.6397,2.7998,2.901,2.9598,2.9779,2.9912,3.0153,3.0214,3.0214,3.0214,3.0214,3.0214,3.0214,3.0214,3.0214,3.0214,3.0105,2.9888,2.9598,2.9272,2.8982,2.8693,2.862,2.862,2.862,2.862,2.862,2.862,2.862,2.862,3.1807,3.1807,3.1807,3.1807,3.1807,3.1807,3.1807,3.1807,3.1807,3.1807,3.1807,3.1807,3.1807,3.1807,3.17,3.1047,2.9941,2.9726,2.7876,2.5269,2.2992,2.136,1.994,1.8405,1.7819,1.7711,1.7561,1.7385,1.729,1.7134,1.6978,1.6978,1.6978,1.6978,1.6978,1.6978,1.6978,1.8529,2.0704,2.2968,2.5245,2.7725,2.9491,3.0177,3.0008,2.9815,2.9562,2.9296,2.9043,2.8789,2.8717,2.862,2.862,2.862,2.862,2.862,2.862,2.862,2.862,2.862,2.862,2.7839,2.5959,2.4494,2.3413,2.2242,2.0192,1.8335,1.7939,1.7551,1.6765,1.6083,1.6182,1.6175,1.6175,1.6175,1.6083,1.6083,1.6182,1.6182,1.6573,1.7353,1.9042,2.104,2.3336,2.5959,2.8019,2.9371,2.9839,2.9984,3.0057,3.0189,3.0214,3.0214,3.0214,3.0214,3.0214,3.0214,3.0214,3.0214,3.0214,3.0105,2.9912,2.9489,2.9006,2.8789,2.862,2.862,2.862,2.862,2.862,2.862,2.862,2.862,2.862,3.1807,3.1807,3.1807,3.1807,3.1807,3.1807,3.1807,3.1807,3.1807,3.1807,3.1807,3.1807,3.1807,3.1807,3.1807,3.1807,3.1261,3.1154,2.9833,2.8188,2.592,2.3856,2.1571,1.9493,1.8885,1.8079,1.7494,1.7338,1.7175,1.7046,1.6978,1.6978,1.6978,1.6978,1.6978,1.6978,1.7083,1.7706,2.0496,2.3071,2.4618,2.7214,3.0011,3.0214,3.0153,3.0057,2.9791,2.955,2.9308,2.9031,2.8825,2.8693,2.8632,2.862,2.862,2.862,2.862,2.862,2.862,2.862,2.8224,2.7044,2.4785,2.2926,2.1753,2.0192,1.8137,1.7261,1.6963,1.6864,1.6275,1.6083,1.6083,1.6083,1.6083,1.6083,1.6083,1.6083,1.6083,1.6083,1.6275,1.7062,1.797,1.9981,2.2137,2.5205,2.747,2.8936,3.002,3.0141,3.0177,3.0214,3.0214,3.0214,3.0214,3.0214,3.0214,3.0214,3.0214,3.0214,3.0214,3.0093,2.9948,2.9477,2.8994,2.8777,2.862,2.862,2.862,2.862,2.862,2.862,2.862,2.862,2.862,3.1807,3.1807,3.1807,3.1807,3.1807,3.1807,3.1807,3.1807,3.1807,3.1807,3.1807,3.1807,3.1807,3.1807,3.1807,3.1807,3.1807,3.17,3.0274,2.8963,2.7434,2.6028,2.3856,2.1672,2.0482,1.9682,1.8762,1.727,1.7087,1.6998,1.6978,1.6978,1.6978,1.6978,1.6978,1.6978,1.7083,1.7188,1.9253,2.1933,2.3691,2.5861,2.8246,2.9491,3.0189,3.0081,2.9876,2.9743,2.9417,2.9091,2.8982,2.8825,2.8644,2.8632,2.862,2.862,2.862,2.862,2.862,2.8428,2.7935,2.6164,2.39,2.1851,1.9995,1.8046,1.6772,1.6374,1.6083,1.6083,1.6083,1.6083,1.6083,1.6083,1.6083,1.6083,1.6083,1.6083,1.6083,1.6083,1.6083,1.6587,1.7397,1.8996,2.1151,2.3446,2.5777,2.7627,2.9451,3.0189,3.0189,3.0214,3.0214,3.0214,3.0214,3.0214,3.0214,3.0214,3.0214,3.0214,3.0214,2.9936,2.967,2.9393,2.9043,2.8789,2.862,2.862,2.862,2.862,2.862,2.862,2.862,2.862,2.862,3.1807,3.1807,3.1807,3.1807,3.1807,3.1807,3.1807,3.1807,3.1807,3.1807,3.1807,3.1807,3.1807,3.1807,3.1807,3.1807,3.1807,3.1807,3.1154,3.0155,2.8629,2.7542,2.5811,2.3955,2.2016,2.0878,1.8594,1.7114,1.6998,1.6978,1.6978,1.6978,1.6978,1.6978,1.6978,1.6978,1.6978,1.7083,1.8424,2.0079,2.245,2.5039,2.7827,2.9491,3.0177,3.0093,3.0008,2.9888,2.9646,2.9332,2.9163,2.8874,2.8693,2.8632,2.862,2.862,2.862,2.862,2.8524,2.8224,2.7442,2.5475,2.3511,2.1655,1.9511,1.7749,1.6573,1.6083,1.6083,1.6083,1.6083,1.6083,1.6083,1.6083,1.6083,1.6083,1.6083,1.6083,1.6083,1.6083,1.6096,1.6237,1.7185,1.8629,2.0897,2.3206,2.5327,2.7503,2.9206,3.0214,3.0214,3.0214,3.0214,3.0214,3.0214,3.0214,3.0214,3.0214,3.0214,3.0214,3.0165,2.9731,2.9369,2.9248,2.9055,2.8741,2.862,2.862,2.862,2.862,2.862,2.862,2.862,2.862,2.862,3.1807,3.1807,3.1807,3.1807,3.1807,3.1807,3.1807,3.1807,3.1807,3.1807,3.1807,3.1807,3.1807,3.1807,3.1807,3.1807,3.1807,3.1807,3.1593,3.1142,2.9726,2.9178,2.8091,2.6323,2.3817,2.1259,1.885,1.7692,1.6985,1.6978,1.6978,1.6978,1.6978,1.6978,1.6978,1.6978,1.6978,1.6978,1.7699,1.8529,2.1111,2.4206,2.6998,2.8869,3.0011,3.0214,3.0129,3.0033,2.9864,2.9586,2.9272,2.8922,2.8717,2.8524,2.8031,2.8031,2.7731,2.7742,2.7935,2.7731,2.6647,2.5076,2.3218,2.1263,1.9117,1.765,1.6374,1.6083,1.6083,1.6083,1.6083,1.6083,1.6083,1.6083,1.6083,1.6083,1.6083,1.6083,1.6083,1.6083,1.6117,1.6157,1.7185,1.8536,2.0722,2.3145,2.5359,2.7636,2.9389,2.9909,3.0214,3.0214,3.0214,3.0214,3.0214,3.0214,3.0214,3.0214,3.0214,3.0214,3.0105,2.9695,2.9417,2.9308,2.9091,2.8729,2.862,2.862,2.862,2.862,2.862,2.862,2.862,2.862,2.862,3.1807,3.1807,3.1807,3.1807,3.1807,3.1807,3.1807,3.1807,3.1807,3.1807,3.1807,3.1807,3.1807,3.1807,3.1807,3.1807,3.1807,3.1807,3.1807,3.1474,3.0928,3.1035,3.0121,2.7877,2.4864,2.2282,2.0054,1.8768,1.7699,1.7286,1.6978,1.6978,1.6978,1.6978,1.6978,1.6978,1.6978,1.6978,1.7188,1.8013,2.0079,2.2761,2.5132,2.7203,2.9276,2.9796,3.0189,3.0165,3.0008,2.9719,2.9332,2.8958,2.8753,2.8452,2.7839,2.6851,2.655,2.626,2.626,2.6152,2.4882,2.3218,2.1557,2.0389,1.8434,1.6864,1.6083,1.6083,1.6083,1.6083,1.6083,1.6083,1.6083,1.6083,1.6083,1.6083,1.6083,1.6083,1.6083,1.609,1.611,1.6392,1.6912,1.8769,2.0942,2.3257,2.5481,2.7658,2.9694,3.0011,3.0214,3.0214,3.0214,3.0214,3.0214,3.0214,3.0214,3.0214,3.0214,3.0214,3.0057,2.9707,2.9477,2.9357,2.9043,2.8681,2.862,2.862,2.862,2.862,2.862,2.862,2.862,2.862,2.862]}]]